GFSMA_700_spd_000.txt.gz
Wind_Speed
16 16 16 17 17 18 19 22 24 26 27 26 27 27 27 27 29 29 29 29 30 31 31 31 31 30 29 27 27 26 28 29 31 33 34 36 36 36 38 40 40 41 40
19 18 19 19 19 21 23 25 26 27 28 28 28 29 29 29 29 27 27 27 28 29 30 30 31 32 30 30 29 28 30 32 34 35 34 34 34 37 40 40 40 41 43
20 20 21 21 23 24 26 27 28 29 30 31 30 28 26 26 26 27 27 27 28 29 29 30 30 31 28 29 33 33 36 36 36 39 35 37 36 37 38 41 43 43 43
21 21 22 23 25 26 28 29 30 32 32 29 25 24 25 27 27 27 28 28 29 28 28 29 30 31 32 32 33 36 38 38 40 41 42 41 41 42 41 41 45 45 48
21 22 23 24 26 28 29 31 33 31 27 26 26 25 26 28 28 28 27 28 28 27 28 28 28 29 30 31 32 33 34 34 36 39 44 48 46 48 46 44 45 46 48
20 21 22 25 27 29 31 31 27 27 29 27 26 26 27 28 27 26 26 27 28 29 29 30 30 30 32 33 35 37 40 41 42 44 43 43 47 51 53 54 55 53 52
20 21 24 26 29 30 27 24 26 26 29 28 28 26 25 27 27 27 26 27 28 28 28 30 31 34 35 37 39 41 43 45 46 46 47 47 50 53 54 56 56 57 61
20 23 26 28 28 27 26 26 26 26 29 32 33 32 31 28 29 29 29 31 32 33 34 36 37 39 41 42 42 42 44 46 49 47 48 49 52 54 56 57 60 61 64
22 24 26 26 25 25 26 27 27 28 29 32 36 38 40 40 40 35 35 36 39 40 42 43 45 45 46 46 46 45 45 47 47 49 49 50 54 57 59 61 61 62 64
23 23 23 23 23 24 26 28 30 31 32 33 34 35 38 42 46 52 41 40 43 46 47 48 48 49 49 49 47 46 45 46 46 49 50 51 54 56 58 60 61 61 60
21 22 22 24 26 28 30 32 34 35 36 36 37 37 38 39 43 49 57 54 50 49 50 52 50 49 49 47 45 45 45 47 49 49 51 53 55 58 58 56 57 61 62
22 23 25 27 30 32 33 35 36 37 37 38 39 40 42 44 46 50 55 59 62 62 61 58 52 50 48 46 46 46 48 50 50 51 52 54 56 58 62 65 62 51 54
26 28 30 31 33 35 37 39 39 39 38 38 39 41 42 45 48 51 56 61 65 65 65 63 57 52 50 51 50 51 53 53 53 54 54 56 58 59 61 62 63 48 48
30 32 34 35 37 39 41 41 40 39 39 40 41 43 46 47 50 52 56 61 68 67 65 63 56 53 52 54 54 56 57 57 57 57 58 57 56 56 57 56 52 45 46
33 36 37 38 40 43 44 43 42 41 40 42 43 46 48 50 52 52 53 55 59 67 69 62 58 54 54 56 55 57 59 60 59 58 56 55 54 51 51 48 43 43 44
37 39 40 41 43 45 45 44 42 41 42 44 46 48 50 52 53 53 53 54 54 57 64 58 56 57 56 57 56 58 61 60 57 56 52 50 49 48 42 45 43 42 48
39 41 41 43 45 46 45 44 43 44 46 47 49 51 51 53 54 53 52 53 54 55 59 56 55 54 56 58 59 60 60 60 59 56 54 50 48 45 47 47 49 49 47
41 42 43 45 46 46 44 44 45 46 49 50 51 53 53 54 52 51 52 54 55 55 56 58 54 55 56 57 60 61 59 58 58 54 49 44 43 40 42 43 42 41 35
42 42 44 46 45 44 44 44 47 49 51 52 53 53 53 53 54 55 55 56 56 54 53 53 57 55 56 57 58 57 58 57 52 45 43 40 36 36 34 31 30 37 43
41 43 45 44 43 43 45 47 50 51 52 52 52 52 53 56 57 58 57 56 54 52 51 50 52 54 49 54 55 60 56 48 45 42 39 34 37 35 34 35 36 37 39
42 44 43 42 42 44 47 50 52 54 53 52 52 54 56 59 58 56 54 53 50 48 47 48 48 49 51 54 57 53 50 47 43 42 43 40 43 39 36 34 34 34 36
42 41 41 42 43 45 48 50 52 53 52 53 56 58 58 57 56 54 51 47 42 39 40 42 44 53 57 57 47 45 45 46 49 41 46 44 44 41 37 34 33 33 35
40 39 40 42 44 47 49 51 51 52 53 55 58 59 57 55 52 50 47 44 39 36 37 44 54 56 52 46 43 43 43 46 48 46 43 43 35 36 30 28 27 28 30
38 39 40 43 46 48 50 50 52 53 55 57 57 55 52 50 48 47 43 37 39 42 46 51 51 48 42 39 39 42 45 45 44 40 38 44 36 34 28 21 20 24 26
37 39 42 45 48 48 49 51 53 54 57 57 54 50 48 47 44 39 34 40 44 46 47 44 37 33 33 35 35 36 36 40 42 39 32 38 34 34 27 17 16 19 25
38 41 43 45 46 47 50 51 54 56 57 54 50 48 45 41 37 31 37 44 45 42 39 35 32 31 31 27 27 29 33 37 39 38 29 36 34 33 30 18 16 19 24

GFSMA_700_spd_003.txt.gz
Wind_Speed
16 16 16 17 17 16 18 19 21 22 22 23 24 24 26 26 26 25 23 23 24 25 26 27 28 28 29 30 30 28 27 30 31 33 33 34 33 33 35 35 36 37 38
17 17 18 18 18 19 20 21 22 23 23 24 25 26 24 23 21 22 23 24 26 27 27 28 28 29 30 30 30 32 35 36 35 35 37 39 39 38 38 38 38 39 38
19 19 19 19 20 22 22 23 25 26 27 27 24 20 21 22 23 23 24 25 26 27 28 29 30 30 31 32 31 33 36 39 40 42 43 44 45 46 44 43 42 42 42
20 20 21 22 22 24 25 26 28 29 27 21 20 23 23 23 24 26 26 26 26 26 27 27 28 30 31 33 34 34 35 36 41 45 47 47 49 48 49 49 48 47 46
20 20 22 22 24 25 27 29 30 26 22 23 22 23 24 25 25 25 26 26 26 27 28 29 30 31 32 32 34 34 36 37 39 40 42 43 44 49 52 54 53 52 51
20 20 22 23 25 28 29 28 26 25 24 23 23 24 27 27 26 26 27 26 28 29 29 31 31 33 34 35 37 39 40 41 42 45 45 46 47 48 50 53 55 59 58
19 20 21 25 27 28 26 25 25 26 27 26 25 25 28 29 29 29 28 29 30 31 32 33 34 35 36 38 40 42 44 45 48 48 48 49 51 52 54 55 57 58 60
19 21 24 26 26 25 25 25 26 27 29 30 31 33 32 30 31 33 32 32 33 34 34 37 38 41 43 45 47 49 51 50 52 50 52 54 55 55 57 59 60 62 63
20 23 24 24 24 24 24 24 26 28 31 34 36 38 40 41 41 36 35 35 37 37 38 41 44 46 48 50 51 53 53 55 55 53 54 54 56 57 60 62 62 63 65
21 22 23 23 23 23 24 26 28 31 34 36 37 38 39 43 46 50 41 38 40 42 44 46 48 49 51 53 55 56 56 56 55 54 54 53 54 55 58 61 61 62 64
20 22 23 24 24 25 27 30 33 35 37 39 40 40 39 40 43 49 53 47 44 46 49 52 55 55 54 55 57 58 57 57 57 55 55 54 55 57 58 61 62 62 63
22 24 25 27 28 29 31 33 36 39 40 40 40 40 42 44 45 49 54 56 59 59 59 59 59 58 56 56 57 57 56 57 58 59 58 58 60 61 63 64 64 64 65
25 27 29 31 32 33 34 37 40 42 41 41 40 40 41 44 47 50 55 59 64 65 66 68 65 63 58 55 53 53 54 56 57 57 57 59 61 62 63 64 65 66 68
28 30 33 35 36 37 38 40 43 44 42 42 42 42 44 47 50 53 57 62 67 68 68 68 64 62 60 58 58 56 55 54 54 56 57 59 60 61 63 65 68 68 67
31 33 36 38 39 40 42 43 44 44 43 43 43 44 47 50 53 55 55 56 60 70 73 69 67 62 60 59 58 59 59 58 58 58 58 59 61 62 64 65 66 64 53
34 36 39 41 42 42 44 46 45 44 44 43 46 48 51 54 56 55 55 55 57 60 69 65 64 64 63 63 60 60 59 59 57 56 56 57 59 61 61 60 57 52 46
36 38 41 43 42 43 45 45 45 45 45 47 49 53 55 57 57 56 57 57 59 61 66 65 64 63 63 64 64 62 60 58 56 55 56 57 57 53 47 40 40 43 41
39 41 43 43 44 45 45 46 46 45 48 51 54 56 56 57 58 58 58 60 63 63 63 65 65 63 62 60 60 60 58 56 57 58 56 52 45 40 39 40 39 36 35
41 43 43 43 45 44 45 45 46 48 50 53 55 56 58 59 59 60 63 64 64 63 60 58 59 57 56 54 56 57 55 55 57 55 47 44 39 39 39 39 39 37 36
42 43 43 44 45 45 45 46 48 50 53 54 55 57 58 59 61 63 64 63 60 57 54 52 52 52 49 51 53 58 58 57 53 47 43 39 41 42 43 44 44 43 43
42 42 43 44 44 44 45 48 51 53 54 55 57 57 57 60 61 60 58 56 54 52 49 46 48 49 52 53 57 60 58 52 45 40 45 41 42 39 37 37 37 39 42
42 43 44 44 42 44 46 49 52 53 55 56 56 57 59 59 58 55 53 51 47 41 41 41 46 51 56 59 56 48 45 45 48 39 42 40 37 37 34 33 32 33 33
41 42 42 42 43 46 48 51 52 54 54 54 56 58 59 56 54 54 50 46 43 43 42 46 53 55 51 44 43 44 44 44 42 40 42 42 35 34 30 28 24 25 28
41 40 40 42 44 47 49 50 52 53 52 54 56 57 55 52 51 48 43 43 42 43 44 44 43 40 39 39 40 40 41 43 43 39 39 43 36 35 30 24 20 22 25
39 38 41 43 45 46 49 51 52 51 53 55 56 53 50 50 45 41 42 45 44 40 37 34 32 33 33 32 34 39 40 42 41 36 32 39 35 36 33 23 16 19 25
38 39 40 43 45 48 49 50 50 53 56 57 54 50 47 42 39 39 42 42 40 37 35 34 31 26 28 30 31 32 35 39 40 39 34 40 39 40 41 27 23 21 24

GFSMA_700_spd_006.txt.gz
Wind_Speed
15 15 16 15 16 16 17 18 19 21 20 20 22 23 24 24 23 21 20 21 21 23 24 25 25 26 27 29 29 31 31 33 33 33 35 36 37 37 37 35 34 35 36
17 17 18 17 18 18 19 21 21 22 21 22 24 24 21 19 19 20 21 22 23 24 25 26 27 27 29 29 30 31 31 32 34 38 39 40 40 39 40 40 39 38 37
19 19 19 19 20 21 21 21 22 23 23 23 20 18 20 21 21 22 23 24 25 25 26 27 27 28 29 29 31 31 32 32 35 37 41 42 42 43 45 45 45 46 46
20 19 20 20 21 21 22 23 25 25 24 20 20 21 21 22 22 24 25 25 25 26 26 27 28 29 30 31 32 33 34 33 33 35 38 41 42 44 47 48 50 51 50
19 19 20 20 21 22 24 26 26 23 20 20 21 22 22 23 25 26 26 26 27 26 28 30 30 31 31 31 32 34 35 35 36 38 39 39 39 41 43 45 46 48 50
17 19 19 20 22 25 26 27 25 23 21 21 21 22 23 25 27 28 28 27 27 28 31 31 33 34 34 35 36 37 38 39 41 44 44 45 47 48 48 48 49 51 53
17 17 18 22 25 26 25 24 24 23 23 23 23 24 26 28 30 30 30 29 30 32 32 35 35 36 38 38 40 42 44 45 46 49 49 50 52 53 54 54 55 56 57
14 17 20 24 25 25 24 24 24 24 25 25 27 29 30 29 30 31 31 33 33 34 35 36 37 38 40 42 44 47 49 50 52 53 54 55 57 58 59 59 59 61 62
15 19 21 23 24 25 25 25 25 25 27 29 32 35 38 40 42 37 33 32 35 36 36 37 39 41 44 46 49 51 52 54 55 56 57 59 61 62 62 62 60 61 63
16 19 21 22 24 26 26 26 27 28 31 33 35 38 40 44 46 49 44 38 37 38 40 41 44 46 49 51 53 54 55 55 55 57 59 60 62 64 64 63 62 61 62
16 19 22 25 27 28 29 29 30 32 34 37 39 41 41 41 42 46 49 44 40 41 45 48 52 54 55 56 57 59 60 60 59 59 59 61 62 63 63 64 66 66 65
17 20 24 28 30 31 32 32 33 35 37 39 42 43 44 44 44 46 50 51 54 53 54 54 55 57 58 59 59 60 60 61 61 61 61 61 62 63 65 66 68 67 68
19 23 27 30 32 34 35 35 36 38 40 41 42 42 43 43 45 47 51 55 59 61 63 65 64 63 62 62 61 60 59 58 58 59 59 60 62 64 65 66 65 66 67
22 25 29 33 35 37 38 38 38 40 42 43 44 44 43 44 46 49 53 58 63 64 67 70 69 69 68 68 66 65 64 60 58 58 58 59 60 61 61 62 63 63 65
24 28 32 36 38 39 41 40 41 43 43 44 45 44 45 47 49 52 54 55 59 69 73 73 72 71 70 68 67 66 65 63 62 60 58 58 58 59 60 61 62 64 65
27 31 35 38 40 42 43 42 43 45 45 44 44 45 47 50 52 53 54 55 56 60 72 71 71 71 70 67 64 61 59 57 55 53 49 50 52 55 57 58 59 60 60
30 34 38 41 43 45 45 45 46 45 44 44 45 47 50 52 53 55 56 57 60 63 69 69 67 65 64 62 60 57 55 53 49 45 48 49 52 53 53 52 51 51 50
34 38 40 43 45 45 45 46 45 44 44 45 48 50 51 53 55 56 59 61 63 64 64 67 65 62 59 55 53 50 48 48 51 52 52 50 46 43 42 40 41 41 41
37 40 42 45 45 45 46 46 45 44 45 48 50 52 54 55 56 58 61 62 62 61 60 59 60 55 52 49 48 49 51 52 51 48 45 41 38 38 38 39 42 43 45
40 42 45 45 45 45 46 45 44 45 47 49 50 52 53 55 58 60 61 60 58 57 54 52 50 52 52 51 52 53 53 47 44 41 38 36 36 33 34 36 39 40 42
42 44 44 45 45 45 44 44 46 48 49 50 51 52 54 57 59 59 57 55 54 51 48 48 49 52 52 48 47 46 46 44 39 37 38 34 34 33 32 32 33 35 37
43 43 44 44 44 43 43 44 47 49 49 51 53 53 55 57 57 56 53 50 46 43 45 47 49 47 45 43 42 43 42 42 42 40 41 35 35 33 31 31 29 30 31
42 42 43 43 42 43 43 45 47 49 51 52 53 54 56 56 55 52 48 44 42 41 40 44 44 40 42 41 40 38 39 41 41 40 43 41 35 33 30 28 27 28 30
40 41 41 41 41 43 44 46 48 50 52 52 53 55 56 54 49 48 45 43 43 41 38 37 35 36 35 34 37 39 41 42 40 39 42 45 38 38 35 29 25 24 26
40 39 40 40 42 42 45 47 49 51 51 52 54 53 53 49 45 44 42 45 43 37 33 32 28 26 29 32 36 39 38 41 43 40 38 45 41 42 38 29 22 21 26
38 37 37 40 42 44 46 48 51 53 54 56 56 52 47 43 42 41 43 43 39 35 32 25 24 25 28 29 30 34 38 40 42 43 39 44 42 43 42 29 20 18 20

GFSMA_700_spd_009.txt.gz
Wind_Speed
15 16 16 16 15 16 17 17 19 19 19 20 21 22 22 20 17 17 18 18 20 21 22 23 23 24 25 26 27 28 28 29 30 32 34 35 36 37 37 37 37 36 36
17 18 18 18 18 18 18 19 19 20 20 21 23 21 18 16 17 18 18 19 20 22 23 24 25 25 25 26 27 27 28 28 30 32 34 35 37 39 39 40 40 40 40
19 19 19 19 20 20 20 20 20 20 21 20 20 17 18 18 18 19 19 20 22 23 24 25 26 26 27 28 29 30 30 29 30 31 33 34 35 38 41 43 44 44 43
21 20 19 20 19 20 20 20 21 21 20 18 19 19 18 18 19 20 22 23 25 26 27 28 29 29 31 31 31 32 33 32 31 32 33 34 34 35 37 40 41 43 45
21 19 19 18 18 19 21 22 21 20 18 19 19 19 19 20 21 23 25 27 28 29 30 31 32 34 34 34 35 35 36 35 35 36 38 39 39 40 41 42 42 43 43
19 17 17 17 17 20 22 22 22 20 19 18 19 19 20 22 23 25 27 28 29 30 31 33 35 35 37 37 37 37 39 39 39 40 43 43 44 45 47 48 49 49 49
16 16 15 16 19 21 21 22 22 21 21 21 19 21 22 23 25 25 27 30 30 31 32 35 37 38 39 40 40 41 42 43 44 45 48 49 50 52 53 55 56 56 56
15 14 14 16 19 20 21 22 23 24 24 23 24 25 25 25 26 27 29 30 32 33 35 36 37 39 40 41 43 45 46 48 50 52 54 56 57 58 60 61 61 62 62
13 13 13 16 18 21 23 25 25 26 26 26 27 28 31 32 33 31 31 31 31 31 33 35 37 39 41 44 46 49 51 53 54 55 57 58 61 62 63 65 66 67 67
11 12 13 16 20 23 26 28 28 28 28 28 28 30 33 36 39 42 40 40 40 37 36 38 39 42 45 48 50 52 54 56 57 58 59 61 62 63 65 66 68 69 70
11 11 14 18 21 25 28 30 30 30 30 30 31 33 35 37 40 43 45 42 40 38 39 42 44 47 50 52 55 57 60 62 63 62 61 60 61 62 63 64 66 68 68
11 13 16 19 23 26 29 31 32 33 33 33 35 37 39 41 42 45 48 47 47 47 46 47 48 50 54 57 59 61 62 64 64 64 65 65 65 64 63 63 63 64 64
13 16 18 21 25 29 32 34 35 36 35 36 38 39 41 42 42 43 45 48 52 53 56 59 59 59 60 61 62 63 63 61 62 62 63 64 65 66 66 66 65 63 59
16 18 21 24 28 31 34 37 38 38 38 39 40 41 42 43 43 45 48 52 55 57 60 64 63 64 65 66 65 66 66 65 64 61 59 59 60 62 63 65 64 62 65
18 20 23 27 31 34 37 39 40 40 41 41 42 43 43 43 44 47 49 51 55 63 65 65 65 65 65 66 65 65 63 61 59 56 55 53 51 52 54 57 60 62 63
20 23 27 31 34 37 40 42 42 42 42 43 44 43 43 45 46 48 50 52 53 56 66 62 64 64 65 64 62 58 54 50 48 46 46 46 46 47 50 53 55 57 58
23 27 30 34 37 40 43 43 44 43 43 43 43 44 45 46 47 49 50 51 53 55 63 65 63 61 60 58 54 50 48 47 46 43 41 40 40 42 42 43 44 47 49
27 30 34 37 40 43 44 45 44 44 44 43 43 44 45 47 48 49 50 51 54 55 59 64 61 57 55 52 48 45 43 42 41 37 36 36 36 37 38 38 39 39 38
30 34 37 40 42 44 45 46 45 44 43 44 45 46 47 49 50 50 51 53 55 57 57 58 57 52 51 47 45 44 43 40 39 37 34 33 34 35 35 36 38 40 41
34 37 39 41 43 44 44 44 45 43 43 43 45 47 49 50 50 52 54 55 56 56 53 50 49 50 48 45 43 43 43 37 35 33 32 33 32 33 33 34 36 38 39
37 39 40 42 43 43 43 43 44 44 44 44 46 48 50 50 51 53 55 54 53 51 48 45 48 48 43 42 42 42 39 35 34 37 33 31 32 35 33 33 34 34 35
37 39 40 42 42 42 42 42 43 44 45 47 49 49 50 50 52 53 52 50 47 44 42 45 48 43 41 41 39 36 39 39 35 34 41 36 36 36 36 34 34 35 35
37 39 41 40 41 41 41 42 43 45 46 48 49 50 52 53 53 52 48 44 43 39 38 42 41 37 39 35 37 37 36 39 39 38 41 42 38 38 37 34 31 32 33
37 38 39 39 39 40 40 42 44 46 48 49 50 51 53 53 50 47 44 42 40 37 36 34 33 31 31 34 36 39 41 44 41 36 36 43 39 38 33 23 22 27 30
35 37 37 38 38 39 41 43 45 47 49 51 52 51 52 49 44 41 41 41 39 34 30 29 26 26 28 31 35 40 40 42 38 32 33 43 39 35 23 17 16 19 20
34 34 35 36 38 40 42 44 47 50 52 54 54 50 44 41 38 37 38 38 36 32 28 21 23 24 27 30 32 34 35 36 38 35 34 41 34 31 23 23 23 22 21

GFSMA_700_spd_012.txt.gz
Wind_Speed
18 19 16 16 15 16 17 19 19 20 21 22 22 23 21 20 17 17 18 18 18 18 19 20 21 22 23 24 25 25 26 26 28 29 30 31 32 35 37 39 39 38 36
20 20 19 18 18 18 18 19 20 21 22 23 23 22 19 16 17 17 17 18 19 19 20 21 22 23 24 25 26 26 27 28 29 30 30 30 31 32 35 37 39 40 40
22 21 19 20 19 19 19 20 20 22 24 23 21 18 16 16 16 17 18 19 21 22 23 24 25 26 28 29 30 30 31 32 31 32 32 33 32 33 34 35 37 39 42
23 22 19 19 19 19 19 19 21 23 23 21 19 17 17 17 18 19 21 22 24 25 26 28 29 30 31 32 34 35 35 36 36 35 35 35 36 37 36 36 36 37 38
23 21 19 18 17 18 18 20 20 20 20 20 18 17 17 18 19 21 22 24 25 27 29 30 32 33 35 36 37 38 38 39 39 39 39 40 41 41 41 41 42 42 43
22 20 18 17 16 17 19 19 19 19 19 20 20 19 19 20 21 23 24 25 27 29 31 33 34 36 37 39 40 40 40 41 41 41 42 43 45 45 45 46 48 48 48
21 19 16 16 14 17 17 18 20 20 21 21 21 22 22 23 23 24 25 28 29 30 33 34 36 38 39 40 40 41 41 41 42 43 44 46 48 50 51 53 54 56 57
19 17 15 14 14 14 16 19 22 23 23 23 23 22 23 24 24 25 27 29 32 33 34 35 37 39 40 41 42 42 43 45 46 47 49 51 53 56 57 59 60 61 63
18 16 14 13 12 14 17 20 22 24 24 24 25 26 28 29 29 28 29 31 33 33 34 33 34 36 39 41 43 45 47 49 50 51 53 55 57 60 62 64 66 67 68
18 16 14 12 12 15 18 20 23 24 25 26 26 26 28 30 33 36 36 38 39 37 34 35 35 37 40 43 45 48 50 53 55 57 59 61 63 65 66 68 69 71 71
18 16 13 12 14 17 19 22 24 27 28 29 28 29 30 33 35 39 40 40 42 42 42 41 41 42 45 48 52 55 57 59 62 64 66 67 67 69 69 69 68 68 70
19 16 13 14 16 19 21 24 27 30 32 33 33 33 34 36 38 42 46 45 45 43 44 44 46 46 49 52 55 57 60 63 65 67 68 69 70 71 71 70 69 67 67
18 16 15 16 18 21 24 28 31 33 35 36 37 37 37 39 41 43 46 46 47 46 49 51 53 55 55 57 58 61 64 64 64 64 64 65 65 67 68 69 69 68 64
18 17 17 18 21 24 28 31 34 37 39 39 40 40 40 42 43 43 44 47 49 50 53 57 57 59 61 63 64 64 65 66 65 63 60 58 56 55 56 59 61 60 55
19 19 19 21 24 27 31 35 37 40 42 42 42 42 43 44 43 44 45 47 51 57 59 60 59 61 62 63 63 63 62 60 57 55 54 52 50 49 48 48 50 53 55
20 20 21 24 28 31 35 38 40 43 44 44 43 44 45 44 44 45 47 49 52 56 62 60 60 60 61 61 61 59 57 55 52 48 45 43 42 42 42 43 43 44 45
22 22 24 27 31 35 38 41 43 45 45 44 46 45 45 45 45 47 49 52 54 56 61 62 60 59 59 58 56 52 52 51 45 39 37 38 38 38 39 39 39 41 42
23 25 27 31 35 38 41 42 45 46 45 45 45 45 45 45 47 49 51 53 54 55 58 63 59 57 55 52 51 51 50 45 40 39 35 32 33 36 40 41 40 40 41
25 27 30 35 38 41 43 44 46 45 45 45 45 44 45 47 49 51 52 53 54 56 56 58 59 53 51 50 50 48 45 42 40 36 32 36 35 34 37 38 40 41 41
27 29 35 38 40 42 43 46 46 46 45 44 43 45 47 49 50 52 52 54 55 56 54 52 51 50 50 48 47 45 45 37 34 35 33 37 35 35 37 38 38 39 40
28 34 37 39 40 42 44 45 46 45 44 43 45 46 49 50 51 52 53 53 53 50 47 45 46 49 48 45 43 42 39 37 32 40 37 36 37 32 34 37 39 40 42
33 35 37 39 40 43 44 44 44 43 43 45 46 48 49 51 52 52 51 48 45 43 41 42 45 48 42 41 39 35 38 37 38 35 41 33 34 32 35 35 35 38 40
34 35 36 39 41 42 42 42 41 42 44 46 48 49 51 52 52 49 46 43 40 39 39 41 42 39 39 34 36 35 35 40 43 38 36 35 31 34 32 26 28 29 29
33 35 37 39 40 40 39 40 41 43 45 47 48 49 50 48 46 44 43 41 40 39 37 36 36 34 30 33 34 37 40 42 39 36 37 38 32 32 19 17 21 23 25
33 35 37 38 38 38 38 40 43 45 46 48 48 45 44 45 44 41 40 40 40 36 33 32 30 28 28 29 33 38 37 40 38 33 28 37 32 31 15 9 11 14 20
33 35 36 36 36 37 39 41 43 45 48 47 46 45 44 42 39 37 38 38 37 33 31 25 26 26 27 29 32 32 33 36 38 34 30 36 33 30 17 8 14 17 19

GFSMA_700_spd_015.txt.gz
Wind_Speed
16 17 18 18 18 19 18 19 20 21 20 21 22 23 23 23 22 20 17 18 16 17 18 18 18 19 21 22 22 22 23 23 23 24 25 26 27 29 31 33 35 36 38
19 19 19 20 20 21 20 20 21 22 22 22 23 23 23 21 19 18 19 17 16 17 18 20 20 22 23 25 25 25 26 27 27 28 30 30 30 31 31 33 34 34 36
21 20 21 21 20 21 21 21 21 22 23 23 23 21 19 19 17 18 18 17 17 19 20 22 23 24 26 27 28 29 30 30 32 32 33 34 35 35 35 34 34 35 35
24 22 22 22 22 21 20 20 21 22 23 22 20 19 18 18 17 18 18 19 20 22 22 24 26 27 29 31 33 33 34 35 36 36 37 37 38 39 40 39 37 37 37
26 25 23 22 21 20 19 19 20 22 21 20 19 19 19 19 19 20 20 22 23 25 26 27 29 31 32 34 36 36 37 38 38 39 40 40 40 41 42 42 41 41 41
27 26 24 22 20 19 18 18 19 19 20 21 21 21 21 21 22 23 24 25 26 28 29 30 32 34 35 36 38 38 39 39 39 39 40 40 41 42 43 44 44 44 45
28 26 24 21 19 17 17 16 17 18 20 22 23 24 24 24 25 25 26 27 29 30 31 33 35 37 39 39 39 39 40 40 40 41 41 42 43 44 46 47 48 49 50
29 26 22 19 18 16 15 15 16 17 19 22 23 24 24 27 24 26 28 29 30 32 35 36 38 40 41 41 41 41 41 42 43 44 45 47 48 49 51 53 54 56 57
29 24 20 18 17 15 13 14 15 18 21 22 24 26 27 27 27 28 29 30 32 34 36 38 38 39 40 40 41 41 43 43 45 47 49 51 53 55 56 58 60 62 64
27 23 20 19 17 14 14 14 16 19 22 25 26 27 28 30 32 32 33 34 36 37 38 38 36 36 37 39 41 43 45 46 49 51 53 55 58 59 62 64 66 68 69
21 27 22 20 17 15 15 16 19 21 24 27 29 31 32 33 35 36 35 36 40 41 44 45 44 42 42 44 47 50 52 54 55 56 58 61 63 65 67 68 70 71 71
31 24 22 20 17 16 17 19 22 25 27 30 32 34 35 36 37 39 42 42 43 42 44 44 43 45 46 49 51 53 54 57 60 63 65 67 69 70 71 71 72 71 70
28 25 22 20 18 18 19 22 25 28 31 34 37 39 39 39 39 41 45 46 46 43 44 43 47 50 52 54 55 57 60 62 65 67 66 67 67 67 66 66 64 64 63
24 25 24 21 20 20 22 25 29 32 35 38 40 42 42 41 42 44 45 47 48 46 46 49 50 53 54 57 59 62 64 66 66 64 62 60 60 58 57 56 55 56 57
26 26 23 22 21 22 25 29 32 36 39 41 43 45 44 44 44 44 44 45 48 52 53 52 54 56 58 60 61 63 64 64 61 56 54 53 51 50 49 48 45 44 44
27 25 23 22 23 25 28 32 36 39 42 44 46 47 45 46 45 45 45 46 48 52 58 56 57 58 59 61 61 62 61 57 53 49 48 47 46 44 45 44 43 40 40
26 25 24 25 26 28 32 35 40 43 44 45 48 47 46 46 45 45 46 48 51 53 58 58 58 59 59 59 59 56 51 49 49 45 42 40 41 41 40 38 40 42 41
27 25 26 27 28 32 34 39 43 45 45 47 47 47 46 46 45 47 49 51 53 55 58 61 60 60 58 54 52 49 48 48 45 40 40 35 32 35 38 40 41 42 42
26 27 27 29 32 33 38 42 44 44 46 47 46 46 45 46 47 49 51 53 54 56 58 60 60 56 51 48 49 48 47 44 40 37 32 31 34 34 38 40 40 41 41
27 27 27 32 35 39 41 43 43 44 45 45 45 45 45 47 49 50 52 54 55 55 55 54 53 50 47 47 46 47 44 41 33 33 31 33 39 36 34 32 33 36 40
26 27 30 34 39 42 41 42 44 44 45 45 44 45 47 49 50 51 52 52 52 52 51 48 46 47 47 45 44 43 42 37 31 34 41 34 39 32 30 29 33 36 36
27 28 33 36 42 40 40 42 43 43 43 44 44 45 47 49 51 51 51 50 48 47 44 43 45 46 44 41 41 39 38 39 38 31 44 32 35 29 27 30 31 31 25
27 31 35 40 38 39 40 41 41 42 42 44 45 47 48 48 48 48 48 46 43 41 40 41 43 42 41 37 37 37 36 38 40 37 39 34 30 26 28 27 26 24 22
30 34 36 35 37 39 39 40 40 41 42 45 47 48 47 46 45 45 44 43 42 40 38 38 38 37 35 33 35 36 38 41 37 34 36 40 31 29 27 19 21 19 19
32 32 33 35 37 38 37 39 40 42 44 46 46 45 45 44 43 42 42 41 39 37 34 32 31 32 32 30 32 36 35 38 38 32 32 39 35 32 31 17 18 19 21
29 32 33 35 35 36 37 38 41 43 45 46 44 43 42 43 43 40 39 38 36 33 31 28 27 27 29 30 32 32 32 34 38 36 32 39 38 39 37 19 13 20 24

GFSMA_700_spd_018.txt.gz
Wind_Speed
17 17 14 15 16 19 20 20 21 21 20 21 21 21 21 22 23 21 17 17 16 16 15 15 15 16 17 17 18 20 20 20 21 23 24 24 24 25 26 27 28 30 32
22 19 18 17 16 18 21 22 22 22 22 22 22 23 22 22 22 21 17 17 17 16 15 16 17 18 19 20 21 22 23 24 24 26 27 28 29 29 29 30 30 31 32
25 20 20 20 18 20 21 22 23 22 23 22 23 22 21 21 19 20 18 16 17 17 18 18 19 20 21 22 24 25 26 27 28 30 30 31 32 32 33 33 34 34 35
21 22 22 22 21 21 20 22 22 22 22 22 21 21 19 19 19 19 19 19 19 18 20 21 22 23 25 26 27 29 30 31 32 33 34 35 35 35 36 37 38 37 38
23 23 23 23 23 22 21 21 21 21 21 20 20 19 20 20 20 21 21 22 22 23 24 24 25 27 28 29 31 33 34 35 35 36 37 37 37 37 38 38 40 40 39
26 26 26 25 26 23 21 20 20 20 19 19 19 19 20 21 22 23 24 26 25 25 27 28 29 31 31 32 34 35 37 38 38 38 38 38 38 38 38 39 40 42 42
30 30 28 26 27 23 21 20 18 17 17 17 18 20 19 21 22 23 25 27 29 29 29 30 32 34 35 36 38 39 39 39 38 39 39 40 40 41 41 42 43 44 46
32 31 29 27 25 23 21 18 17 15 15 16 17 19 21 22 22 23 26 28 29 31 32 34 34 36 38 39 40 41 41 40 40 41 42 43 44 45 46 48 49 50 51
30 30 29 27 24 22 20 18 16 14 14 17 19 21 25 26 27 27 28 29 31 32 33 35 36 38 40 40 40 40 40 41 40 43 45 46 48 49 51 52 54 55 56
29 30 28 25 21 21 20 18 16 15 16 18 20 24 26 29 31 30 31 32 33 34 36 37 37 38 39 39 38 38 40 42 43 46 48 49 51 53 54 56 58 60 62
29 31 28 24 23 21 20 18 17 17 19 21 24 27 30 32 35 36 34 33 34 36 39 40 41 41 41 40 40 40 43 45 46 48 50 52 55 57 59 61 64 65 67
31 31 28 25 23 22 21 19 18 19 21 24 27 31 34 36 39 42 42 39 40 38 41 40 41 41 42 44 46 49 51 53 54 56 58 60 63 65 67 68 69 69 70
33 30 25 31 25 24 22 21 21 22 24 27 31 34 37 39 41 44 44 44 44 42 41 38 40 43 46 49 51 52 55 56 59 61 62 64 66 67 67 66 64 63 61
33 27 27 27 26 25 24 23 23 25 27 30 34 38 40 42 43 45 45 47 49 46 42 41 41 44 48 51 53 55 58 61 62 63 63 63 62 60 59 59 58 56 54
31 24 29 29 27 26 25 25 25 27 31 34 39 42 43 44 46 45 45 46 48 50 48 45 48 49 51 53 55 58 61 62 61 60 57 55 54 55 54 52 51 49 45
27 29 26 28 28 27 26 26 28 30 34 39 42 44 45 46 46 46 46 44 44 48 55 52 53 54 55 56 56 59 61 59 55 51 50 49 48 46 45 44 43 41 38
30 27 27 28 28 27 27 28 31 34 38 43 46 46 46 47 46 45 43 44 45 48 54 54 55 57 58 58 58 58 55 51 48 46 45 43 40 40 39 37 37 35 35
26 28 29 29 27 27 29 30 33 37 43 46 47 47 47 47 46 44 44 46 48 50 54 57 56 57 57 55 54 52 48 47 46 41 39 36 33 34 33 36 37 38 38
28 29 29 28 27 28 30 32 37 42 47 46 47 47 47 46 44 44 46 48 50 51 52 55 57 55 52 50 48 46 46 43 40 36 34 29 33 32 36 38 38 37 37
28 28 27 27 27 29 33 37 40 45 45 46 46 46 45 44 45 47 49 49 50 50 51 53 52 50 47 44 43 44 41 39 35 29 32 29 36 36 36 36 34 34 35
24 25 26 25 28 34 36 39 43 43 44 45 45 43 43 45 47 49 50 50 51 52 51 50 47 45 42 40 39 40 38 36 29 30 35 31 38 33 31 30 29 31 34
23 24 25 33 32 35 38 41 41 42 43 43 41 42 44 46 47 47 47 48 49 49 48 45 43 42 39 37 37 36 36 39 38 29 38 35 34 31 29 26 26 31 33
21 29 30 31 34 37 39 38 39 41 40 41 42 44 45 46 46 46 48 48 46 42 40 40 40 37 37 34 36 37 34 35 37 36 41 40 32 30 27 24 24 30 31
26 24 29 33 36 36 35 37 38 38 39 41 43 45 46 46 46 47 48 46 41 37 35 34 33 33 33 34 35 38 38 40 36 32 35 43 31 29 27 24 22 25 26
23 28 31 31 32 33 33 35 36 39 41 42 43 44 45 46 47 46 45 42 37 33 31 29 28 30 31 32 34 38 36 37 36 31 30 41 36 34 29 25 20 19 22
25 26 27 29 31 32 33 35 38 40 42 44 43 43 43 44 43 41 40 39 35 31 28 26 25 26 29 30 30 31 32 37 38 39 31 41 40 41 35 28 22 21 21

GFSMA_700_spd_021.txt.gz
Wind_Speed
14 18 15 16 15 13 14 16 17 19 20 20 20 20 21 23 20 18 16 16 16 16 16 15 15 15 15 15 15 16 16 17 18 19 20 21 21 22 23 24 25 26 26
18 18 17 21 20 18 17 17 17 18 20 21 21 21 21 22 20 18 16 16 16 17 17 17 17 17 17 17 18 18 18 19 20 21 23 24 25 25 26 27 28 29 29
18 21 22 21 20 19 20 20 20 19 20 21 21 21 21 20 20 18 16 15 17 17 18 19 19 20 20 20 21 22 22 23 24 25 26 27 28 29 30 30 31 31 32
20 22 23 20 22 21 22 23 22 21 20 20 20 20 19 19 20 18 17 17 17 18 20 21 22 22 23 24 25 26 27 28 29 29 30 31 31 32 32 33 34 35 35
21 23 23 22 23 23 23 24 23 22 20 19 18 18 18 18 19 19 19 19 21 21 21 22 24 26 26 28 29 30 32 33 33 34 35 35 35 35 36 36 36 37 38
26 26 25 24 25 26 26 25 24 22 19 18 16 16 16 17 18 19 19 19 21 22 24 24 27 28 30 31 33 34 35 36 37 38 38 39 38 38 38 39 39 40 40
29 29 29 28 25 27 27 25 24 21 18 17 15 14 15 16 18 20 21 22 23 25 25 27 28 30 31 34 35 36 37 38 38 38 39 40 40 40 41 41 40 41 42
29 30 29 28 26 26 25 24 23 20 18 16 14 14 15 16 18 20 23 24 26 27 28 29 30 31 33 36 37 38 39 40 40 39 40 40 41 42 43 44 45 46 47
31 28 27 26 26 24 24 24 22 20 18 16 15 16 18 20 22 23 25 27 29 30 31 32 33 34 36 37 38 39 40 39 39 40 42 43 44 46 48 49 50 52 53
30 29 27 27 28 26 23 23 22 21 19 18 18 19 20 23 25 28 29 31 31 33 34 34 36 38 39 40 39 38 38 39 40 41 44 46 48 50 51 53 54 56 57
31 30 28 29 29 28 22 23 23 21 20 20 20 22 24 27 29 31 31 32 33 35 36 36 38 40 41 41 40 39 39 40 42 44 46 48 51 53 54 57 59 60 62
34 31 30 30 27 27 24 24 24 23 22 22 23 24 27 30 34 37 38 38 39 37 37 38 39 40 40 40 42 44 46 48 50 52 53 55 57 59 61 64 65 67 68
35 32 30 31 26 29 26 25 26 25 23 24 25 27 30 34 37 41 43 43 45 42 40 38 38 39 41 43 45 47 50 52 54 56 56 59 62 65 66 68 67 67 66
33 30 29 32 29 25 31 28 28 26 25 26 28 30 33 38 41 44 45 48 49 47 43 39 37 39 43 45 48 50 53 55 57 58 59 62 63 63 62 62 61 59 57
33 32 30 30 27 30 34 31 28 27 28 29 30 33 36 41 45 46 47 49 51 53 50 40 43 43 46 49 50 51 54 56 58 57 57 58 56 56 55 55 55 54 53
34 29 31 30 29 31 34 31 28 29 30 31 33 35 40 45 47 47 49 49 49 49 52 49 48 49 50 50 52 55 57 57 56 53 52 51 50 50 49 50 50 47 45
31 30 29 27 30 32 32 31 30 31 31 33 36 41 45 48 47 48 48 48 46 47 51 52 52 52 52 54 55 56 54 54 52 48 46 44 43 43 43 41 40 37 36
30 26 33 36 30 32 31 30 30 30 32 35 42 46 49 49 48 48 47 45 46 48 51 54 53 54 54 55 57 55 51 48 46 42 39 36 36 38 35 34 35 37 37
30 32 32 31 29 30 29 30 31 32 36 43 46 48 49 48 48 47 46 46 47 48 49 52 55 54 55 52 51 48 46 44 39 34 33 31 30 33 32 35 38 39 39
28 26 31 28 29 28 29 30 31 36 42 45 47 50 46 47 46 46 47 48 49 49 50 53 55 55 52 47 45 46 41 37 32 27 30 32 31 33 34 36 37 37 38
30 26 25 27 27 27 28 31 38 42 44 46 47 45 45 44 45 47 48 49 50 51 51 53 54 51 46 43 41 39 37 35 32 28 31 34 32 34 32 33 34 34 34
25 29 21 26 25 25 33 39 38 42 46 43 42 42 41 43 44 45 46 48 49 48 50 51 49 46 41 38 36 36 37 36 36 28 32 35 30 33 31 32 31 32 31
25 22 20 20 27 32 37 36 41 43 40 40 40 41 41 43 44 45 47 48 46 44 44 45 43 39 38 35 36 37 36 37 35 31 35 38 32 34 31 30 29 28 29
9 15 19 23 28 30 35 39 37 37 37 38 40 41 43 44 46 47 48 48 45 42 39 37 34 34 34 34 35 38 37 39 36 31 33 42 37 36 32 28 26 25 24
12 14 19 25 30 32 32 33 34 35 37 38 39 41 44 46 46 46 47 45 41 35 32 29 28 29 31 32 33 36 34 37 37 34 28 39 38 39 37 28 26 22 23
14 19 22 26 28 30 30 30 32 34 37 38 41 42 43 44 44 43 43 41 36 31 27 24 23 25 28 28 28 31 34 37 39 41 30 38 39 40 45 33 29 25 24

GFSMA_700_spd_024.txt.gz
Wind_Speed
18 16 14 13 16 16 16 16 16 17 17 17 18 19 18 18 18 17 16 16 16 14 14 14 14 15 15 16 17 17 17 17 18 18 19 19 19 20 21 22 23 23 24
19 19 16 16 18 18 17 19 19 19 19 19 19 20 19 17 17 17 16 16 16 15 14 14 15 16 17 18 19 20 19 20 20 21 22 22 23 24 24 25 26 27 27
23 19 18 18 19 19 20 20 20 20 20 20 20 20 20 18 16 16 17 17 17 17 17 17 17 18 20 20 21 23 23 24 24 25 26 26 26 27 28 29 29 30 31
25 20 20 19 20 21 21 21 22 22 23 22 21 20 19 18 17 15 15 16 17 18 19 19 21 22 23 24 25 27 28 28 29 29 30 30 31 31 32 32 33 33 34
22 19 20 21 22 23 22 22 24 25 24 23 21 19 18 16 15 14 14 15 16 17 18 20 22 24 26 28 29 30 31 32 33 34 35 35 35 35 36 36 36 36 37
23 23 24 26 26 25 24 25 26 26 24 23 20 19 17 16 15 14 15 16 17 19 20 22 24 26 28 30 31 32 34 35 36 36 37 38 39 39 38 39 39 39 40
25 23 25 27 27 26 25 26 26 24 24 22 20 18 16 16 15 16 16 18 19 21 23 25 27 28 30 32 33 34 35 36 37 38 39 40 41 41 41 41 41 41 42
25 25 26 27 28 26 25 26 25 24 23 22 20 19 18 17 18 18 20 21 24 25 26 28 30 32 33 34 36 37 38 39 39 40 41 41 42 43 43 44 44 44 45
27 25 27 28 28 27 26 25 23 24 23 22 21 20 19 19 20 21 23 25 27 29 30 31 34 35 37 37 38 39 40 40 41 41 41 42 43 43 45 46 47 48 50
29 26 29 28 27 27 28 24 22 24 24 23 22 22 21 21 22 24 26 28 30 32 33 35 37 39 40 40 41 41 41 41 40 41 42 43 45 47 49 50 51 52 55
35 30 31 28 30 28 30 27 21 23 25 24 24 23 23 24 25 26 28 31 33 35 37 38 40 42 43 43 43 42 41 41 41 43 44 46 49 51 53 54 56 58 59
38 33 31 31 33 31 30 25 29 23 27 26 26 25 26 27 29 30 32 34 36 36 37 39 41 43 44 44 43 43 43 44 45 47 48 50 52 54 56 58 59 61 63
40 35 31 32 34 32 32 28 30 25 27 29 28 28 29 31 32 33 36 39 43 43 42 41 42 44 45 44 43 45 47 48 50 51 53 55 57 59 61 64 66 68 69
39 34 32 34 34 33 34 28 28 26 31 30 31 31 32 32 34 37 39 44 48 49 46 44 43 43 43 44 45 48 50 52 53 54 56 58 60 63 65 67 66 67 66
39 35 35 36 35 33 27 33 28 32 32 31 33 34 33 35 37 40 45 49 52 54 53 47 44 42 44 46 48 51 52 53 55 56 58 60 61 61 62 63 60 58 57
38 35 36 35 36 33 37 33 34 27 37 32 36 34 35 37 40 45 49 52 53 54 56 53 48 48 48 49 51 53 55 57 59 61 59 59 57 57 56 53 51 49 47
36 34 35 36 34 33 32 35 40 31 35 32 37 36 37 39 43 50 52 53 51 52 54 53 53 52 53 52 52 53 56 58 58 55 54 52 51 50 48 46 45 45 43
35 35 37 35 34 34 31 33 31 28 36 34 37 37 40 44 49 52 54 51 50 50 51 54 55 54 53 53 56 57 56 54 53 49 47 45 44 44 43 42 40 41 41
35 34 37 31 32 38 37 33 29 31 34 35 38 39 45 49 51 54 52 50 49 50 51 54 56 55 56 55 56 54 54 49 45 42 38 38 38 39 39 40 41 43 42
32 36 36 40 39 36 27 27 31 33 34 36 39 46 48 49 53 50 50 49 50 51 52 53 56 58 57 53 52 52 48 42 40 35 33 37 35 37 37 38 41 42 44
38 35 34 33 33 31 32 26 26 29 34 39 46 48 48 49 47 48 49 50 52 52 53 55 56 56 54 50 47 43 42 39 36 33 32 35 33 34 32 35 37 38 40
40 35 42 35 30 29 30 26 25 32 40 44 43 47 44 45 46 47 48 50 51 53 53 53 53 52 47 43 40 40 40 40 38 30 31 32 30 33 33 36 35 35 37
41 37 36 30 25 25 23 24 31 34 38 41 41 41 42 44 46 47 49 50 51 48 47 48 48 44 42 40 39 39 38 37 35 30 33 38 35 37 35 34 33 33 33
30 30 22 15 14 18 22 25 30 36 36 38 39 40 42 44 46 48 50 50 49 46 45 44 41 38 37 36 37 38 37 38 34 33 33 43 39 39 37 35 31 30 30
13 10 9 11 16 20 25 29 31 33 34 36 38 41 43 45 47 47 49 50 47 42 40 36 33 32 34 34 35 37 34 37 37 37 33 39 37 39 39 36 29 27 27
7 8 11 15 18 22 25 27 29 31 34 36 39 40 43 45 46 47 47 46 42 38 33 28 26 27 30 30 31 33 35 38 40 39 32 39 40 42 45 40 35 31 29

GFSMA_700_spd_027.txt.gz
Wind_Speed
18 16 16 15 14 14 13 14 15 15 16 18 18 18 18 18 17 17 16 16 15 15 15 15 15 16 15 15 16 16 17 17 18 18 18 18 19 20 21 22 22 22 22
21 21 18 17 17 17 16 16 17 17 18 19 20 20 20 19 17 17 17 17 16 15 15 15 16 18 18 19 19 19 20 20 21 21 22 22 22 23 24 25 25 26 26
24 23 20 20 20 19 18 18 18 19 19 20 21 21 20 19 18 17 17 16 16 16 17 17 18 20 21 22 22 23 23 24 25 25 26 26 27 28 28 29 29 29 29
25 23 22 22 21 19 20 19 20 20 21 22 23 22 20 19 18 16 15 15 15 15 16 17 18 20 22 24 26 27 28 28 29 30 31 31 31 32 32 33 33 34 33
23 22 22 21 19 20 22 22 22 22 23 24 24 22 20 18 16 15 15 14 14 15 16 18 19 22 23 25 26 28 30 30 31 31 33 34 35 35 36 36 37 37 37
23 22 23 22 21 24 25 25 24 24 24 24 23 22 20 19 16 15 15 15 15 17 18 20 22 24 26 27 29 30 32 34 34 34 34 35 36 37 37 37 38 39 39
26 26 26 24 25 26 26 26 25 24 24 23 23 22 21 19 18 16 16 16 17 19 21 23 25 27 28 29 30 32 34 35 37 38 38 38 39 39 39 40 40 40 41
29 27 26 23 24 25 26 26 25 24 24 23 22 22 21 21 19 18 18 19 20 22 24 26 29 30 32 33 34 35 36 38 39 40 40 41 41 42 42 42 42 42 42
32 29 28 26 25 25 26 26 24 25 24 24 23 23 23 22 21 20 21 22 23 24 27 30 32 34 35 36 38 39 40 40 41 41 42 42 42 43 44 44 44 46 46
34 32 30 29 27 27 26 26 26 25 25 23 24 24 24 24 24 24 24 25 26 27 29 32 36 38 40 41 42 43 43 43 42 42 42 42 43 44 46 46 47 48 50
36 33 33 32 30 31 30 30 29 28 24 22 25 26 27 27 27 27 27 27 28 29 32 35 39 42 44 45 46 46 46 45 44 43 43 44 45 47 49 51 52 53 54
39 36 33 32 33 32 31 32 34 31 28 25 23 28 29 30 30 30 30 30 30 31 34 38 42 45 46 47 48 49 48 46 46 46 47 49 50 51 53 54 55 57 59
41 38 36 34 34 35 32 28 35 33 29 33 27 31 32 32 33 33 33 34 35 35 36 40 44 47 48 49 49 49 48 48 49 50 51 52 53 54 56 58 59 62 63
41 41 36 34 35 35 35 30 39 36 30 34 30 35 35 35 33 35 36 37 39 41 42 44 47 49 49 49 49 48 50 51 52 53 54 54 56 58 60 62 64 66 67
43 40 39 36 37 38 37 35 38 38 33 34 34 38 38 36 34 35 38 40 42 47 51 50 51 48 48 47 48 50 52 54 55 56 57 59 60 62 63 62 62 62 62
39 39 41 39 39 40 39 39 38 44 41 38 38 34 43 35 35 36 40 42 45 52 57 57 55 51 50 48 50 53 54 56 58 60 61 62 62 62 61 59 57 54 51
43 43 41 38 39 40 41 40 42 36 41 34 31 35 34 35 37 38 41 45 51 56 57 58 54 52 53 53 53 54 56 58 60 60 60 60 59 56 53 51 48 46 44
42 41 39 39 40 41 38 40 45 39 38 40 41 38 32 41 37 40 45 51 54 55 57 55 54 54 55 55 57 59 59 59 60 57 54 51 49 47 45 44 44 43 44
39 39 38 40 37 38 40 41 50 41 38 33 35 33 34 35 39 44 51 54 54 52 52 53 55 56 57 56 59 59 60 58 55 48 42 42 41 41 42 43 44 44 44
36 39 38 36 42 42 42 44 46 37 41 34 30 31 33 37 44 49 51 51 49 50 51 53 55 58 59 58 59 60 58 49 45 38 36 38 38 38 38 40 42 43 43
33 33 36 35 41 41 42 49 38 35 39 35 29 30 36 43 45 48 46 46 48 50 52 54 57 59 58 57 54 52 49 44 38 36 35 35 35 35 33 35 39 40 41
35 34 36 33 39 49 40 45 43 37 36 28 29 35 39 42 43 44 45 47 50 52 53 56 58 57 54 50 47 44 42 41 41 35 33 31 32 34 35 37 37 37 39
34 32 36 40 44 34 41 35 32 26 23 27 33 37 38 39 41 43 45 48 50 50 52 55 53 49 48 43 42 40 40 39 37 34 36 37 38 38 36 34 31 34 36
30 26 32 36 31 29 22 19 18 21 26 30 33 35 36 39 41 44 47 50 52 51 50 48 44 42 39 36 37 39 38 39 38 36 36 41 39 38 36 35 33 33 31
27 21 17 13 11 10 14 18 21 25 28 30 33 36 38 40 42 46 50 52 50 46 44 39 36 33 32 34 35 38 38 40 40 38 37 43 38 40 41 39 36 32 29
14 10 7 7 10 14 18 21 24 25 28 30 34 37 39 43 46 48 49 49 47 43 36 29 25 25 29 30 33 37 39 41 42 42 37 45 42 45 47 42 40 35 34

GFSMA_700_spd_030.txt.gz
Wind_Speed
17 19 18 16 15 14 15 14 14 13 13 14 14 15 16 17 16 16 16 15 15 15 14 13 13 13 14 14 14 16 16 16 17 17 17 17 18 18 19 20 20 20 21
20 21 21 20 19 17 18 17 16 16 15 16 16 17 18 19 18 17 15 15 14 14 14 14 14 15 15 15 16 17 18 19 19 20 21 21 21 22 22 24 24 24 24
22 23 24 23 22 22 21 20 18 18 18 17 18 19 20 20 19 17 16 14 13 13 13 14 15 15 16 17 18 18 19 21 22 24 24 25 26 27 27 27 28 28 29
24 24 24 24 25 24 23 22 19 19 20 20 20 21 20 19 18 17 16 14 14 13 13 13 14 16 17 18 19 20 21 21 23 24 26 27 28 29 30 31 32 32 32
24 24 24 25 25 24 23 21 20 21 22 23 23 22 20 18 17 16 16 15 14 13 14 15 17 18 19 21 23 24 25 26 26 27 28 29 30 31 32 32 32 32 33
25 23 24 25 24 23 23 22 23 24 24 24 24 23 21 19 17 17 16 15 15 14 15 17 19 20 23 24 26 28 29 30 31 32 32 33 33 34 34 34 34 34 35
29 26 25 25 25 25 25 26 24 24 25 24 24 23 21 20 19 18 18 17 17 17 18 19 20 22 23 25 27 29 31 33 34 36 37 38 37 37 37 37 37 37 37
30 30 27 28 29 28 28 26 26 26 24 24 23 23 22 21 21 20 20 20 20 20 21 21 22 24 26 27 29 31 33 35 36 38 39 39 39 39 39 39 38 38 38
31 34 32 30 31 30 28 28 26 25 24 24 23 23 24 23 22 22 22 22 23 24 24 24 25 26 28 30 33 35 36 37 39 40 40 40 41 40 40 40 40 41 41
39 37 35 33 33 32 29 28 28 25 25 24 25 25 25 25 25 25 25 26 26 26 27 27 28 30 32 35 38 41 42 42 43 43 42 42 41 41 42 43 44 44 46
40 39 36 34 32 33 30 29 31 27 28 26 26 24 25 26 27 28 28 28 29 29 29 30 32 34 36 39 43 45 46 46 46 46 45 44 43 44 45 46 48 49 49
44 40 38 36 34 34 32 32 31 28 27 32 33 28 24 25 27 30 31 31 30 30 31 33 35 37 39 43 47 48 48 48 48 47 46 46 47 48 49 50 51 52 53
46 45 42 38 36 35 32 32 32 31 30 32 31 31 28 27 29 33 34 34 33 33 32 34 37 39 44 49 50 52 50 49 48 47 47 48 50 51 52 54 55 56 58
44 44 46 41 37 36 36 34 34 35 32 37 42 32 34 30 29 33 40 37 36 37 35 35 38 42 48 50 52 53 51 50 49 50 50 51 52 53 55 57 58 60 62
43 42 41 43 40 40 37 36 35 37 38 39 37 41 36 35 31 35 43 38 37 41 41 36 41 45 51 51 51 51 51 51 52 52 52 54 56 58 60 61 62 63 63
44 43 44 41 43 42 38 38 38 38 39 42 42 42 35 42 40 38 37 39 37 40 44 44 45 50 51 50 48 49 51 53 53 54 56 58 61 63 63 63 62 60 57
35 39 40 40 39 43 40 38 39 39 42 46 47 47 44 43 35 40 39 36 38 42 44 47 52 51 50 48 48 50 52 54 56 56 57 59 61 61 59 56 54 51 48
35 38 40 39 39 41 41 41 39 40 44 46 44 50 51 39 44 40 41 38 37 42 47 50 49 49 48 48 51 53 55 56 58 57 55 55 54 51 49 46 46 44 44
34 37 42 42 41 39 41 41 41 45 39 46 46 53 43 38 41 40 39 37 39 45 47 48 47 48 49 50 53 55 58 57 55 51 47 45 43 42 41 41 41 41 42
33 35 39 40 38 37 41 39 39 45 53 41 53 46 46 41 38 39 35 38 43 45 44 45 47 49 51 53 55 57 59 54 49 41 37 38 37 37 37 37 38 39 40
30 32 33 33 37 37 37 40 45 39 40 48 44 41 38 38 33 32 38 40 41 41 43 45 48 50 53 53 54 55 52 47 38 34 35 33 33 33 32 35 37 38 40
27 27 28 30 27 34 32 38 37 38 48 45 40 34 31 28 31 35 37 38 40 42 44 48 50 51 52 53 52 48 44 40 38 31 33 33 34 33 35 36 37 37 35
21 23 27 25 34 32 33 38 35 34 31 33 29 26 28 32 33 35 37 39 41 43 47 49 51 51 52 48 45 40 37 37 35 33 35 37 36 36 34 33 33 33 35
16 23 20 26 26 29 30 26 22 25 22 23 22 28 31 31 33 36 39 41 43 44 46 48 48 47 44 39 37 36 34 34 36 34 36 42 35 37 35 34 33 33 33
32 20 13 17 18 18 14 12 13 16 19 22 25 29 32 33 35 38 42 45 46 45 46 45 43 39 34 31 32 32 32 36 37 34 34 42 36 39 38 34 32 31 30
6 6 8 7 8 6 8 12 16 18 21 24 29 32 34 35 38 42 45 47 47 47 44 38 32 27 26 27 28 31 34 37 39 39 35 43 37 41 44 33 32 31 29

GFSMA_700_spd_033.txt.gz
Wind_Speed
20 18 17 18 18 17 17 16 16 15 14 12 12 12 13 15 16 15 15 14 13 12 11 10 9 9 9 10 10 11 12 12 13 14 14 15 16 16 17 17 17 18 18
24 23 21 21 22 21 21 20 19 18 17 15 14 14 15 17 18 17 16 14 12 11 10 10 10 10 9 9 10 11 12 13 15 16 17 18 19 20 21 21 22 22 22
25 25 25 25 25 24 23 22 22 20 19 18 16 16 18 19 19 18 16 14 13 11 10 9 8 8 9 10 10 11 13 14 15 17 18 19 21 22 24 25 26 26 27
27 27 27 27 27 26 25 24 24 22 21 20 19 19 20 20 20 18 16 15 13 12 11 10 10 10 11 12 14 15 16 16 17 18 19 20 22 23 24 25 27 28 29
27 28 29 29 28 27 26 27 25 24 23 21 21 22 21 21 20 19 18 16 15 14 13 12 12 13 13 15 16 18 19 20 20 21 22 23 25 26 26 27 28 29 30
31 30 30 29 26 26 27 26 25 25 24 24 23 23 22 22 21 20 19 18 17 16 15 15 15 15 16 17 19 20 21 23 24 25 26 27 28 29 30 30 30 31 31
31 33 31 30 27 26 26 26 26 27 27 25 24 24 23 23 22 21 20 20 19 19 18 18 18 18 18 19 21 23 24 25 26 28 29 31 32 32 33 33 33 33 33
32 34 34 33 31 28 27 28 30 30 28 26 25 25 24 23 23 23 22 22 22 22 22 21 21 21 21 22 23 24 26 28 31 33 34 35 35 36 35 35 35 35 35
35 35 35 37 34 34 30 31 33 32 29 27 27 26 25 25 24 24 24 24 25 26 26 25 24 24 25 26 27 28 29 31 34 37 38 38 39 39 38 37 37 37 38
40 39 38 37 36 37 36 32 32 33 32 29 29 28 27 26 26 26 26 26 27 29 29 28 28 28 29 30 31 32 33 36 39 41 40 40 41 41 40 40 39 39 40
50 46 42 41 41 40 37 35 34 33 31 29 29 28 29 26 25 26 26 28 30 31 32 31 31 31 33 34 35 35 37 40 44 43 43 42 42 43 43 43 43 44 44
50 52 48 46 43 41 37 35 32 34 35 34 32 30 30 33 30 25 26 29 32 33 34 35 35 35 36 37 38 38 41 44 47 46 45 44 43 43 44 45 46 48 49
41 43 45 47 45 43 40 37 35 35 35 34 32 31 32 35 35 33 30 27 34 35 38 38 37 37 38 40 41 42 44 48 48 47 45 44 44 45 47 47 48 50 52
45 44 39 44 46 45 42 38 37 36 36 35 36 36 35 39 37 41 37 33 37 38 40 41 45 39 39 41 44 46 48 50 48 47 45 46 47 49 49 50 52 54 55
39 43 44 40 41 44 46 43 40 39 36 37 37 38 37 40 40 44 43 41 39 41 41 44 41 41 41 42 45 50 52 50 48 47 48 49 50 52 53 55 57 58 60
32 35 39 42 41 39 39 43 45 43 40 37 39 41 40 48 49 45 42 50 44 45 43 43 39 40 44 44 47 51 49 49 49 49 51 52 54 55 57 59 60 60 58
35 38 36 39 41 42 40 39 44 45 45 39 38 43 47 50 52 49 43 51 42 46 46 46 42 42 40 45 48 48 47 49 49 49 52 54 56 57 58 55 52 49 46
33 38 40 39 40 41 40 40 41 43 42 36 40 44 52 47 55 47 45 50 49 48 47 43 41 40 43 44 46 46 47 48 50 50 52 53 53 52 48 44 41 40 41
31 33 38 40 40 40 38 38 39 37 37 40 43 49 54 51 55 41 45 52 51 45 42 38 41 41 42 43 45 46 48 48 49 48 49 48 44 39 38 38 38 38 38
29 27 31 36 39 40 39 39 38 37 39 43 44 46 53 49 48 40 46 46 43 39 38 40 38 43 44 44 46 48 49 48 45 40 40 37 34 34 33 35 38 39 40
28 25 26 30 33 35 34 36 37 36 42 43 40 46 48 44 43 40 40 37 37 38 42 37 40 44 44 45 47 48 49 47 41 33 31 28 29 29 31 35 36 38 40
24 23 24 24 27 30 33 33 33 37 34 41 41 38 37 35 34 32 34 35 37 35 37 39 41 43 45 45 47 47 46 43 35 24 28 26 29 28 32 33 33 35 36
21 20 21 20 24 26 29 32 20 25 34 32 29 28 28 28 29 33 34 37 36 36 39 41 42 43 46 46 46 45 39 34 29 25 30 31 32 32 32 30 31 33 35
17 16 18 17 24 29 27 14 22 21 21 19 20 23 24 28 31 32 33 36 36 36 40 41 44 45 45 44 42 37 30 27 26 26 31 36 32 34 32 29 28 29 30
14 14 18 16 23 13 9 16 12 11 12 15 21 22 25 25 30 34 36 38 38 39 40 41 43 43 42 38 33 28 26 26 28 28 30 38 31 35 31 25 24 24 26
6 6 6 6 5 6 4 3 7 10 15 18 21 23 27 31 35 36 39 39 40 41 41 41 40 37 33 26 24 24 25 26 30 32 32 37 31 35 38 25 25 25 25

GFSMA_700_spd_036.txt.gz
Wind_Speed
22 22 22 21 19 20 20 19 18 17 17 16 16 15 14 14 15 16 16 16 14 12 11 9 8 8 7 7 7 7 8 9 10 11 12 12 13 14 14 15 15 16 17
28 27 27 26 24 23 23 22 21 22 20 20 19 18 16 16 17 18 18 16 14 13 11 10 8 7 6 6 6 7 8 9 10 11 12 13 14 15 17 18 19 20 21
30 30 30 29 28 28 27 25 25 25 24 23 22 21 19 19 20 20 19 17 15 13 11 11 9 8 7 7 7 8 9 10 12 13 13 14 15 16 17 18 20 21 23
31 32 32 32 32 31 30 28 29 27 26 26 25 23 21 21 22 22 21 19 17 15 14 13 12 11 10 10 10 10 11 12 13 14 15 16 17 18 18 20 21 23 24
32 32 33 34 34 34 32 31 31 30 29 28 26 25 24 24 24 24 22 21 18 17 16 16 15 14 14 13 13 13 13 14 15 15 16 18 19 20 21 22 23 25 26
37 35 34 35 35 36 35 33 32 31 31 29 27 27 26 26 26 25 24 23 21 20 19 19 19 18 18 17 17 17 17 18 18 19 19 21 22 23 24 26 26 27 28
35 37 36 37 36 34 34 33 33 32 31 30 29 29 28 28 27 26 25 25 23 22 22 23 22 22 22 21 21 20 20 21 22 23 24 25 27 29 28 28 29 29 29
36 35 35 35 36 35 34 35 33 30 30 30 31 31 31 30 29 27 27 26 26 25 25 26 26 26 25 26 25 25 24 25 27 27 29 31 32 33 32 32 32 31 31
37 37 38 38 37 36 37 37 35 33 32 32 33 34 33 32 29 29 28 28 28 28 28 29 30 29 29 30 30 30 29 30 30 31 32 35 36 37 36 36 36 36 35
44 44 43 42 40 38 38 38 38 35 36 35 35 35 34 33 32 31 30 30 30 30 30 31 32 33 33 34 35 35 34 34 34 35 36 38 39 41 41 39 39 39 39
51 49 49 48 46 43 40 40 40 40 41 40 36 34 33 32 31 33 32 29 30 31 31 33 35 36 37 38 39 40 39 38 38 38 39 41 43 45 43 41 41 42 41
42 47 53 54 53 51 48 45 43 42 42 42 38 35 36 37 34 35 38 33 33 34 34 34 35 37 39 41 42 43 42 42 42 42 43 44 46 47 46 44 43 43 44
46 44 42 46 51 50 49 51 50 45 44 43 40 38 38 37 37 36 36 35 37 38 39 37 37 39 41 44 46 45 45 45 45 44 45 47 49 48 46 45 46 46 47
48 49 50 48 46 45 46 49 50 48 44 44 43 40 39 39 38 40 42 35 46 40 43 44 44 45 45 47 48 50 50 47 47 47 48 51 50 49 47 47 48 48 49
40 41 42 45 48 48 46 46 48 49 46 44 43 42 42 42 41 43 41 44 44 49 49 47 49 48 51 51 51 53 50 50 47 47 50 51 50 49 49 49 50 51 52
41 40 41 42 46 48 47 46 46 50 50 47 45 45 48 45 45 41 42 50 48 55 50 58 48 54 52 54 52 52 52 51 50 48 49 51 51 51 51 52 53 54 55
39 38 37 39 40 43 47 47 45 44 45 47 47 51 46 43 48 44 46 54 49 55 56 56 53 54 55 57 52 49 51 49 50 48 50 52 52 53 53 54 55 55 55
37 36 36 36 39 43 43 46 47 45 43 42 44 45 48 47 46 46 50 51 58 56 51 50 53 53 53 52 49 47 47 48 46 49 50 51 52 53 53 53 53 51 49
35 35 35 34 34 38 44 44 45 46 44 44 45 43 44 46 50 46 49 52 53 51 46 46 47 51 49 47 45 47 46 46 47 47 50 51 52 51 49 48 46 43 39
35 34 33 30 30 34 37 43 43 43 43 41 39 39 44 42 44 45 53 49 46 45 45 47 45 45 46 46 48 46 46 46 46 46 48 49 47 45 41 41 37 36 37
35 37 39 29 28 31 33 34 38 39 41 37 36 37 41 41 46 51 42 38 40 40 41 41 42 45 46 44 44 46 47 47 46 43 44 43 40 36 34 35 35 37 39
22 18 22 23 28 29 31 28 28 31 34 34 36 37 40 43 42 39 34 32 34 36 39 43 44 43 42 43 44 46 45 46 45 37 38 34 29 28 32 33 33 34 37
17 18 20 23 25 26 23 25 25 25 28 37 39 35 35 30 30 28 28 30 33 39 44 42 40 40 42 43 44 44 42 43 40 30 31 27 25 28 29 28 28 31 35
11 14 18 21 18 20 23 22 29 21 21 30 19 19 19 20 24 27 32 35 34 40 40 40 40 41 42 42 43 44 40 37 30 21 23 27 26 29 29 25 25 28 32
11 15 17 21 16 14 17 13 7 11 14 11 11 15 20 25 29 30 33 36 38 37 38 39 41 42 43 42 40 36 27 23 20 16 22 29 27 31 29 22 23 24 27
8 6 5 1 1 3 3 5 4 3 10 12 17 20 23 26 30 33 36 37 37 37 38 40 40 39 35 30 24 20 19 18 20 21 28 28 26 31 33 20 22 25 27

GFSMA_700_spd_039.txt.gz
Wind_Speed
24 25 23 22 22 21 20 20 21 20 20 19 18 17 17 17 17 18 17 19 18 16 14 12 11 9 9 8 7 7 7 7 8 8 9 10 11 12 13 14 14 15 16
30 29 29 27 26 26 25 24 23 24 24 24 22 21 20 19 19 20 22 20 19 17 15 13 11 10 9 9 7 7 7 7 8 8 8 9 11 11 12 13 15 16 17
33 32 33 31 30 29 29 29 28 28 28 27 26 25 24 23 21 21 24 21 20 18 16 15 13 12 11 11 10 9 9 9 10 11 11 11 12 13 13 14 16 17 18
32 33 34 34 33 33 34 32 31 31 31 30 30 29 27 25 24 24 25 24 21 20 19 18 16 15 14 14 13 13 12 12 12 12 12 13 14 15 16 17 17 19 19
31 32 33 35 34 36 37 36 35 34 33 33 32 31 30 28 27 27 26 25 24 22 21 20 20 19 18 17 17 16 15 14 14 15 15 14 15 16 18 19 20 21 22
37 38 38 38 38 37 36 37 37 35 35 36 35 33 32 31 29 28 29 27 26 24 24 22 23 22 22 22 21 20 19 19 18 18 18 18 18 19 20 22 24 25 25
37 37 38 39 39 39 37 36 36 36 37 37 36 35 34 33 31 31 30 28 27 26 26 25 26 25 26 25 24 24 23 23 23 23 23 23 23 24 25 26 27 27 28
37 38 38 38 39 38 39 37 36 36 35 36 35 35 36 34 33 33 32 30 29 28 28 28 28 29 29 29 28 28 27 27 28 28 28 29 29 29 29 30 30 31 31
40 40 38 39 39 40 40 38 37 36 35 35 35 36 36 37 34 34 34 31 31 30 30 30 30 31 31 32 32 32 31 32 31 33 33 34 34 34 34 34 35 35 35
45 46 45 43 43 43 43 42 40 37 38 38 39 38 38 39 37 37 35 33 32 31 31 32 32 33 34 35 35 36 34 36 36 36 37 38 39 39 38 38 38 39 39
47 49 49 50 51 49 48 47 47 42 41 41 39 40 39 39 39 39 37 34 31 29 29 32 34 36 35 37 38 39 38 39 40 40 41 43 43 44 42 41 42 43 41
43 45 51 55 58 56 53 52 51 49 47 45 44 44 42 44 43 39 37 34 33 43 40 42 39 37 38 38 41 40 41 42 43 45 46 47 46 46 46 46 45 45 44
43 44 42 44 47 51 53 55 55 55 53 52 51 48 44 45 44 41 39 45 43 43 39 40 38 40 42 42 43 43 45 46 45 47 48 50 51 49 47 48 48 48 46
47 48 50 49 50 50 50 50 53 55 54 54 54 52 48 47 48 50 42 45 42 41 40 43 43 40 48 43 52 47 51 52 51 49 51 54 52 51 50 49 51 50 48
43 44 46 43 41 44 47 51 53 53 52 51 53 52 51 49 48 47 46 48 46 46 47 36 46 43 51 50 49 56 46 58 51 52 54 56 55 52 52 52 52 51 50
42 44 45 44 43 42 42 44 48 52 53 52 50 52 53 50 48 50 54 51 53 50 46 41 46 52 51 49 55 53 54 53 58 56 58 57 54 54 52 52 52 51 50
48 48 47 45 45 44 43 43 43 44 49 49 49 48 50 52 52 49 53 55 47 44 43 45 49 54 56 52 54 50 54 54 56 53 55 54 52 51 53 52 53 53 51
37 38 40 41 39 40 41 41 42 42 42 45 47 47 45 46 48 52 53 52 47 40 43 42 47 52 54 52 44 48 48 50 51 51 52 51 50 48 52 52 53 51 49
28 30 33 34 37 38 38 37 36 39 42 41 41 43 44 43 42 44 43 47 52 41 50 45 48 53 49 45 48 48 47 48 47 49 50 47 47 49 49 50 50 50 49
28 29 31 31 35 31 33 36 39 42 39 39 39 37 41 43 42 43 44 46 48 46 43 41 42 41 42 43 44 44 46 47 50 45 42 46 46 46 48 49 49 47 43
21 27 32 34 36 36 37 38 41 34 33 32 35 35 36 40 41 39 44 38 44 43 44 40 37 37 38 41 43 46 48 45 44 40 44 46 46 47 45 43 40 36 35
17 17 15 17 23 26 37 28 29 31 30 31 29 29 33 39 38 34 36 40 41 39 34 33 35 38 40 45 44 43 45 46 45 40 46 45 43 40 35 31 29 30 33
15 16 17 19 19 20 24 28 28 26 25 26 24 29 34 34 35 28 32 33 32 31 32 37 40 39 40 41 43 44 44 45 42 39 42 34 27 25 22 23 25 27 30
16 13 15 17 19 21 21 20 22 27 19 23 22 27 29 29 27 31 28 26 31 33 35 38 40 39 41 41 43 44 41 38 32 24 26 20 18 19 19 20 21 23 26
9 9 13 15 18 18 18 15 12 13 15 15 12 15 16 20 21 24 27 30 33 36 38 38 41 42 40 38 36 31 26 20 14 12 19 20 19 23 20 16 19 20 24
11 11 7 8 10 9 8 5 4 5 8 7 11 15 19 22 25 28 32 35 36 37 40 41 37 32 27 23 18 14 13 12 14 12 21 20 21 27 28 18 21 23 26

GFSMA_700_spd_042.txt.gz
Wind_Speed
24 23 23 22 22 22 21 20 20 18 18 20 20 21 21 21 22 19 17 18 19 19 17 16 14 13 12 11 9 8 7 7 7 7 8 8 8 9 9 10 11 12 13
27 26 27 27 26 27 27 25 25 25 23 22 23 23 23 24 25 22 21 20 21 21 19 18 15 15 13 12 10 9 8 8 8 8 10 10 10 10 10 10 10 12 13
29 29 31 31 29 29 30 31 29 29 29 27 26 26 27 26 27 28 23 22 23 23 20 19 17 17 15 14 13 12 11 10 11 11 12 12 12 12 12 12 13 13 14
27 28 30 32 31 30 32 33 33 32 31 31 31 31 30 29 29 29 29 25 23 23 22 21 20 19 18 17 16 15 14 13 13 13 12 14 13 14 14 14 14 14 15
31 30 30 32 30 30 30 32 33 33 33 33 33 33 33 32 31 31 30 29 25 25 24 22 22 22 20 20 19 18 17 17 16 16 15 15 15 16 16 16 16 17 18
34 35 35 36 37 36 35 36 35 32 32 33 34 35 34 35 34 33 31 30 29 28 25 24 24 23 23 23 22 22 21 20 20 20 19 19 18 19 19 20 20 21 21
38 34 36 36 38 39 36 36 36 34 33 33 34 35 36 36 36 34 33 32 29 30 29 25 26 25 25 26 25 25 25 25 25 25 24 24 24 23 24 24 25 25 25
43 41 38 38 39 41 41 38 37 35 34 36 34 33 37 37 35 34 34 33 31 31 32 28 27 27 27 28 28 28 28 28 29 29 29 29 29 28 28 29 29 29 29
46 46 44 41 41 41 41 42 39 37 37 36 36 36 38 39 35 34 35 34 34 33 33 33 30 30 28 28 30 31 31 31 33 32 33 34 34 32 33 33 34 35 34
41 45 49 48 46 44 45 44 43 42 41 39 38 37 39 40 39 38 35 35 36 37 36 34 32 29 29 31 31 33 33 34 34 35 36 38 38 37 37 37 38 39 39
36 36 40 47 50 49 49 48 48 49 47 45 43 42 42 42 42 41 39 37 37 37 42 37 33 30 25 37 36 35 33 34 36 37 38 39 41 42 42 41 42 42 43
38 39 37 39 42 48 52 53 53 54 55 52 50 48 47 46 45 44 42 40 41 39 42 41 36 36 43 43 45 45 38 37 39 38 39 43 43 44 44 45 45 46 46
37 37 36 39 39 40 42 44 45 49 53 56 55 54 51 51 49 46 45 45 45 44 44 45 46 46 45 44 40 39 39 39 43 41 45 46 46 46 47 48 48 48 47
37 39 40 41 41 43 44 45 47 48 49 50 50 50 52 52 51 52 49 47 47 49 49 51 45 47 46 44 44 40 36 40 44 46 42 48 43 49 50 49 51 52 51
38 38 39 44 45 44 42 41 43 44 46 47 49 49 48 48 48 50 50 50 50 55 56 57 54 55 44 45 37 42 40 38 46 45 51 52 49 51 53 54 53 51 51
41 41 41 42 43 44 43 42 43 43 43 41 41 43 45 46 46 46 47 48 50 52 56 58 53 45 47 45 41 39 43 45 48 48 50 46 51 49 50 50 50 48 47
37 41 43 44 46 47 46 43 43 44 46 44 43 41 40 43 44 44 45 47 49 52 55 59 52 49 41 35 41 40 44 44 41 46 43 45 46 47 47 47 46 47 48
28 29 31 33 34 35 35 34 33 35 35 34 33 34 36 38 39 41 41 41 44 44 47 42 42 42 42 45 41 41 42 42 42 40 46 46 45 44 46 48 48 46 45
22 21 22 26 29 30 32 35 39 41 39 39 39 35 31 34 36 35 38 39 39 38 38 35 33 36 39 35 39 40 39 41 41 40 40 42 43 46 46 44 43 43 45
20 21 18 19 23 27 31 33 34 31 26 33 33 30 33 33 35 35 34 36 35 38 40 40 40 37 37 38 38 34 36 38 37 38 42 44 42 43 42 44 44 45 46
16 15 16 16 18 20 23 28 35 33 32 33 31 37 37 27 27 27 29 33 32 39 42 33 41 35 35 33 32 33 36 38 39 37 41 41 43 44 43 43 43 42 41
16 16 17 19 21 21 22 23 20 22 29 30 29 33 32 22 23 23 26 31 29 28 33 36 37 32 30 33 36 37 37 40 40 38 45 40 45 43 40 38 34 29 26
15 15 16 17 18 19 20 20 21 21 23 25 29 23 18 21 23 25 29 26 30 35 34 31 30 31 34 36 39 38 40 42 42 40 41 30 31 25 21 17 18 19 23
13 13 13 14 18 21 21 19 20 21 21 21 23 19 14 16 16 19 21 24 27 26 28 31 32 34 37 38 41 40 38 33 26 24 22 11 15 11 12 15 18 19 21
11 13 12 11 12 14 15 13 10 9 11 14 12 10 9 13 16 19 21 23 26 29 32 34 36 38 39 38 33 24 20 13 11 13 19 14 16 15 14 14 16 19 22
13 12 10 10 12 13 13 13 13 14 15 15 15 16 17 19 22 25 27 30 33 35 37 38 36 32 25 20 13 11 12 13 13 13 20 19 18 23 17 11 14 20 23

GFSMA_700_spd_045.txt.gz
Wind_Speed
21 20 21 21 21 21 21 21 20 20 20 20 19 20 21 22 21 21 20 19 19 20 20 19 17 15 15 13 12 10 9 9 8 7 7 7 8 8 9 9 9 10 10
23 23 24 24 25 25 25 24 25 25 24 24 24 23 23 25 22 22 23 22 21 21 21 20 18 17 16 15 14 12 11 10 10 9 9 9 10 10 10 10 11 11 11
24 26 26 25 27 29 29 30 30 29 28 27 27 27 26 28 27 24 24 24 23 23 22 22 20 18 18 17 16 14 13 13 13 12 11 11 11 10 11 10 11 12 12
27 28 28 26 26 26 27 29 29 29 29 28 29 30 30 30 31 28 27 26 26 25 24 23 22 20 20 19 19 18 17 17 16 15 14 13 12 13 12 12 12 12 13
27 29 30 29 29 28 28 28 29 28 28 28 29 31 31 32 32 33 30 29 28 27 26 25 24 22 21 21 21 21 20 20 19 19 18 17 16 15 15 15 15 14 14
32 32 30 32 31 32 33 33 34 34 34 33 33 32 32 32 33 32 34 31 30 29 28 27 26 24 23 23 23 23 24 24 23 23 22 21 20 19 19 20 20 19 18
36 37 36 34 35 34 32 33 35 36 34 32 33 35 34 32 33 33 34 34 31 30 29 29 28 27 26 25 26 26 26 27 26 26 26 25 24 24 24 24 25 25 24
42 42 41 38 37 38 37 36 36 37 36 34 35 34 36 34 33 32 33 33 33 33 31 29 29 30 29 28 28 28 28 28 29 29 29 29 29 28 29 28 28 29 29
40 42 44 44 42 42 42 42 41 40 38 37 37 36 38 38 35 33 33 34 33 34 33 31 31 29 31 31 30 29 28 29 31 31 31 32 32 32 32 32 32 32 32
34 36 38 42 45 44 45 45 46 44 43 42 42 41 41 41 40 39 35 36 36 36 34 33 32 31 36 37 35 32 30 28 30 33 34 35 34 34 34 34 34 34 35
32 33 36 38 39 40 40 42 45 45 47 46 46 45 45 44 45 45 44 40 40 39 37 39 34 36 37 39 39 35 32 33 43 39 37 38 37 36 35 35 36 36 37
31 33 33 33 36 39 38 37 37 41 45 48 50 50 50 48 48 49 48 46 44 42 42 39 39 39 42 42 44 40 39 44 48 42 44 38 39 40 37 38 40 41 40
37 38 36 32 29 34 36 36 37 37 39 41 46 45 48 43 44 44 48 49 49 46 46 45 43 43 44 47 43 45 47 50 47 46 37 41 42 37 39 38 40 38 41
37 38 37 34 34 33 35 38 41 41 43 44 46 45 44 45 43 43 40 41 47 48 48 47 46 49 53 54 57 45 45 50 52 45 38 37 39 39 41 42 44 47 50
35 35 36 36 36 36 34 38 40 40 43 42 42 42 43 44 42 42 43 38 39 44 44 47 48 52 60 47 57 45 48 47 41 37 39 39 38 41 41 44 46 49 50
30 32 34 36 37 38 38 40 42 44 44 44 43 41 40 41 42 42 43 39 39 40 45 46 44 55 46 51 39 39 41 33 35 39 37 37 37 39 43 46 43 45 44
25 27 29 30 32 33 33 35 38 39 40 39 40 41 44 41 37 42 43 44 33 37 38 43 42 44 43 38 54 37 28 30 38 37 35 39 40 43 42 41 44 43 42
24 25 25 26 27 27 27 27 29 30 30 32 33 34 38 39 37 40 40 46 40 32 36 39 34 36 42 28 33 34 36 33 32 35 40 42 40 41 41 40 40 40 42
19 19 16 16 18 18 20 21 25 27 30 31 33 34 30 35 32 30 32 36 36 34 32 39 34 31 26 22 26 26 28 32 33 35 36 37 36 38 36 38 41 42 42
12 12 14 14 16 17 18 18 20 21 25 30 31 31 32 34 35 36 33 29 30 29 31 31 32 22 22 24 26 31 34 32 28 29 34 36 38 39 38 41 42 44 45
10 12 13 15 17 17 19 20 21 23 23 21 22 28 30 30 31 31 33 25 29 26 26 25 26 24 28 30 28 27 26 28 30 33 36 36 38 40 42 44 45 46 44
11 13 13 15 17 17 20 21 24 23 22 22 21 21 20 22 23 24 24 14 21 23 25 27 27 29 26 27 26 27 31 32 31 36 41 35 45 42 43 41 37 32 28
9 11 12 14 13 15 16 18 18 16 17 18 20 20 19 17 22 22 20 21 25 26 25 25 25 26 26 29 30 31 33 35 36 37 39 28 30 24 20 18 15 14 16
7 9 8 6 5 9 15 18 16 12 10 11 15 14 11 9 9 12 14 16 19 20 21 23 26 27 31 33 34 35 36 34 29 25 18 13 15 12 12 14 14 17 20
8 9 8 7 9 11 13 13 14 13 15 15 16 15 15 15 18 20 21 23 24 26 28 30 31 33 35 36 36 32 26 18 15 16 17 13 15 13 13 16 17 20 23
7 7 6 8 9 11 12 13 14 15 17 18 19 19 19 20 22 23 24 26 27 29 30 31 31 31 31 29 26 19 14 13 13 15 20 18 16 17 14 15 18 21 24

GFSMA_700_spd_048.txt.gz
Wind_Speed
19 19 19 19 19 19 19 20 21 21 22 22 22 21 21 20 19 18 19 19 20 19 19 20 20 19 18 16 14 13 12 11 10 9 8 9 8 8 8 8 8 8 8
21 21 21 22 22 22 23 24 25 26 25 26 26 25 25 25 24 23 22 23 23 22 22 21 20 20 19 18 16 15 14 13 12 11 10 10 10 11 11 10 10 10 9
21 21 22 22 23 24 24 26 27 27 27 27 27 27 27 28 28 26 25 25 25 25 24 24 23 21 20 19 18 17 16 16 15 14 13 13 12 12 12 11 11 10 11
22 23 24 24 26 27 27 27 26 26 26 26 26 26 27 30 30 28 28 27 26 26 26 26 25 24 22 20 20 20 19 19 18 17 16 15 15 14 13 13 12 12 11
25 26 27 27 27 27 28 29 30 30 30 29 30 30 30 31 32 31 30 29 28 28 28 28 26 26 24 23 22 22 22 22 22 21 20 19 18 17 17 16 15 14 14
28 29 29 29 28 29 29 30 30 31 32 31 32 33 33 33 34 32 31 31 30 30 29 29 29 28 27 26 24 24 24 25 25 25 23 22 22 21 20 20 20 19 19
32 34 34 34 34 34 32 32 33 33 33 32 35 36 35 33 33 32 32 31 30 30 29 29 29 30 29 28 28 27 27 27 28 28 27 27 26 25 25 23 24 24 23
37 40 41 41 41 40 37 35 36 36 36 35 37 37 41 39 35 32 32 32 31 30 30 30 30 30 31 31 30 30 29 30 30 31 30 30 30 28 29 29 28 29 28
39 41 42 44 45 45 45 41 38 40 40 40 39 39 43 43 40 35 35 35 34 33 31 32 32 32 33 33 31 31 29 31 33 34 33 34 31 32 33 33 31 31 31
36 38 38 39 40 40 40 41 39 40 41 43 42 43 44 43 45 44 41 38 38 38 37 35 35 35 34 32 34 35 34 41 36 37 38 38 35 37 39 37 35 34 33
34 34 35 36 38 40 41 40 40 39 39 41 43 41 47 42 45 46 49 45 42 42 42 40 44 40 38 35 41 40 39 39 43 45 44 44 43 41 46 43 39 37 34
32 33 32 32 33 34 36 35 37 37 37 37 39 40 41 46 46 46 49 48 49 49 48 46 42 44 46 52 42 43 43 44 46 51 51 50 46 53 56 48 48 45 38
35 35 35 35 35 35 34 33 35 36 36 36 35 37 39 42 42 45 45 46 44 45 43 44 45 43 42 44 47 45 48 45 50 51 50 50 54 57 52 50 53 44 39
38 38 38 37 35 34 34 35 37 39 39 39 40 39 40 40 40 40 42 46 49 49 47 43 36 40 41 43 46 47 44 40 50 53 45 51 57 54 47 40 39 42 36
35 34 34 34 33 33 33 34 35 36 38 39 40 41 40 40 41 39 39 41 40 45 49 41 53 39 39 43 42 46 42 43 41 41 52 48 39 34 36 37 35 36 37
28 28 28 28 29 30 32 33 33 35 36 37 38 40 40 39 39 39 41 42 41 41 45 51 48 42 40 39 45 45 35 40 33 36 35 32 28 30 29 31 35 39 42
23 25 26 27 27 29 28 27 28 29 31 32 34 33 33 33 33 33 35 39 42 43 47 44 45 46 43 37 35 41 31 32 32 28 28 35 32 32 34 37 39 41 41
25 26 27 26 25 24 24 23 23 23 25 27 28 27 29 31 33 33 31 34 39 39 44 46 37 43 30 21 29 25 34 29 26 27 27 35 34 35 38 40 38 37 38
26 23 22 21 20 19 19 19 20 21 24 22 21 25 29 31 31 28 29 31 35 37 37 39 30 32 32 26 18 21 17 22 26 27 32 34 36 38 35 32 33 35 37
19 18 17 16 15 16 18 19 21 21 22 21 22 23 24 24 24 26 29 31 36 35 34 29 31 25 27 19 18 21 24 27 28 31 34 31 32 31 33 35 37 38 39
15 15 14 13 14 14 16 17 20 22 23 23 22 23 24 24 23 24 23 25 20 25 24 29 27 25 26 23 23 26 25 26 27 29 30 32 32 34 36 38 39 40 42
13 14 13 13 12 13 14 17 20 22 21 19 20 20 26 20 21 19 22 25 18 21 23 25 27 33 27 27 26 26 26 26 29 31 32 32 36 38 40 41 41 37 33
13 12 13 12 9 8 4 5 9 10 8 7 8 13 12 10 11 10 12 15 15 19 22 25 25 26 27 26 27 29 29 30 31 34 37 31 39 37 33 28 24 21 19
7 8 7 2 1 2 3 5 7 7 8 9 12 14 14 14 13 15 19 21 21 22 23 25 27 29 31 32 33 33 34 35 35 35 36 25 24 19 18 19 18 18 19
4 4 2 1 1 3 6 7 7 9 11 13 14 16 17 17 18 19 21 23 24 25 27 29 31 32 33 34 35 34 33 32 29 26 20 16 17 16 18 19 19 20 22
2 1 1 2 5 7 8 9 10 11 13 15 16 18 19 20 21 21 23 24 24 25 25 27 28 29 30 31 31 28 25 22 17 16 17 16 16 17 18 20 21 22 25

GFSMA_700_spd_051.txt.gz
Wind_Speed
17 17 17 17 18 18 19 20 20 20 20 21 21 21 22 22 22 22 22 22 21 20 20 19 20 21 21 20 18 16 15 13 12 10 10 9 8 8 9 8 8 8 8
19 19 19 19 20 20 21 21 22 22 22 23 24 24 24 24 25 24 24 25 25 23 22 21 21 21 21 21 19 18 17 15 14 13 11 11 10 10 10 10 10 9 10
19 19 19 19 19 21 22 22 23 23 23 24 24 25 25 26 26 26 26 27 27 26 25 24 23 22 22 22 21 20 18 18 17 16 15 14 13 12 11 11 11 10 10
20 21 21 21 22 23 23 24 25 25 25 26 25 25 25 26 27 26 26 27 28 28 28 27 26 25 24 24 23 21 21 20 20 19 18 17 16 15 14 13 12 12 12
24 25 26 26 27 27 27 25 24 26 27 28 30 32 33 33 32 30 29 30 30 29 29 29 29 28 27 26 26 24 23 23 23 23 22 21 20 19 18 17 16 15 15
28 30 30 29 29 29 27 27 29 29 31 30 31 32 33 34 34 33 30 29 29 29 29 29 29 29 29 28 28 27 26 25 25 26 26 25 24 24 23 22 21 20 19
30 31 32 31 31 33 34 34 35 34 33 33 34 35 35 36 36 32 31 31 29 28 28 28 28 30 31 32 31 31 29 28 28 28 29 29 29 28 27 26 25 24 25
33 34 35 36 38 39 38 37 37 38 38 36 38 38 42 41 38 35 33 32 30 31 30 29 30 31 33 34 34 34 33 33 31 31 31 31 32 32 32 31 30 28 29
35 37 38 40 40 43 43 42 42 42 40 38 37 39 44 46 44 41 37 36 35 34 34 34 34 34 35 34 35 36 37 38 36 34 34 33 34 36 37 36 35 34 33
34 36 38 39 40 41 41 40 40 40 40 38 37 37 40 43 44 49 43 42 41 37 38 39 40 41 41 40 36 37 40 41 42 39 37 36 37 39 40 40 39 40 34
34 35 35 35 36 37 37 39 39 37 38 39 40 38 37 39 42 44 48 42 41 39 41 44 47 49 47 44 42 45 43 48 47 43 44 43 45 44 44 45 45 46 44
35 34 34 33 33 34 33 34 34 33 32 34 36 37 36 36 37 37 39 42 43 40 41 41 42 42 52 52 42 41 47 55 51 55 47 51 50 51 50 50 52 55 51
35 36 36 36 36 36 36 37 36 35 34 33 34 36 36 36 35 39 41 42 44 43 44 42 44 43 46 43 47 46 42 50 48 39 37 34 47 52 55 56 51 52 54
36 37 38 39 38 37 37 38 38 38 37 35 37 40 39 37 37 38 39 41 45 45 45 41 41 42 38 38 41 48 48 38 36 32 32 34 34 39 46 50 46 51 50
36 36 36 36 35 35 35 35 36 37 37 37 37 37 38 39 39 38 38 40 41 45 46 44 42 40 41 40 44 45 43 40 33 28 31 31 36 34 34 36 40 35 35
32 31 30 29 29 29 29 30 32 33 33 34 34 33 32 32 34 35 33 32 33 36 41 39 39 41 44 44 44 43 42 41 43 30 36 33 33 32 31 26 29 34 32
26 25 25 24 25 26 27 27 27 28 28 28 27 26 29 31 30 31 32 32 32 34 35 35 36 36 39 39 38 39 42 35 27 30 27 31 31 33 32 31 31 33 34
24 24 25 26 27 26 26 26 24 23 23 23 23 25 27 26 25 27 29 29 29 33 36 36 35 34 36 34 26 29 34 25 26 30 29 31 29 35 33 32 31 34 36
24 25 26 25 23 22 22 21 21 21 22 22 24 24 24 25 24 26 25 25 28 31 34 35 34 31 28 27 26 26 24 26 21 24 23 24 30 33 34 33 35 37 37
23 23 20 19 18 18 19 20 21 21 22 23 24 24 24 25 26 25 25 26 28 29 32 22 20 20 17 24 24 24 22 21 22 23 26 29 31 34 35 37 35 33 34
19 16 15 15 16 17 18 18 19 20 22 24 24 22 22 24 24 24 23 19 23 25 21 20 22 23 21 25 27 29 25 26 29 30 31 32 32 30 33 35 35 36 37
13 13 14 14 14 14 15 15 14 12 12 10 9 9 11 11 9 13 10 10 14 17 18 18 21 23 25 28 27 27 26 27 30 30 31 31 33 33 36 38 38 39 39
13 13 12 11 11 11 9 6 6 5 6 4 7 10 10 11 12 12 14 20 22 23 24 24 25 26 27 28 29 30 31 31 32 34 35 33 36 38 40 38 36 31 25
8 7 7 7 5 5 6 6 8 8 8 10 12 14 14 15 16 17 19 21 23 24 25 27 28 29 30 31 33 34 35 35 35 36 38 34 34 34 30 24 19 18 18
4 4 4 4 4 5 7 8 9 11 13 15 17 18 18 18 19 20 21 23 24 26 26 27 28 29 30 31 32 32 33 34 33 31 31 25 23 19 19 18 17 19 20
4 5 5 5 5 7 8 10 11 13 15 17 19 20 21 21 22 22 24 25 26 26 27 28 28 28 28 29 31 30 30 29 28 25 22 16 17 17 18 19 19 20 22

GFSMA_700_spd_054.txt.gz
Wind_Speed
14 14 15 15 16 16 17 18 18 19 20 21 21 20 20 20 20 20 19 22 22 22 22 21 21 20 20 19 18 17 16 15 14 13 12 10 9 8 8 8 7 7 6
16 16 17 17 18 19 20 20 20 21 22 22 22 22 22 22 22 22 23 23 24 24 25 24 23 22 21 21 20 18 17 16 15 15 14 14 12 11 11 10 9 8 8
19 18 19 18 17 19 19 20 21 22 23 24 22 22 22 23 23 23 24 24 25 25 25 26 25 24 23 22 22 22 20 18 17 17 16 16 16 15 14 12 11 10 9
18 18 18 19 21 22 23 23 24 24 24 25 24 24 26 26 26 25 26 26 26 26 26 27 27 27 26 25 25 25 24 23 21 20 20 20 19 19 17 16 14 13 12
21 22 23 23 25 27 28 27 26 27 26 25 27 27 28 28 28 27 26 27 27 27 26 27 27 27 27 27 27 27 27 27 26 24 24 23 23 22 21 20 19 18 16
26 27 28 28 30 31 30 30 31 30 31 30 32 32 30 31 32 30 27 27 26 27 27 27 27 28 28 27 28 30 30 30 30 29 27 27 27 26 26 25 24 23 21
28 29 31 31 31 32 32 34 35 37 36 34 36 35 35 35 35 34 32 29 29 29 29 29 28 28 28 28 29 30 32 34 33 32 32 31 31 31 30 29 28 27 27
31 32 33 33 34 35 36 36 38 38 39 38 40 39 41 40 38 36 34 33 32 31 30 30 30 31 31 32 33 33 32 32 34 36 37 37 37 35 34 33 32 31 31
33 34 35 36 37 38 39 40 41 42 43 40 37 36 38 41 39 37 35 34 33 32 32 34 34 35 36 36 37 38 37 34 35 39 46 44 42 41 39 38 37 35 35
35 36 37 38 39 39 40 39 39 38 38 39 37 35 36 39 40 43 40 37 33 33 34 31 35 38 40 40 41 42 43 43 41 40 42 47 50 45 42 40 41 39 38
36 36 36 37 37 37 36 36 35 34 36 35 35 35 35 37 37 39 43 39 37 34 32 32 35 39 40 40 40 41 40 48 50 49 42 42 41 37 48 43 42 43 44
36 36 36 35 34 34 35 35 35 34 34 34 35 35 35 36 36 36 38 41 42 41 40 38 37 37 38 38 39 41 40 45 45 48 51 39 39 39 38 45 51 51 48
35 36 37 37 37 36 36 36 36 36 35 34 34 31 33 35 37 37 40 42 44 45 43 40 38 35 36 37 38 40 41 40 40 44 42 46 43 38 36 34 31 36 47
34 35 36 38 38 38 38 38 39 38 36 33 33 36 35 35 34 36 38 40 43 43 41 39 34 32 33 36 36 37 38 37 40 41 43 37 38 36 37 36 28 32 34
34 35 35 36 36 36 35 35 35 36 35 35 36 35 35 33 33 34 35 35 36 38 38 37 33 31 30 32 31 29 32 36 42 40 35 34 34 38 33 30 34 34 32
32 31 30 30 29 28 27 27 28 30 31 32 33 33 33 32 29 28 30 30 30 32 35 34 32 31 32 32 33 34 33 35 31 30 34 33 31 27 30 31 32 29 30
28 27 26 25 24 23 23 25 26 27 28 29 30 28 27 26 25 27 25 26 28 30 30 29 30 32 32 31 31 29 31 27 25 32 30 26 25 27 30 32 30 29 32
25 24 23 23 23 24 25 24 23 23 22 22 23 21 22 24 25 24 24 25 27 27 26 26 29 33 31 30 25 22 22 25 23 25 22 24 28 30 28 28 28 31 34
23 23 24 23 23 22 20 19 18 18 18 19 20 22 24 24 25 24 25 25 25 25 26 30 31 26 19 22 19 20 20 22 23 23 18 16 20 21 26 28 30 30 30
24 23 22 21 19 16 15 15 16 17 18 19 21 23 25 26 26 26 26 24 24 22 20 20 21 21 20 20 20 22 22 24 25 22 22 22 24 25 29 31 31 31 33
22 20 18 17 14 14 14 14 15 16 17 18 19 19 17 16 18 18 16 16 14 12 16 20 21 22 23 21 20 21 22 23 23 22 22 26 28 29 31 33 32 32 33
18 16 14 13 13 12 12 12 12 9 9 9 8 6 8 11 13 13 13 14 16 19 22 23 24 24 25 25 25 26 26 26 28 27 27 29 30 32 34 36 36 36 36
13 13 13 12 11 11 9 6 6 7 8 9 9 10 13 14 16 17 19 20 20 21 23 24 24 25 26 26 27 28 28 29 29 30 29 29 34 34 38 39 40 40 41
13 10 9 9 8 5 5 7 8 9 10 11 12 13 15 16 18 19 21 22 22 23 24 25 26 26 26 27 27 27 28 29 29 30 30 28 29 33 36 36 34 32 29
8 8 6 5 5 6 7 8 10 11 12 14 15 17 18 19 20 21 22 23 24 24 24 24 25 26 26 27 26 26 27 28 28 29 29 27 25 24 25 22 19 18 19
8 6 6 6 7 7 8 10 12 13 15 17 19 20 20 21 22 21 23 23 24 25 25 25 24 25 24 25 26 26 26 26 27 27 27 23 22 20 18 17 17 18 20

GFSMA_700_spd_057.txt.gz
Wind_Speed
14 15 15 14 14 15 15 16 17 17 19 19 20 21 21 22 22 22 22 22 21 21 22 21 20 20 20 20 19 19 17 16 15 13 12 11 11 10 10 10 10 9 9
16 16 16 16 17 18 19 19 19 19 20 21 21 22 23 23 23 23 23 22 22 23 24 24 23 22 21 21 22 21 20 19 18 17 16 16 15 14 13 12 11 11 11
18 19 18 18 19 20 20 19 20 21 22 22 23 24 25 25 24 23 23 22 22 23 24 25 26 25 24 23 23 23 23 22 21 21 20 19 19 18 17 15 14 13 12
19 19 19 18 20 20 21 22 24 24 25 25 25 25 26 26 26 26 25 25 25 25 25 26 28 28 26 26 26 25 24 24 24 23 23 22 22 22 21 20 18 17 15
21 20 21 21 23 24 25 26 27 28 28 28 27 27 29 30 30 29 27 26 25 25 25 26 26 27 26 26 26 27 26 25 25 26 26 26 25 26 26 25 23 22 20
24 24 24 25 27 29 29 30 31 32 31 31 31 33 34 34 32 31 30 29 27 26 27 27 27 28 29 28 27 27 27 28 27 27 29 29 29 29 29 29 28 27 25
27 28 27 28 29 31 31 32 33 35 34 35 37 36 35 36 36 35 34 32 31 31 30 29 30 30 30 31 30 29 30 30 31 31 30 31 33 32 33 33 33 32 30
30 30 31 31 31 32 33 34 35 37 38 35 40 43 43 38 32 31 31 31 31 32 32 32 33 33 33 34 34 34 34 34 34 33 36 36 31 36 39 39 37 37 36
32 32 33 33 34 34 36 36 37 38 40 39 39 40 41 40 36 33 32 32 30 29 30 32 33 34 35 39 38 39 39 38 38 37 37 37 44 42 43 45 43 42 38
34 35 35 35 36 37 38 38 38 38 39 39 38 37 37 38 37 39 34 30 29 27 27 27 30 31 32 35 37 39 40 41 42 41 40 36 36 38 37 41 37 42 42
35 35 35 35 36 36 36 36 35 35 35 35 34 33 33 34 35 37 37 35 32 29 28 30 31 32 34 35 37 36 37 38 38 38 36 39 37 38 36 39 36 33 39
35 35 36 36 36 35 35 35 35 36 35 35 35 35 34 35 35 38 37 35 36 36 36 35 35 35 35 35 36 36 35 36 36 39 36 38 35 34 30 30 34 35 30
34 35 35 36 36 37 36 36 37 37 37 37 36 36 34 33 33 31 36 38 39 38 35 34 33 32 29 29 30 32 33 35 37 39 38 35 31 35 38 31 30 29 37
32 33 33 34 35 36 37 37 37 37 37 36 35 34 33 35 36 38 37 36 37 36 33 30 26 23 22 22 24 26 27 30 32 31 35 36 35 33 34 35 26 35 40
32 32 33 34 34 34 34 33 32 32 30 29 29 29 29 31 32 33 33 32 30 32 31 26 25 22 21 21 22 24 26 28 31 31 34 34 35 35 36 33 34 34 32
32 31 31 31 30 29 27 25 23 23 23 24 25 26 27 28 29 28 26 25 27 27 27 26 24 21 21 23 24 23 24 27 26 28 27 24 26 27 34 34 37 35 32
31 30 28 26 25 24 23 22 22 23 24 24 24 24 25 25 24 22 22 25 25 24 24 25 23 22 23 24 22 19 20 19 21 21 19 18 22 24 28 31 34 34 36
29 27 25 23 22 22 22 22 23 21 20 20 20 20 20 20 21 22 23 24 25 25 24 23 23 25 26 20 19 20 17 17 19 20 20 16 14 16 21 25 28 30 31
28 26 23 22 22 21 21 20 17 16 15 16 17 17 18 19 21 22 23 24 25 24 23 21 17 16 14 15 16 18 16 19 20 20 20 18 16 15 16 17 19 22 25
27 25 23 23 20 19 16 14 13 13 14 15 16 17 18 18 18 17 18 19 18 17 15 12 15 18 18 19 19 19 18 19 19 20 20 20 19 20 23 24 26 26 27
25 23 22 21 18 14 12 12 12 12 12 11 10 9 8 7 8 10 11 11 10 10 14 17 19 20 20 19 19 20 20 20 21 21 23 23 24 24 24 25 27 29 29
22 21 19 16 13 12 11 10 10 7 4 4 5 5 8 8 11 12 13 14 15 16 17 19 20 21 20 20 21 22 22 22 23 21 22 24 25 28 28 29 31 32 33
16 16 14 12 11 10 10 8 5 4 5 6 7 9 11 13 14 15 16 17 17 18 19 20 22 23 23 22 22 22 23 23 23 23 21 22 26 27 29 30 32 34 35
14 13 11 11 10 9 8 7 6 5 6 8 11 13 14 15 17 18 20 20 20 21 21 22 23 23 23 22 23 23 23 23 23 23 22 20 23 25 27 26 27 28 30
11 10 10 9 8 8 7 5 6 8 9 10 12 14 16 18 19 20 21 21 21 22 22 22 22 22 22 22 22 23 23 23 23 24 24 24 23 23 23 21 20 21 21
8 8 8 8 8 6 6 7 9 10 12 13 14 14 16 18 19 20 22 22 22 21 22 21 21 22 22 22 22 22 23 24 24 25 25 24 26 24 20 20 18 19 20

GFSMA_700_spd_060.txt.gz
Wind_Speed
16 16 16 16 16 17 18 18 18 18 19 20 21 21 22 23 23 24 25 25 25 25 24 23 22 22 22 21 21 21 20 19 18 18 17 16 16 15 14 13 13 13 12
18 18 18 18 18 19 20 20 21 21 21 21 22 23 24 24 24 25 25 25 25 25 25 25 24 23 23 23 22 23 23 23 22 21 20 19 18 17 17 16 15 15 15
17 18 19 20 21 22 22 21 21 21 22 22 23 25 26 26 25 24 25 26 27 27 28 28 28 28 27 27 26 25 25 25 24 23 23 22 21 20 20 19 18 17 17
18 18 19 21 22 22 22 22 23 24 25 26 26 28 28 27 26 27 28 28 28 28 28 28 28 28 28 27 28 27 26 25 25 26 26 25 24 23 23 22 22 21 20
22 22 21 22 23 23 24 25 27 28 29 30 30 30 31 30 30 31 33 32 30 30 30 30 30 30 29 29 29 29 29 28 25 26 27 27 26 26 26 26 25 25 24
26 25 25 25 26 26 28 29 30 32 32 33 34 33 34 34 35 34 33 34 35 34 33 33 33 33 32 32 32 31 31 32 30 27 27 28 29 29 30 29 29 29 29
29 28 28 28 29 30 30 32 33 34 34 35 38 38 38 37 37 37 36 34 33 33 33 35 35 34 34 34 33 33 33 33 33 33 33 32 31 31 31 31 33 33 34
30 30 31 31 33 34 34 34 34 35 36 37 39 40 42 41 40 34 31 31 30 29 31 32 34 35 35 35 35 36 37 38 36 35 36 37 36 36 35 34 36 38 44
31 32 33 34 34 35 35 35 36 37 39 38 37 39 40 41 40 37 32 30 30 29 30 29 31 33 34 34 35 37 36 37 38 37 36 37 37 37 39 37 36 35 40
33 34 35 36 37 37 37 37 37 38 39 39 38 37 36 37 38 39 36 32 29 30 30 28 26 26 28 31 33 33 35 37 38 37 35 33 35 35 34 35 37 32 30
35 36 37 37 36 36 36 36 35 36 36 36 36 35 33 35 35 36 39 37 33 29 26 27 28 31 33 34 35 36 37 37 38 38 36 34 33 32 35 36 39 38 29
37 37 37 36 35 35 34 33 33 34 35 36 36 35 35 35 34 35 36 35 31 29 32 32 32 32 33 34 34 35 36 36 35 34 33 31 32 35 35 36 34 40 26
38 37 36 35 35 34 34 35 35 35 35 36 36 36 36 35 36 37 36 35 36 37 35 32 32 33 30 29 27 28 29 29 30 31 30 31 32 32 38 35 33 35 35
37 36 35 35 34 34 34 35 35 35 35 35 36 35 35 34 34 35 35 36 38 38 34 31 25 26 23 23 23 22 23 26 26 26 27 28 29 30 33 34 43 34 33
35 34 34 34 34 34 34 33 32 32 32 31 31 29 28 28 29 29 31 32 32 34 30 25 21 19 19 19 17 19 22 23 23 23 23 25 27 30 31 33 36 42 35
34 34 33 33 32 32 31 29 28 27 25 25 24 24 25 24 25 26 27 27 25 26 27 24 21 20 19 18 18 20 21 20 23 21 20 20 21 24 24 25 27 32 38
34 33 33 32 31 29 28 27 25 24 23 24 24 23 22 22 23 22 22 22 23 24 23 23 22 21 21 21 22 18 17 19 18 17 16 19 20 21 20 22 26 33 35
33 33 31 31 29 27 26 25 24 24 24 23 21 20 20 20 20 20 21 23 23 23 24 23 21 21 17 15 12 11 14 15 16 19 19 20 22 21 20 16 18 23 26
32 32 31 29 27 26 25 25 24 23 21 19 18 18 18 18 19 20 21 22 22 22 21 19 16 13 13 15 15 16 17 17 18 18 19 21 20 19 19 20 19 18 20
33 32 31 28 27 26 25 23 21 18 16 15 15 15 16 16 16 13 10 9 10 10 10 9 9 14 16 17 18 19 19 20 20 19 20 21 22 22 21 20 21 23 25
32 31 29 26 26 25 23 19 16 15 14 13 12 10 9 6 6 6 9 10 11 12 12 14 16 18 18 18 19 20 21 22 22 22 22 23 23 23 23 23 24 25 26
29 28 26 25 24 21 19 17 15 13 12 9 7 7 7 7 8 9 11 13 15 15 16 17 19 20 20 21 21 22 23 23 23 23 23 23 24 24 23 24 25 27 29
24 24 23 22 20 18 17 14 13 11 10 9 8 9 10 10 11 12 14 16 17 18 19 20 21 22 22 23 23 23 23 23 23 21 21 23 23 23 24 24 25 27 29
20 19 18 17 17 15 13 13 12 11 9 9 11 11 11 13 14 16 17 18 17 18 20 20 21 22 22 22 23 23 23 23 22 21 20 21 23 24 24 24 26 27 27
16 15 16 15 14 13 13 13 11 8 9 11 11 11 14 16 16 17 18 19 19 19 20 20 20 21 21 21 22 22 23 23 22 22 21 22 24 25 25 25 25 26 26
13 14 13 13 13 14 12 10 9 10 11 11 11 13 15 16 17 19 19 20 20 20 20 20 20 20 20 20 21 22 23 23 23 23 23 23 26 25 24 25 25 25 25

GFSMA_700_spd_063.txt.gz
Wind_Speed
18 18 18 18 18 18 19 19 19 19 20 20 21 21 21 22 23 24 24 23 24 25 25 26 26 25 25 25 24 24 24 23 22 21 20 19 18 17 16 16 15 15 14
17 18 18 19 20 21 21 21 21 22 22 22 21 22 22 23 23 25 25 23 23 25 26 27 29 28 28 28 27 27 27 26 26 24 23 22 21 20 19 18 17 17 16
17 18 18 19 21 21 22 22 23 22 22 23 23 24 26 26 26 26 25 25 27 27 29 29 30 30 29 29 28 27 26 25 25 25 24 23 23 22 21 21 20 19 18
19 19 20 20 21 21 21 22 22 23 24 25 26 28 29 29 28 29 29 30 31 33 31 30 32 32 31 30 30 30 28 26 25 25 25 24 24 23 23 23 23 23 22
22 23 23 24 24 23 23 23 24 26 27 28 30 31 32 32 32 33 33 33 34 33 34 36 34 34 34 32 31 31 32 32 29 25 26 26 25 25 24 24 25 25 25
26 26 27 27 27 27 27 27 28 29 30 31 32 34 34 35 36 36 35 34 35 38 35 33 35 34 34 35 33 32 32 33 32 29 26 26 28 27 27 27 27 27 27
29 30 30 29 29 29 29 30 32 32 33 33 35 35 37 37 37 36 38 36 34 32 31 33 32 32 33 32 32 32 32 32 32 33 33 31 30 30 28 29 29 28 26
31 31 31 30 31 32 31 32 34 35 36 35 37 37 39 37 37 40 36 30 30 31 30 29 31 32 33 34 33 32 33 33 32 33 32 32 31 32 32 31 31 30 30
31 32 32 33 33 35 35 35 36 38 38 38 38 39 40 40 40 39 38 31 29 31 31 31 31 30 30 30 31 31 30 32 33 31 31 32 31 34 35 35 31 32 31
33 33 34 34 35 36 37 38 38 39 39 40 39 37 38 38 37 39 36 31 31 30 31 29 28 27 25 27 29 31 32 33 33 34 33 29 32 29 34 34 33 34 29
34 35 35 37 38 39 39 39 37 37 36 37 36 36 34 35 34 36 39 34 31 31 28 26 26 29 30 31 32 32 33 34 34 34 33 32 30 33 32 33 31 32 43
35 36 37 39 39 39 38 37 36 35 35 35 35 35 36 35 34 36 35 33 34 32 31 27 29 32 32 32 31 32 32 33 33 31 29 29 29 32 28 30 29 37 37
36 36 37 39 39 38 36 36 35 34 34 34 34 35 35 36 36 35 34 35 35 34 29 32 32 31 30 29 28 28 27 28 28 27 26 25 26 28 26 28 30 35 36
40 39 39 38 37 36 35 34 34 34 34 34 35 34 34 34 33 33 33 34 33 29 31 35 30 26 25 25 24 26 25 23 25 24 23 22 22 23 25 27 31 33 32
42 42 40 38 36 36 35 35 34 33 33 32 32 31 30 29 28 28 27 30 30 29 34 30 25 22 22 21 22 24 21 21 23 22 19 20 19 20 19 21 27 32 34
40 40 39 38 36 35 35 34 33 31 31 29 29 27 26 26 26 27 26 29 28 28 28 24 22 21 21 21 20 22 23 23 22 20 17 15 18 16 17 20 23 26 28
37 37 37 37 36 34 33 33 31 29 28 27 27 26 26 26 26 25 25 24 23 23 24 23 23 22 21 20 19 19 18 16 15 15 14 16 18 21 19 19 20 21 23
36 36 36 36 35 33 32 32 29 28 27 27 27 26 26 24 22 21 21 20 20 22 24 26 24 21 19 16 11 11 12 15 16 16 16 17 18 19 19 18 18 18 18
36 36 36 35 34 33 32 31 29 28 27 27 26 23 22 21 20 20 19 18 18 18 18 18 16 15 12 12 14 15 17 18 18 18 18 19 20 20 20 19 19 19 20
35 36 37 36 34 33 31 31 29 28 26 25 22 20 19 19 19 18 15 11 9 10 10 9 8 11 13 15 17 18 19 20 20 21 21 22 23 23 22 21 21 21 21
35 35 35 35 34 31 29 28 27 26 23 21 19 19 17 15 12 9 9 11 12 13 14 14 15 15 17 18 19 20 21 22 22 23 23 23 24 23 22 23 22 23 23
35 35 34 33 31 28 27 25 23 22 21 18 17 14 11 10 10 10 11 14 14 16 17 18 19 20 21 20 21 22 22 23 23 22 23 24 23 23 22 22 22 23 23
33 33 33 30 27 25 24 23 20 19 18 16 14 12 11 11 11 12 14 15 18 19 19 20 21 23 24 22 22 22 22 22 22 22 23 24 23 22 22 22 23 24 25
30 29 29 25 23 22 20 20 18 17 16 15 13 12 11 11 12 14 16 17 18 19 21 21 21 23 23 23 23 23 22 22 22 22 22 22 22 22 23 23 24 25 26
28 26 25 21 19 19 18 18 17 15 14 14 13 12 12 13 14 15 16 18 19 20 21 22 22 23 23 23 22 22 22 22 22 21 22 22 22 23 23 24 25 26 27
23 21 20 18 18 17 17 16 16 15 14 13 13 12 13 14 15 16 16 17 19 19 19 20 21 22 22 22 22 22 21 21 21 21 22 22 23 23 24 25 26 27 28

GFSMA_700_spd_066.txt.gz
Wind_Speed
15 14 14 15 15 15 16 17 18 18 18 19 20 20 20 20 20 21 21 21 22 22 22 24 24 24 25 24 25 25 24 24 23 22 21 21 19 18 17 17 16 15 14
14 14 14 15 16 17 18 19 19 20 21 21 20 20 20 21 22 23 23 23 23 24 26 27 29 28 26 25 25 24 23 23 23 21 20 20 19 19 18 17 17 17 16
14 13 14 15 16 17 18 19 20 20 20 20 21 22 23 24 25 26 26 26 26 26 28 30 29 30 30 29 28 26 24 23 22 22 21 20 19 19 19 18 18 17 17
14 14 16 17 19 19 19 20 21 21 21 22 23 25 27 28 27 27 28 29 31 30 29 29 32 33 32 31 30 29 27 25 24 22 22 22 20 20 20 20 19 19 18
16 17 19 20 22 23 23 23 23 24 25 25 27 27 28 29 30 31 31 32 31 32 35 33 32 31 29 30 30 29 28 28 27 25 22 21 21 21 21 21 20 20 20
19 21 23 24 25 26 26 26 26 27 27 29 30 31 31 31 33 33 32 32 32 32 32 32 30 29 28 27 28 28 28 26 26 27 25 24 24 24 23 22 22 21 22
22 24 25 27 27 27 27 28 29 30 30 30 33 33 32 33 34 34 33 33 31 29 28 29 28 29 29 27 27 29 28 27 25 25 27 28 25 25 25 23 24 23 23
25 26 26 27 28 29 29 29 31 32 33 34 36 37 39 38 34 35 35 33 32 30 32 27 27 28 28 28 29 27 27 27 26 24 26 26 27 26 26 26 26 26 24
25 28 28 29 31 32 32 32 33 34 36 37 37 38 38 41 38 37 36 34 31 30 31 30 28 29 27 24 24 25 24 24 25 25 26 28 27 28 28 27 32 29 28
30 30 30 31 32 33 34 35 36 38 39 39 37 36 36 38 38 39 33 32 33 31 31 30 29 29 23 24 26 27 28 28 28 29 29 29 28 30 27 30 30 31 30
31 31 31 32 33 34 36 37 37 38 38 38 36 35 34 35 35 37 39 33 33 34 30 31 31 30 26 27 29 29 30 30 29 28 28 28 28 29 27 24 27 28 28
32 32 32 32 33 35 35 36 36 36 36 36 35 35 35 35 35 35 36 35 33 33 33 28 32 28 26 29 32 30 27 27 26 26 25 24 25 25 20 21 25 27 27
33 32 31 34 35 36 36 37 36 35 35 34 35 34 35 35 36 36 34 34 31 29 28 34 29 29 26 29 29 26 25 25 24 25 23 22 22 22 20 21 23 27 28
34 33 34 37 39 38 38 38 37 35 35 34 33 34 34 33 33 33 32 31 28 25 29 20 31 25 27 25 25 24 22 24 24 21 19 20 19 19 17 18 20 22 25
36 38 40 41 41 40 38 38 36 36 35 33 32 32 32 31 29 28 27 27 25 22 24 31 26 24 23 22 24 24 23 23 22 20 21 20 19 17 16 16 17 19 20
40 42 43 42 40 39 38 37 36 34 35 33 32 30 29 28 26 25 25 25 20 24 30 28 24 21 22 21 22 24 24 24 23 22 19 17 15 14 15 15 18 19 19
43 43 42 40 39 38 38 38 35 34 33 32 30 29 28 27 25 25 25 24 23 23 24 23 22 23 22 23 21 21 20 17 13 12 13 13 13 14 15 17 17 17 17
42 40 39 39 39 38 37 37 36 35 33 32 30 28 27 27 26 25 23 21 20 20 21 21 22 23 21 19 18 15 13 14 15 14 14 15 16 16 16 17 17 17 17
36 36 36 35 36 37 38 37 36 34 33 31 28 28 28 25 23 21 20 20 19 19 18 14 13 14 13 13 11 14 16 16 17 17 16 17 18 18 18 19 19 19 18
33 34 33 34 35 36 36 36 36 34 32 30 27 26 26 22 20 19 18 17 15 11 11 11 11 11 12 14 15 18 18 19 20 19 19 19 20 20 20 20 20 19 19
31 33 34 34 35 36 34 33 34 32 30 28 26 22 20 19 19 16 12 10 10 11 13 13 14 15 16 16 19 20 19 20 22 23 22 21 20 20 20 20 20 21 20
32 33 34 35 35 35 33 31 30 29 26 25 23 20 18 16 13 12 11 11 12 13 14 16 16 17 18 18 20 21 20 21 22 22 22 21 20 21 20 19 19 19 20
31 31 33 34 34 33 30 29 27 24 23 21 19 17 14 13 13 12 12 13 13 15 17 17 17 19 19 20 20 19 20 20 21 21 21 21 21 21 20 19 20 20 21
30 30 32 32 31 29 27 25 24 20 19 18 17 16 15 13 13 14 15 15 15 16 17 18 18 19 20 20 20 20 19 20 20 21 20 20 20 20 20 20 20 21 22
30 29 29 28 26 25 23 21 19 18 19 17 16 16 15 15 14 16 16 15 15 16 18 19 18 18 20 20 19 19 20 20 20 20 21 19 19 19 18 19 21 22 23
28 26 26 23 19 19 18 19 18 17 17 16 16 16 15 15 15 15 15 15 15 17 18 18 17 19 20 20 19 20 19 19 20 19 20 19 19 19 19 21 22 23 24

GFSMA_700_spd_069.txt.gz
Wind_Speed
12 10 9 9 9 10 11 12 14 14 15 16 17 17 17 16 17 18 18 19 20 20 21 21 22 23 22 21 21 20 20 19 18 17 16 15 15 14 14 14 14 13 13
15 13 11 11 10 10 11 12 14 15 16 16 16 16 16 17 18 20 21 22 22 23 24 25 26 26 25 26 24 21 19 19 19 18 17 16 16 15 14 14 14 14 14
16 14 12 12 12 13 14 14 15 16 16 17 17 18 19 21 21 22 22 23 23 24 25 25 25 27 29 28 24 22 21 19 19 20 18 18 17 16 14 14 14 14 14
16 14 14 13 14 15 16 17 18 19 20 20 20 22 23 23 25 24 22 24 27 26 26 28 26 26 26 25 22 19 19 22 20 20 19 18 17 16 15 14 14 15 15
17 15 15 16 17 18 18 19 20 20 21 22 23 24 25 26 28 28 27 29 27 29 29 29 28 25 25 25 24 21 18 19 22 23 21 20 18 18 18 17 17 16 16
18 17 17 18 19 21 21 21 21 23 24 25 25 27 28 28 29 28 27 28 30 29 29 29 27 27 25 24 23 23 21 18 19 22 23 22 21 20 21 19 18 18 17
19 19 19 20 21 22 22 23 24 26 27 28 30 30 30 31 33 31 29 29 31 31 28 28 28 27 25 25 24 24 23 20 20 20 22 24 24 22 20 20 19 19 20
20 20 21 21 22 23 24 25 27 28 29 29 33 35 36 34 34 34 28 27 29 30 29 28 28 29 28 27 25 21 20 19 19 18 20 22 24 23 23 23 23 23 21
22 22 22 23 24 25 26 27 29 30 32 31 33 36 39 38 36 35 33 30 29 28 30 31 30 31 29 29 25 22 19 21 21 22 23 23 24 26 27 25 24 28 19
24 24 23 24 24 26 28 30 31 32 34 34 34 34 36 37 37 38 32 30 30 30 31 32 31 32 29 28 27 27 27 27 25 24 23 24 25 27 27 29 28 28 27
26 25 25 26 27 29 30 31 32 33 34 36 36 34 34 34 34 36 38 30 30 32 32 34 31 29 32 29 31 24 28 28 26 24 23 23 23 23 24 25 27 27 24
25 26 28 29 31 31 31 32 33 34 35 36 35 35 34 33 32 34 36 36 33 31 34 34 30 26 27 29 24 22 25 25 23 22 20 20 20 20 20 20 23 26 28
29 30 31 31 33 33 33 35 37 37 38 37 36 34 33 33 33 34 34 34 34 32 30 30 23 29 30 24 25 23 22 23 22 20 21 20 17 18 18 18 18 19 22
39 44 37 36 34 37 37 38 39 39 39 39 37 36 34 34 34 34 32 31 31 28 25 24 29 31 23 29 24 21 22 21 22 21 21 19 18 18 17 16 16 16 18
41 40 39 38 37 41 41 41 40 39 39 38 38 36 35 34 32 31 30 29 28 25 22 24 22 25 26 25 23 21 22 21 21 21 20 20 20 19 17 15 15 15 15
39 34 35 39 42 43 44 43 39 38 38 37 36 35 34 33 31 30 28 27 25 24 25 22 30 23 26 23 22 23 22 23 21 20 17 15 15 15 13 13 15 16 17
33 32 37 43 44 45 41 39 37 37 37 36 35 33 33 31 30 28 26 25 24 21 22 24 26 25 24 23 22 22 21 18 16 12 11 13 12 13 14 14 14 16 16
40 42 43 43 43 40 38 36 35 35 35 34 33 32 31 30 28 27 26 25 23 21 21 22 21 23 23 21 17 16 16 13 15 13 14 15 15 16 16 15 15 16 17
40 41 42 41 37 36 35 35 35 34 34 34 33 31 30 28 27 26 25 23 21 20 20 19 19 16 14 12 10 9 10 13 16 16 16 17 17 17 18 18 19 19 19
38 37 35 34 35 34 34 34 35 35 35 33 32 30 29 28 27 25 23 21 20 20 18 15 13 12 11 12 13 14 14 16 16 17 17 19 18 18 19 20 20 20 19
32 32 32 33 33 33 33 34 35 34 34 32 30 27 26 25 25 22 20 19 17 14 13 13 13 13 13 16 16 17 17 18 18 18 19 18 18 18 18 19 20 19 18
29 31 32 32 32 32 33 33 33 33 32 30 29 24 23 22 20 19 17 15 13 14 14 14 14 16 16 18 19 17 19 18 18 18 19 17 17 16 17 18 18 18 17
27 29 30 31 31 31 32 32 32 31 29 26 25 23 22 19 18 17 16 15 14 14 14 16 16 16 17 18 18 18 18 17 17 17 18 16 17 17 17 17 17 17 17
27 28 29 30 30 31 30 30 29 27 25 24 23 21 21 17 17 16 16 15 15 15 16 16 16 17 17 17 17 18 17 16 16 17 17 17 17 17 17 17 17 18 18
26 28 29 29 29 29 27 26 24 23 21 19 18 18 17 16 17 15 15 16 16 16 15 15 16 16 16 16 17 18 17 17 16 18 17 17 17 18 17 18 17 18 19
28 28 28 27 25 24 22 21 19 18 16 15 15 16 16 16 16 14 15 17 15 15 15 15 15 16 16 17 18 18 18 17 17 18 18 17 17 18 18 20 20 20 22

GFSMA_700_spd_072.txt.gz
Wind_Speed
10 11 9 9 8 8 8 9 10 11 13 14 15 15 14 14 15 15 17 18 18 19 20 21 21 21 20 19 19 20 19 18 16 15 14 13 12 12 12 11 11 11 11
13 13 11 11 10 8 8 9 10 11 13 13 13 13 14 15 16 17 18 20 20 19 21 22 22 22 23 22 22 19 17 17 17 16 16 15 14 14 12 11 11 11 11
17 15 13 13 12 10 10 10 12 13 14 14 15 16 16 17 18 19 20 21 21 21 23 22 24 22 24 23 19 17 17 17 17 18 16 16 15 14 13 11 11 11 12
19 18 16 16 14 12 12 13 14 15 15 16 16 17 18 20 21 22 23 23 23 23 22 24 26 25 24 21 19 16 16 18 20 19 19 17 16 15 14 13 12 13 13
22 20 18 18 16 15 15 16 16 17 18 19 19 20 21 22 24 25 25 26 27 27 25 27 27 27 26 23 20 17 15 15 19 21 22 21 18 16 16 15 16 16 15
23 22 21 20 18 17 18 19 18 19 20 21 23 24 23 24 25 26 27 28 30 30 28 27 26 25 26 25 23 21 19 17 18 19 21 23 21 19 19 19 18 16 17
25 23 22 20 19 20 20 20 20 21 22 24 27 27 26 27 29 28 29 24 27 29 28 25 24 24 25 24 23 23 22 20 18 18 18 21 24 23 22 21 19 18 17
25 24 22 20 21 21 21 22 23 24 25 26 29 32 32 30 30 29 31 29 24 26 28 26 25 26 25 25 26 24 22 18 16 16 20 22 24 23 20 20 20 19 20
25 23 22 23 22 22 22 24 25 26 27 27 29 33 36 36 34 34 31 29 30 29 29 29 27 28 28 28 27 26 24 22 22 20 20 24 25 26 27 25 22 19 24
24 24 24 24 24 24 24 24 26 27 30 29 30 31 35 38 36 38 33 29 30 30 31 31 31 28 29 30 28 28 27 28 26 24 23 23 24 25 28 29 31 29 26
30 27 26 23 23 24 25 26 27 28 30 32 33 33 35 36 36 37 37 31 31 32 33 33 32 29 31 29 26 26 29 22 22 24 21 20 20 21 23 25 27 29 29
26 24 22 21 22 24 24 27 31 32 33 35 36 37 37 37 36 36 37 36 33 31 34 35 33 30 30 30 26 29 22 24 22 20 19 18 17 19 18 20 22 23 26
28 27 25 25 28 30 39 47 35 37 37 38 40 40 39 38 37 36 37 36 37 34 32 33 30 26 27 21 26 29 25 23 20 20 19 18 18 16 15 17 18 19 21
24 19 18 21 27 33 41 39 33 40 39 41 41 40 38 37 37 37 36 35 35 33 33 32 29 25 20 27 30 23 23 22 21 20 19 18 18 16 16 16 16 16 17
26 27 36 35 41 37 33 35 38 40 41 41 40 38 36 35 35 35 35 33 32 33 30 31 26 24 25 24 25 27 23 20 22 20 19 18 17 17 19 16 15 14 14
30 30 35 32 35 34 33 31 33 44 42 40 39 36 35 34 33 33 32 31 30 29 29 29 27 27 20 28 23 25 23 23 21 20 15 13 10 10 12 11 11 12 14
39 37 40 38 36 37 38 42 45 46 42 38 36 35 35 34 32 31 30 30 29 27 28 28 29 22 23 26 23 23 24 23 19 16 11 10 10 10 10 10 10 12 14
39 39 40 43 42 42 42 45 46 42 39 37 35 34 34 34 31 31 30 29 28 28 28 28 25 24 23 21 22 21 19 17 16 14 13 13 12 13 13 12 13 13 13
39 41 38 37 39 42 44 43 41 38 37 35 35 34 33 33 31 30 29 29 28 27 26 25 23 22 21 18 16 13 11 11 13 14 14 15 15 16 16 15 16 16 16
34 35 35 38 39 39 38 38 37 36 36 36 34 34 33 33 31 30 29 28 27 25 24 23 22 21 17 15 14 14 14 16 16 16 16 16 17 18 18 17 19 18 18
31 32 33 34 34 34 34 35 35 35 35 35 35 34 32 31 29 29 28 26 24 23 23 22 19 17 17 17 17 17 17 18 17 18 17 18 18 19 19 17 18 18 18
27 28 29 30 31 32 32 32 33 34 34 34 34 33 31 28 26 26 25 23 21 19 17 16 16 16 17 18 18 19 19 19 19 18 18 18 18 18 18 17 18 18 18
23 24 26 27 28 29 30 31 32 34 35 34 32 30 28 26 24 22 21 22 18 16 16 16 17 18 18 19 19 18 20 20 19 19 18 18 18 18 17 18 18 18 18
22 23 25 26 28 30 31 31 33 33 33 32 29 25 24 23 22 20 18 19 16 17 16 16 17 17 18 18 18 18 19 19 18 18 18 18 18 18 18 18 18 18 18
24 25 25 27 29 30 30 30 30 29 28 27 23 20 19 19 18 17 17 17 15 16 16 16 16 17 17 17 16 16 17 17 17 17 18 18 18 18 18 18 18 19 19
26 25 26 27 28 29 28 27 24 22 22 21 19 16 15 16 16 15 15 16 15 16 16 16 16 16 16 15 15 16 17 16 16 18 19 19 19 18 19 19 19 21 21

GFSMA_700_spd_075.txt.gz
Wind_Speed
10 9 9 10 9 9 8 8 8 9 10 11 12 13 13 14 14 15 16 17 19 19 19 18 19 19 18 19 19 20 21 18 16 14 14 14 13 12 11 11 10 10 10
14 13 12 12 12 12 10 9 9 10 11 11 12 13 13 14 15 16 18 19 21 21 21 22 22 19 20 21 20 16 17 16 16 15 15 15 14 14 13 12 11 10 10
17 17 16 15 15 14 12 11 11 12 12 13 13 14 14 15 16 18 19 20 21 21 22 22 22 22 21 23 20 18 17 18 18 17 17 15 15 15 14 13 12 11 12
20 20 20 19 18 16 14 14 13 14 15 15 15 16 16 17 18 20 21 22 22 23 23 24 25 26 23 21 18 17 15 17 19 19 20 19 17 16 16 14 13 13 12
24 24 23 22 21 19 17 16 16 16 16 17 17 18 18 19 20 21 23 25 26 26 26 24 24 25 26 23 19 17 16 17 19 21 20 22 20 18 17 16 16 16 16
25 25 25 24 23 21 19 17 18 18 18 19 20 20 21 21 23 23 24 27 27 27 27 25 24 25 26 25 22 19 16 17 18 20 22 20 22 21 20 19 18 18 17
24 26 26 27 24 22 21 20 20 20 20 22 23 24 23 24 25 26 27 27 28 25 26 25 24 26 26 24 22 22 20 18 20 20 21 21 21 21 20 20 21 20 18
28 28 28 25 24 23 22 21 21 21 21 23 26 27 29 26 26 27 27 27 27 28 26 25 26 26 25 26 25 24 22 19 20 20 20 21 24 26 27 22 19 18 19
28 27 26 24 24 23 22 21 21 22 22 23 26 29 32 32 31 30 30 30 29 29 30 29 27 26 27 27 28 26 24 23 22 23 24 24 25 26 28 28 28 21 25
23 24 24 24 24 23 21 20 20 21 23 24 25 28 32 36 36 36 32 32 32 31 31 31 30 30 29 29 29 27 25 22 23 24 23 24 24 25 28 30 30 30 30
22 20 22 24 26 26 21 18 20 20 22 26 30 31 33 36 37 39 39 33 33 32 34 34 33 31 30 31 30 28 26 27 20 21 21 21 20 20 23 24 26 27 31
25 25 23 25 34 32 23 18 22 28 32 36 41 37 37 38 38 38 39 38 34 32 33 34 34 32 30 29 29 26 20 28 25 21 21 18 17 18 19 20 22 23 25
36 28 25 26 29 29 20 24 29 36 36 39 35 35 38 39 40 38 38 37 38 34 32 33 33 32 29 26 26 27 28 26 20 22 19 18 16 17 17 18 18 18 20
32 37 21 20 25 23 19 27 32 34 35 31 33 35 38 40 39 37 36 36 36 35 35 33 30 30 28 25 24 21 29 27 17 21 19 18 17 18 18 17 17 17 17
28 27 25 19 19 24 23 28 28 28 28 30 34 40 42 40 38 36 36 35 34 35 33 33 30 28 27 22 23 27 24 25 20 20 21 20 19 19 19 17 18 16 15
28 29 27 30 36 28 28 30 30 28 31 36 42 44 41 37 37 36 35 35 34 33 33 33 29 27 26 24 25 22 28 23 21 20 21 18 15 13 12 13 13 12 12
33 32 32 34 38 38 34 36 37 39 40 41 43 41 38 36 35 35 34 34 32 32 32 32 30 27 28 28 22 20 24 24 22 20 18 14 11 11 11 11 10 10 12
35 36 37 39 40 36 38 42 43 40 40 43 43 40 37 36 35 34 33 32 31 31 30 30 30 26 27 26 25 23 23 23 20 17 15 14 13 12 14 14 12 12 13
39 41 42 40 36 36 40 38 39 40 42 41 39 38 37 36 35 35 34 32 30 30 30 30 30 27 27 24 22 22 20 18 15 12 13 14 14 15 17 15 14 14 15
38 38 36 34 35 36 37 38 38 37 37 37 36 37 36 36 35 35 34 32 30 29 29 29 28 27 25 22 22 19 15 15 14 14 15 16 17 18 19 18 17 17 18
33 33 32 32 32 34 34 34 33 34 35 35 35 36 36 35 35 34 33 31 30 28 27 27 26 25 23 21 18 16 17 17 17 17 17 18 19 20 20 19 18 18 18
27 27 28 28 28 28 29 30 30 31 32 33 33 34 35 36 35 33 30 28 27 27 25 23 23 22 18 17 16 17 18 18 18 19 18 19 20 20 20 19 18 18 18
24 24 24 24 24 25 26 28 29 30 32 33 34 35 35 34 32 30 27 25 24 22 22 18 17 16 16 16 17 18 19 19 19 19 19 18 19 19 19 18 17 18 18
24 23 23 23 23 24 25 27 29 30 31 32 33 32 31 29 27 24 22 20 19 17 17 16 16 15 15 17 18 19 18 19 18 19 18 18 18 19 18 18 18 18 19
25 25 24 25 25 26 27 27 28 30 30 28 26 27 25 23 21 20 18 16 15 14 14 14 15 16 15 18 17 17 17 18 19 19 18 18 18 18 18 18 19 19 19
28 27 27 27 27 27 28 29 28 28 27 26 28 27 22 19 16 15 12 13 13 13 14 13 20 19 17 18 17 18 18 19 19 19 18 18 18 18 18 19 20 20 21

GFSMA_700_spd_078.txt.gz
Wind_Speed
13 11 10 9 9 9 8 8 8 9 9 10 10 11 11 11 12 13 14 15 17 18 19 19 18 19 17 19 19 20 19 17 14 13 13 12 12 11 11 10 11 11 10
15 14 13 13 12 12 11 10 9 9 10 10 11 11 12 13 13 14 16 17 18 20 20 20 21 19 18 18 20 19 17 17 16 15 15 14 12 12 12 11 11 11 11
18 17 17 16 16 15 14 12 11 10 11 12 12 13 13 13 15 15 17 18 19 20 20 21 22 22 22 19 18 15 17 16 17 18 18 17 14 14 13 12 12 12 11
22 21 21 19 19 19 17 15 14 12 13 13 14 14 14 15 16 18 19 20 21 22 23 22 21 23 22 21 16 18 19 19 19 19 19 18 17 16 15 14 14 13 13
24 25 24 23 23 22 21 19 17 15 16 16 15 16 16 17 17 18 20 22 23 24 24 24 22 22 23 22 22 20 19 19 21 20 18 18 21 20 17 16 15 16 15
28 29 28 26 26 25 24 22 20 19 18 18 17 17 17 18 18 19 20 22 24 24 23 24 24 22 23 24 22 21 20 20 21 20 19 19 20 21 20 18 17 17 18
29 30 29 28 28 26 25 25 23 21 19 19 19 18 18 19 20 20 21 23 25 25 24 23 23 25 24 25 23 21 20 21 22 22 21 20 20 21 21 19 17 18 19
29 27 27 27 26 25 26 26 23 21 19 18 19 21 20 19 20 21 22 23 25 25 26 25 24 24 25 25 25 24 22 22 21 22 22 22 21 21 24 26 25 22 19
29 28 28 25 25 26 27 24 22 20 18 15 17 20 23 23 25 24 27 28 30 29 28 27 27 25 25 26 26 26 26 24 23 23 22 24 26 27 27 27 26 24 24
27 25 25 26 25 26 25 24 24 21 18 14 15 17 24 29 33 35 31 31 32 32 31 29 29 28 27 27 28 28 27 26 25 25 25 22 19 23 28 30 29 28 28
30 28 25 22 25 25 25 24 27 25 22 15 18 26 30 32 32 36 36 31 34 33 32 32 31 30 29 28 29 29 29 25 24 23 25 21 21 21 21 23 23 25 25
29 22 30 26 29 24 26 23 34 38 35 32 26 32 33 33 33 34 38 36 33 32 32 33 32 31 30 29 28 28 26 23 23 27 26 20 19 18 19 19 20 21 22
28 26 23 30 31 29 23 16 17 21 27 25 30 35 30 29 31 33 38 39 38 34 32 32 32 32 31 30 28 26 25 24 22 28 21 19 16 17 18 19 19 20 21
27 28 26 28 31 34 35 23 21 21 22 24 26 24 26 29 34 36 38 39 38 37 36 33 32 31 30 30 23 27 24 27 24 25 21 19 17 18 19 19 20 20 19
27 28 26 24 26 24 17 22 19 22 24 26 26 28 31 34 37 37 35 35 36 38 37 35 34 31 29 26 29 27 25 22 30 22 21 21 19 19 20 19 19 18 18
26 27 24 21 23 25 22 23 25 29 29 30 32 34 37 36 36 35 33 33 34 35 36 35 33 31 29 25 24 25 26 25 28 25 25 22 20 19 17 14 13 15 17
25 23 25 27 27 28 31 33 33 36 36 35 38 39 38 39 38 35 32 32 33 34 34 34 33 30 28 25 24 25 26 26 21 26 26 22 19 17 15 13 10 10 11
31 30 31 32 31 30 36 37 37 37 36 38 39 38 39 37 35 35 34 33 32 33 33 33 33 31 27 26 24 24 25 25 26 23 22 19 17 15 14 14 12 11 12
33 34 35 35 35 36 38 40 36 35 37 36 37 37 36 35 33 33 33 34 33 32 32 32 32 30 29 28 25 26 23 23 22 19 16 14 15 15 15 14 14 13 14
35 37 39 40 40 40 38 36 35 35 35 35 34 34 33 33 33 33 34 33 33 33 32 32 31 30 28 27 24 23 21 21 17 13 13 13 14 16 15 16 16 16 17
34 35 35 35 35 34 34 33 32 31 31 31 31 31 32 32 32 32 33 33 33 32 32 31 30 28 27 25 23 21 20 17 16 15 15 15 17 17 17 17 17 17 18
31 31 31 31 31 30 30 29 28 27 28 29 29 30 31 32 33 33 33 32 32 30 29 28 26 24 23 24 23 17 17 16 16 17 18 17 18 18 18 18 17 17 17
27 27 27 27 26 26 25 25 25 25 25 26 29 30 31 32 33 33 32 30 28 27 25 23 22 21 17 13 16 15 16 17 18 17 18 18 19 18 18 17 16 17 17
25 25 25 25 23 24 23 24 24 26 27 28 28 29 29 28 26 28 28 26 24 22 20 18 16 14 15 11 16 17 17 17 18 17 18 18 18 17 17 16 16 17 17
28 27 27 25 25 25 25 25 25 27 28 28 28 27 26 27 28 26 23 21 19 17 14 13 13 13 13 12 15 17 17 16 17 17 16 16 17 17 17 16 16 17 18
31 30 29 28 27 27 27 27 26 27 27 28 28 28 28 29 25 22 19 16 13 11 10 9 13 10 11 17 16 15 15 14 17 17 16 16 17 17 17 16 17 17 18

GFSMA_700_spd_081.txt.gz
Wind_Speed
19 17 15 13 11 10 9 9 8 7 7 7 7 7 7 8 9 10 11 12 13 14 15 16 16 16 18 17 17 19 19 16 15 13 12 12 10 10 9 9 10 10 11
19 17 15 14 13 13 12 12 10 8 8 8 8 8 9 8 9 11 12 14 16 16 17 18 19 18 18 15 17 18 17 16 15 14 13 13 12 12 11 10 10 11 11
20 18 17 16 16 15 14 14 13 11 9 9 10 10 10 10 11 12 13 15 16 17 18 19 19 20 20 18 14 15 17 14 18 16 17 17 16 14 13 12 11 12 12
22 21 20 20 20 19 18 18 17 15 13 12 12 12 12 12 13 14 14 16 17 19 21 21 20 21 20 20 18 18 19 21 20 20 19 17 17 16 15 14 13 14 13
26 25 25 24 24 22 22 23 21 19 17 16 15 14 13 13 14 14 16 17 18 19 19 21 21 21 21 19 18 19 21 21 19 20 19 19 19 19 17 16 16 15 15
27 27 27 28 27 26 26 26 25 23 21 19 17 17 14 14 13 14 15 17 19 20 20 20 20 21 21 21 20 21 18 19 20 21 21 20 21 20 20 18 16 16 17
25 29 28 29 29 28 29 29 28 26 24 22 21 18 15 15 14 13 14 16 18 21 22 22 22 21 22 22 22 21 21 20 21 22 22 22 22 22 21 20 20 17 17
28 27 29 28 31 30 29 30 30 28 27 25 22 21 18 14 13 14 15 18 21 23 24 24 24 24 23 23 23 23 23 23 22 22 23 23 23 24 24 22 23 24 23
37 32 26 26 24 24 25 27 28 28 27 25 21 20 19 18 20 18 19 24 28 28 27 27 26 26 26 25 24 25 24 25 23 23 24 23 22 24 27 27 26 25 27
31 27 24 24 26 28 28 27 25 25 26 25 22 19 17 18 23 26 24 28 29 29 30 30 28 27 27 28 26 27 27 26 25 25 25 24 25 23 23 23 28 30 28
24 21 23 25 27 24 27 27 29 29 26 22 27 25 21 24 30 34 33 30 30 29 30 32 31 29 29 28 28 28 29 28 27 25 26 25 22 25 22 22 23 25 26
14 16 18 25 28 37 33 24 28 31 33 28 30 37 36 35 35 33 32 28 28 28 30 31 31 30 29 29 29 30 31 30 27 28 25 18 28 24 22 20 20 21 22
21 25 28 24 34 28 32 22 22 21 24 25 29 25 30 32 33 30 29 32 33 30 30 29 29 30 29 29 29 30 31 31 26 25 22 28 28 22 20 20 21 21 21
25 25 29 29 36 18 17 22 23 23 24 17 16 19 20 22 26 28 31 34 36 34 29 28 27 27 27 28 28 29 30 27 26 24 27 26 19 23 21 22 20 22 21
27 27 27 26 24 17 18 15 16 15 16 18 19 22 23 25 27 31 34 34 34 34 31 29 28 28 26 26 27 28 28 28 26 24 23 30 23 23 23 22 20 21 22
26 25 24 23 21 14 14 17 16 16 19 23 26 26 27 30 32 34 34 35 34 32 32 31 31 30 30 27 27 27 25 26 25 25 27 29 26 25 23 22 19 18 19
28 26 23 21 20 20 20 20 23 24 27 27 30 32 31 33 35 34 35 34 32 31 31 31 31 31 30 30 28 26 24 26 23 26 27 24 29 26 22 19 16 15 14
27 27 27 27 26 26 26 27 27 28 31 32 33 32 32 35 35 35 34 32 31 30 30 30 30 31 31 30 28 25 23 22 26 26 25 28 25 22 19 17 16 14 13
28 29 30 31 31 33 33 33 33 33 34 35 33 32 33 34 34 32 32 31 31 31 31 31 30 30 30 30 28 26 25 26 25 23 21 21 18 17 15 16 15 15 14
28 29 30 32 34 35 36 36 36 37 37 33 32 33 33 32 31 30 30 30 31 31 31 31 31 30 29 28 27 26 25 24 22 21 18 16 14 13 14 16 16 16 16
31 33 32 33 35 36 37 38 37 34 33 32 31 30 30 29 28 29 30 31 32 32 32 32 32 30 29 27 26 24 23 22 21 19 17 17 16 16 16 17 17 18 18
30 32 34 35 35 35 35 34 32 31 30 28 27 28 27 27 29 30 32 33 33 33 32 31 30 29 26 24 23 22 20 20 17 16 17 17 16 17 17 18 18 18 18
29 30 31 32 31 32 31 29 27 26 25 25 25 26 26 28 29 30 31 30 29 29 28 27 25 24 22 20 18 16 14 13 12 15 17 16 17 18 18 18 18 18 18
28 28 28 28 28 27 27 25 24 25 25 25 25 25 26 26 27 27 27 29 29 27 23 21 19 18 16 14 13 12 12 12 13 16 17 16 17 18 17 17 17 17 17
29 28 28 27 27 26 26 25 25 25 26 25 25 25 26 26 26 28 28 28 26 23 19 16 14 13 11 10 10 11 10 14 13 15 14 14 14 16 16 15 16 16 16
30 31 30 28 28 29 28 27 27 27 27 26 25 25 27 27 27 28 27 24 20 17 13 11 9 8 9 9 10 8 9 12 11 10 12 16 15 14 14 15 15 15 15

GFSMA_700_spd_084.txt.gz
Wind_Speed
27 24 22 19 17 15 13 12 10 9 9 8 8 7 7 7 7 7 8 9 10 11 13 13 14 15 18 18 15 18 20 18 16 14 13 12 12 12 12 11 11 12 12
27 24 22 19 18 16 15 14 13 12 11 10 9 8 8 8 9 9 10 11 12 12 13 14 16 17 18 17 17 16 17 16 18 17 15 14 14 14 14 13 13 13 13
27 25 23 22 20 19 18 17 16 15 14 13 12 11 11 11 10 11 12 13 13 14 15 16 16 17 18 19 15 15 16 20 15 19 18 17 17 17 15 14 14 14 15
28 27 25 24 23 22 21 20 19 19 18 17 16 15 13 13 12 13 13 13 14 15 15 16 16 17 17 18 17 15 17 18 15 19 19 17 17 17 17 16 16 15 16
29 28 27 26 26 24 23 23 23 22 23 22 21 18 16 14 14 14 14 14 14 14 15 16 17 17 18 18 18 18 20 21 20 20 21 20 18 18 17 17 18 17 18
29 30 30 28 28 27 27 26 26 26 26 26 24 22 19 18 17 16 16 15 15 15 15 17 18 19 20 20 20 20 21 22 21 21 21 22 21 20 21 20 21 19 19
31 30 30 30 31 29 29 28 28 29 30 31 29 26 22 20 20 17 15 15 15 16 18 20 21 21 22 23 23 23 22 23 22 23 23 23 22 21 20 21 24 24 20
34 33 27 29 29 29 30 30 31 31 32 34 31 30 25 23 21 17 16 17 18 19 22 24 24 24 24 25 25 25 25 25 25 23 24 24 24 23 23 23 24 24 28
35 35 32 31 30 29 27 27 27 29 31 34 33 30 28 24 24 21 20 20 22 25 26 25 26 26 26 26 27 27 28 29 27 27 26 26 26 26 25 26 25 27 27
43 44 39 38 39 33 30 30 28 29 30 28 28 29 26 26 27 26 26 25 28 30 30 30 30 28 28 28 29 29 28 29 29 29 28 26 27 26 26 26 26 27 25
51 45 40 38 35 28 27 24 29 29 37 29 31 25 24 22 25 29 30 33 35 34 32 30 29 30 30 30 29 28 30 29 29 30 30 28 23 25 27 25 26 27 27
36 37 26 21 17 23 19 21 29 30 36 31 32 25 30 29 32 39 40 40 41 34 30 30 31 32 30 28 28 29 29 29 30 29 29 27 26 24 26 27 25 25 25
15 19 22 26 21 18 19 25 22 25 28 30 18 17 23 29 30 29 32 34 31 29 29 29 30 31 30 29 28 28 29 29 29 28 31 25 24 24 29 29 25 24 24
17 20 22 22 21 18 21 24 17 19 18 22 23 24 23 21 22 21 23 26 28 29 28 28 28 28 27 27 27 27 28 29 29 29 26 27 25 25 28 24 23 23 23
21 20 22 23 22 22 20 23 19 21 23 19 19 20 20 20 23 25 27 29 32 34 35 32 29 28 27 27 27 26 27 27 26 30 30 28 26 23 29 25 23 22 22
25 24 23 23 24 24 23 17 15 18 14 14 15 18 22 24 27 29 31 32 34 33 37 33 31 29 28 27 27 27 27 26 28 29 28 26 26 28 30 29 27 22 22
29 28 28 27 25 24 23 21 17 16 18 18 20 23 25 27 29 30 31 33 33 34 34 33 32 30 30 29 28 28 27 26 27 26 29 25 29 29 25 28 27 23 20
28 29 29 29 28 25 25 26 23 22 21 23 25 27 29 30 31 31 32 32 32 32 32 32 31 31 31 31 30 30 28 28 26 27 24 30 31 27 24 24 22 20 17
26 27 29 29 30 29 30 28 29 28 28 29 29 29 32 32 31 30 31 31 30 31 31 31 31 30 31 31 31 31 30 28 27 27 27 25 23 24 22 21 18 18 15
28 28 28 29 30 31 32 31 31 34 33 33 33 34 34 32 31 30 28 28 28 29 30 31 31 32 32 32 31 30 29 28 27 26 23 22 21 20 16 16 16 17 16
31 31 31 31 32 33 33 33 34 35 35 36 37 34 31 30 28 26 25 25 27 30 32 34 34 34 33 32 31 29 28 26 25 23 22 20 20 16 16 16 16 17 16
33 32 32 31 32 33 34 34 34 34 35 34 32 30 28 26 25 24 25 27 30 31 32 33 34 33 31 29 27 25 24 22 22 20 19 17 18 17 17 17 17 18 18
33 32 32 32 31 31 32 32 32 31 31 30 28 26 24 25 25 25 26 26 28 29 29 30 31 29 26 25 23 21 20 18 15 15 15 14 15 16 17 17 18 18 18
32 32 32 32 32 31 31 30 29 29 28 28 26 25 25 26 26 26 26 26 27 28 30 29 29 26 23 20 17 15 13 12 11 12 12 12 16 18 17 17 17 17 17
32 31 31 32 31 32 31 29 29 29 29 28 27 26 26 26 26 25 27 27 28 28 27 25 25 22 18 15 14 12 12 11 10 11 12 13 12 15 15 15 16 15 16
32 33 33 32 33 33 32 31 30 30 29 29 29 28 27 26 26 27 26 26 27 26 24 23 19 17 15 13 12 10 10 9 8 11 12 9 11 13 13 13 13 15 15

GFSMA_700_spd_087.txt.gz
Wind_Speed
32 31 29 27 24 21 18 16 14 13 12 11 10 10 9 9 9 8 8 8 8 9 10 11 12 12 14 14 16 17 17 16 16 15 15 14 14 13 13 13 14 13 13
33 32 30 28 25 22 20 17 16 15 14 13 13 12 11 10 10 10 10 10 10 10 11 12 14 15 15 15 16 12 16 17 19 21 19 18 16 15 15 15 14 14 14
35 34 31 28 26 23 21 19 18 18 17 16 15 14 13 12 12 12 12 12 11 11 12 13 14 15 16 17 14 13 16 17 18 21 18 19 18 17 17 16 15 15 14
36 34 32 29 26 24 22 21 20 20 20 20 19 18 17 15 14 14 14 14 13 14 13 14 15 15 16 16 16 16 16 19 18 20 19 19 18 17 17 17 16 17 16
35 33 31 29 27 26 25 23 23 23 23 23 23 22 20 18 17 16 16 15 14 15 15 15 15 17 17 17 17 18 17 18 19 20 21 21 21 19 18 17 16 17 18
34 33 31 30 29 28 26 26 26 26 25 25 26 26 25 23 21 19 18 17 16 16 16 16 17 18 19 20 20 21 22 22 22 23 22 23 23 22 20 20 20 21 19
34 35 33 30 31 31 28 30 30 30 28 28 29 29 29 27 25 22 20 18 18 18 18 19 21 22 24 23 24 24 24 25 26 27 26 25 25 24 23 21 20 22 24
36 37 35 33 33 34 35 33 32 31 30 29 30 31 30 29 29 23 22 21 20 19 20 22 24 26 26 27 25 27 27 26 28 29 27 28 26 26 26 25 23 22 23
32 33 33 32 33 38 31 30 31 33 33 33 31 30 30 31 27 24 24 22 20 20 23 26 28 29 30 30 30 30 29 29 29 29 28 28 27 27 28 26 26 25 23
33 34 36 36 36 34 34 34 39 36 29 33 32 30 30 29 27 25 25 23 21 24 28 29 33 35 33 31 30 30 30 29 29 29 30 28 28 28 28 27 27 26 25
35 37 39 39 44 43 42 38 40 33 35 37 36 33 33 32 32 25 23 23 27 33 38 39 41 37 31 31 31 29 29 29 29 30 30 29 29 29 27 24 26 25 25
47 43 50 49 52 51 40 46 39 28 35 20 34 36 37 27 31 19 28 30 33 35 29 30 29 29 28 29 29 28 28 28 28 29 30 30 29 27 28 27 26 28 25
45 32 27 35 42 27 51 20 27 17 16 17 18 33 20 21 15 18 24 25 26 24 23 24 24 27 28 30 28 28 28 28 28 28 29 29 27 28 24 25 27 28 25
15 17 14 14 18 21 27 31 18 17 11 11 15 12 13 21 23 22 20 21 22 22 23 27 29 28 31 30 30 31 30 30 29 29 29 31 28 26 27 27 25 25 24
16 17 17 18 19 18 15 17 17 17 18 19 20 22 26 25 24 20 21 23 25 28 30 30 32 28 29 28 29 30 30 30 30 29 30 29 31 29 28 26 25 29 26
21 21 19 20 19 18 19 22 20 14 18 23 24 21 22 21 19 21 23 24 27 29 32 33 32 29 29 29 29 30 30 31 30 30 30 30 32 26 27 24 30 28 29
24 23 24 22 23 22 22 22 22 18 18 18 18 19 19 21 22 24 25 26 28 29 32 33 32 29 29 29 29 29 30 30 30 29 29 31 30 29 29 31 28 23 21
28 29 28 27 27 26 25 24 23 23 23 21 22 23 25 25 27 27 28 29 29 29 31 31 30 30 30 30 29 29 30 30 30 29 30 28 29 28 28 27 23 22 22
25 26 27 28 28 27 27 26 26 27 29 28 27 26 26 26 28 29 30 30 29 29 29 28 30 27 29 30 31 31 31 32 32 30 29 28 26 25 21 24 23 20 18
28 28 27 27 27 28 30 30 30 31 31 32 33 32 31 30 31 32 30 30 29 27 27 27 28 28 30 31 33 33 33 32 30 29 27 26 25 23 20 19 17 15 15
33 33 33 32 32 32 31 32 32 32 34 34 35 35 34 33 32 31 30 28 26 26 26 28 30 29 29 30 31 31 31 30 29 28 26 24 22 20 19 16 13 13 13
31 33 35 36 37 36 34 34 34 35 36 36 36 36 35 33 31 29 28 26 25 25 27 29 29 29 28 28 30 29 28 27 26 25 22 20 20 17 15 14 14 12 14
32 32 33 35 36 37 35 36 36 37 38 38 37 35 33 31 30 27 26 25 25 26 28 29 28 29 30 30 29 27 26 24 22 21 20 16 15 12 12 13 12 12 15
31 32 33 34 36 37 35 35 35 37 37 37 36 33 31 29 28 26 25 26 26 26 28 29 29 28 29 30 26 24 22 20 16 14 12 11 11 11 11 11 15 16 16
32 32 33 33 35 35 34 35 35 34 34 34 33 31 30 28 27 26 27 26 26 26 27 29 29 28 26 24 22 20 17 16 14 13 11 11 11 11 11 11 13 13 13
35 35 35 34 34 35 35 35 34 33 33 32 31 31 29 28 27 27 27 27 26 27 27 27 27 26 22 20 17 17 15 14 14 12 11 11 10 10 10 11 11 11 11

GFSMA_700_spd_090.txt.gz
Wind_Speed
30 30 30 28 27 25 23 20 17 14 13 13 12 12 11 11 11 10 8 8 8 8 8 9 10 11 12 13 14 14 14 15 16 17 17 17 15 15 14 14 13 13 12
32 33 32 31 29 27 24 20 18 17 15 14 14 13 13 12 11 11 9 8 9 9 10 10 11 12 13 13 13 13 13 17 20 20 19 20 19 17 17 16 16 14 13
35 35 33 31 29 27 25 23 21 19 17 16 16 15 15 14 13 13 12 11 10 11 11 11 12 12 13 14 13 12 13 13 16 19 17 20 18 19 19 17 16 16 15
37 36 34 31 31 29 27 24 22 20 19 19 18 18 17 16 15 14 14 13 13 12 12 12 13 14 14 15 16 16 17 17 18 19 21 21 19 19 19 17 17 18 17
37 36 36 35 33 30 27 25 24 22 21 21 20 20 21 20 19 17 17 17 15 14 14 14 14 15 15 16 19 21 21 22 22 23 24 24 23 23 21 21 20 20 18
37 38 37 35 33 31 29 27 25 24 23 22 22 23 24 23 23 22 21 20 19 17 16 16 16 16 17 19 21 22 23 24 24 25 26 25 24 24 24 23 21 22 21
37 37 37 35 33 32 29 27 26 27 25 25 25 26 26 27 27 26 25 23 21 19 18 18 18 19 20 21 23 25 25 26 26 27 26 27 26 25 25 24 23 22 22
32 33 35 33 32 31 30 33 29 29 29 27 28 29 30 30 28 30 28 25 23 21 20 19 19 21 23 23 27 28 28 28 27 27 27 28 26 26 26 26 25 25 23
35 35 36 34 34 34 34 34 32 32 32 33 30 31 32 32 28 28 30 24 23 22 21 20 21 23 26 30 30 31 30 28 27 26 27 27 26 26 26 26 26 25 26
38 38 34 40 40 34 34 32 30 32 29 34 33 30 32 34 33 33 32 25 27 25 23 22 26 30 35 35 36 30 28 27 27 27 27 28 27 27 28 27 28 27 24
42 37 35 32 33 32 33 34 33 36 41 39 31 31 42 42 35 34 33 33 30 27 22 25 32 33 27 26 24 25 25 25 24 26 28 28 27 27 28 27 26 25 23
39 41 34 35 39 40 44 40 44 45 44 47 53 52 36 36 35 35 35 37 28 24 32 34 30 25 21 22 24 26 26 27 27 27 27 28 26 27 27 27 26 24 24
36 39 37 40 41 38 44 52 54 55 54 48 34 32 28 40 36 19 9 8 13 17 21 21 19 20 22 24 25 27 27 26 27 28 29 30 29 29 29 26 25 26 26
26 27 12 37 45 41 34 35 43 41 43 55 15 18 17 13 11 7 10 20 18 18 18 22 21 23 25 27 28 26 27 27 28 28 30 29 30 31 30 26 27 26 25
7 11 12 17 21 16 19 13 18 20 28 23 12 18 14 15 20 21 23 19 20 19 21 24 25 24 26 27 28 26 27 26 27 28 29 29 30 30 29 28 28 28 26
17 17 24 24 23 18 18 18 18 15 10 15 18 25 22 23 26 28 23 18 20 22 23 26 25 26 26 26 27 26 27 27 27 28 29 29 30 31 31 32 29 27 25
20 21 22 24 22 21 21 21 19 21 19 21 23 23 22 19 20 20 20 22 23 25 26 27 27 26 27 26 27 28 27 27 28 28 28 29 30 30 31 30 29 26 23
23 23 24 25 25 25 25 25 25 23 24 26 23 22 21 20 19 22 24 25 26 28 30 28 28 28 27 26 26 26 27 27 27 28 29 29 28 29 28 29 26 25 23
24 25 27 29 29 29 29 28 27 26 25 25 27 26 25 24 24 25 27 27 27 29 30 28 30 28 27 26 26 27 29 30 30 30 30 30 29 29 27 26 24 21 20
28 28 29 30 29 29 29 30 28 28 27 27 29 31 31 29 30 30 29 30 31 30 29 28 28 27 25 27 29 30 30 29 29 29 29 28 26 26 24 21 20 17 15
31 33 35 36 35 33 33 31 30 31 31 31 33 33 35 36 35 35 34 34 33 31 30 27 27 27 26 26 28 28 29 29 27 26 26 25 24 22 20 18 17 14 12
33 35 36 38 38 38 37 35 34 34 34 35 36 38 38 37 37 38 38 36 34 31 28 27 26 26 25 27 28 29 29 29 27 26 24 23 21 19 16 16 14 12 11
33 33 34 35 36 38 36 36 36 36 37 38 38 39 39 39 38 40 38 35 32 29 27 26 26 26 27 28 29 30 29 27 24 24 22 19 17 15 13 12 12 10 10
36 35 33 33 34 34 35 36 37 38 39 39 39 40 41 41 40 38 35 32 30 28 26 26 26 27 28 29 29 28 27 24 22 20 17 12 12 10 10 10 10 10 11
36 37 38 36 35 33 33 34 37 38 38 39 40 40 40 38 37 35 32 30 29 26 26 26 26 28 27 28 28 26 21 21 17 16 13 11 10 10 10 11 12 12 10
34 35 38 39 38 37 35 34 36 37 38 37 38 38 37 34 33 32 30 29 27 25 26 27 27 26 27 27 25 21 18 18 15 13 11 11 10 10 10 11 10 10 9

GFSMA_700_spd_093.txt.gz
Wind_Speed
42 32 30 29 27 26 25 23 22 19 15 13 12 12 10 11 10 8 9 8 7 7 7 8 8 9 9 10 12 13 14 13 14 15 16 17 17 17 15 14 15 15 14
20 25 31 30 31 28 27 25 23 19 16 15 13 12 12 11 11 9 9 8 8 8 8 9 8 9 10 11 12 13 15 16 17 18 19 20 20 19 17 16 16 16 16
34 29 31 33 32 30 29 26 24 21 19 16 15 14 14 14 12 12 10 10 10 10 10 9 9 9 10 11 11 13 15 15 18 20 20 20 20 19 19 19 19 18 17
40 35 35 35 34 32 29 28 26 23 20 18 16 16 15 15 15 14 14 13 12 11 10 11 11 11 11 11 11 12 14 17 18 19 20 20 21 20 20 21 20 19 18
34 40 37 37 34 34 33 30 27 24 22 20 18 17 17 16 18 18 17 17 15 14 13 13 13 12 12 12 14 15 17 17 20 21 22 23 22 22 22 22 21 21 20
30 37 39 39 38 37 35 33 29 26 23 21 20 19 19 19 20 21 21 22 21 18 16 17 16 14 15 15 16 18 19 21 22 22 23 23 23 23 24 24 23 22 21
30 34 38 40 40 38 35 32 30 28 25 23 21 21 21 24 23 23 25 26 25 22 20 20 19 18 18 18 18 20 22 24 25 26 25 25 25 24 24 25 23 22 21
30 34 36 38 38 38 36 34 31 28 24 25 25 25 26 27 27 25 28 28 27 24 23 24 23 22 22 20 21 24 27 30 29 27 25 25 25 25 24 25 24 24 23
36 32 34 37 37 36 35 33 30 29 25 30 33 26 27 29 29 29 30 29 29 26 27 27 26 25 23 24 28 30 32 32 27 25 24 25 25 25 25 25 25 24 24
39 41 37 34 34 34 34 32 28 29 32 34 31 29 28 29 29 32 30 32 30 30 31 31 29 27 25 26 29 29 23 20 20 21 23 25 23 24 24 26 26 26 26
38 37 41 32 31 33 32 33 34 34 33 29 27 30 31 33 36 30 39 45 39 37 35 32 30 28 26 30 30 21 21 20 20 22 23 25 23 25 25 26 25 25 25
34 32 36 39 38 36 36 31 40 42 37 41 40 36 43 48 49 43 41 46 41 35 35 39 32 33 35 29 21 21 21 22 23 23 24 25 24 25 25 25 24 24 24
38 32 38 39 43 46 37 29 38 37 39 44 52 58 53 51 52 53 44 37 26 20 16 14 20 25 22 21 21 23 23 23 23 23 24 24 24 25 26 26 27 27 25
35 36 33 45 45 47 45 37 38 45 45 50 49 51 54 51 57 38 44 37 18 19 21 20 19 19 22 23 24 24 24 23 23 23 24 24 24 25 25 27 28 25 26
21 8 39 49 42 47 34 33 34 29 32 36 40 37 41 41 40 29 18 16 15 23 20 21 21 22 24 25 25 25 24 24 24 24 25 25 25 26 27 28 28 27 26
12 16 19 17 19 21 25 25 23 23 18 16 21 25 24 23 18 16 16 22 24 26 24 21 20 21 24 26 26 27 27 25 25 26 26 26 27 27 27 27 28 28 28
20 21 24 25 26 28 20 21 22 22 26 21 15 20 19 22 27 30 31 30 29 22 19 24 25 25 26 26 26 27 26 27 25 24 25 26 28 28 29 29 30 30 29
20 22 24 24 24 23 25 25 26 27 29 28 26 24 24 26 30 32 27 23 21 23 24 26 28 28 27 27 27 25 26 26 26 27 28 30 31 32 31 30 30 28 25
22 24 26 28 29 30 30 30 31 31 30 29 28 31 30 31 31 29 26 24 26 27 27 28 29 30 29 28 27 25 25 26 28 29 29 30 30 30 30 29 29 24 23
27 28 29 29 30 30 30 30 31 30 32 32 32 31 32 33 31 31 30 29 28 29 30 31 32 31 30 28 27 26 26 28 28 27 28 28 28 28 27 26 24 23 20
32 32 33 33 33 34 34 34 33 32 33 34 34 34 33 35 35 37 35 34 33 33 33 34 34 32 29 28 27 28 28 27 26 27 28 27 27 26 24 22 21 20 16
37 37 38 37 37 37 38 39 39 37 36 36 36 37 36 37 37 39 38 40 39 37 36 36 35 32 30 29 29 28 27 27 28 27 26 25 26 24 22 21 19 16 14
39 40 40 41 40 39 39 39 40 41 42 40 39 39 39 39 39 40 40 40 39 38 39 37 36 33 29 29 29 26 27 27 27 25 25 24 22 20 17 17 15 13 12
38 40 41 42 42 40 39 40 40 41 41 42 41 41 41 40 41 39 39 40 40 40 39 37 34 32 30 28 26 26 27 26 25 24 22 18 16 14 13 12 12 12 11
39 38 40 42 43 43 40 40 41 42 41 41 40 41 42 42 41 41 39 40 43 42 38 35 33 32 29 27 25 25 25 25 24 21 18 14 14 13 10 11 12 13 13
40 41 43 44 44 44 43 43 41 42 43 41 40 40 40 40 42 42 41 41 40 37 35 34 33 30 27 25 24 25 24 23 20 19 16 13 13 12 11 12 13 11 11

GFSMA_700_spd_096.txt.gz
Wind_Speed
35 34 35 32 28 28 27 26 25 23 20 17 15 13 11 11 10 10 9 9 8 7 7 7 7 6 7 8 8 8 9 9 10 12 14 15 14 15 16 16 16 16 15
28 32 32 33 30 30 29 28 26 24 21 18 16 14 12 13 12 10 10 9 9 9 8 8 7 7 7 8 8 9 9 11 12 14 15 15 17 16 17 18 19 18 17
39 31 44 28 31 33 33 31 30 27 24 21 18 15 15 14 13 12 11 12 10 10 8 9 9 9 8 8 8 8 9 12 14 16 18 18 19 19 20 20 21 19 17
39 34 27 30 33 37 35 34 32 29 26 22 19 18 16 16 15 15 13 13 11 12 10 11 11 11 10 10 10 10 10 12 14 16 18 21 22 21 22 22 22 21 19
35 36 36 30 34 39 39 35 33 31 28 25 23 21 19 18 17 17 17 16 15 14 13 13 15 15 14 13 12 13 14 14 16 18 21 23 24 23 23 24 24 23 22
24 41 39 39 35 40 38 37 35 34 31 27 25 23 22 20 19 18 18 20 19 18 17 17 18 18 18 17 17 17 17 18 19 21 22 24 25 25 24 23 24 23 22
40 43 43 41 41 39 38 37 37 37 33 30 28 26 24 23 21 18 19 23 21 24 22 21 22 23 21 21 21 21 21 22 25 27 28 26 24 24 23 23 23 22 22
36 48 40 40 43 41 42 41 40 37 34 32 29 27 27 25 23 26 26 28 22 27 26 24 25 25 24 24 25 24 25 26 29 30 26 23 21 21 21 21 22 22 22
39 44 40 37 38 41 42 41 39 37 35 33 30 29 29 29 27 28 30 25 25 28 29 27 27 28 28 28 27 27 27 27 27 23 21 19 19 19 20 20 22 22 22
43 38 42 35 35 37 39 39 39 38 35 32 33 33 32 33 34 35 27 26 25 27 29 30 28 31 31 31 29 29 28 28 23 21 21 22 21 20 22 22 23 23 24
36 41 50 41 39 39 40 39 40 39 36 35 37 40 37 32 32 27 28 30 32 32 36 39 37 39 36 34 30 30 30 27 22 22 22 22 24 22 24 24 24 24 24
36 36 44 42 43 44 46 42 38 39 39 40 39 40 39 39 40 39 32 37 40 48 40 46 35 35 35 38 39 34 30 24 23 23 23 25 22 24 24 25 25 24 23
30 36 39 44 47 47 37 38 38 39 40 41 45 49 40 54 55 48 53 50 50 52 55 53 51 40 33 41 36 28 24 24 25 25 24 24 23 24 24 24 24 24 23
28 35 34 39 38 45 44 39 45 44 45 51 45 34 39 51 54 53 52 47 47 49 49 45 35 29 22 21 23 24 25 25 25 25 25 25 25 23 23 23 24 25 25
34 25 34 30 29 33 40 46 44 44 48 44 45 48 51 52 45 51 43 40 39 47 35 33 27 23 22 22 24 25 25 26 26 25 25 26 24 24 23 23 24 25 26
27 28 34 28 42 40 40 38 46 49 44 48 36 24 33 40 42 39 34 26 34 36 41 37 26 24 24 23 24 25 25 27 26 26 26 25 23 23 24 24 26 27 28
8 11 14 16 20 22 29 36 31 32 35 30 33 26 24 25 25 27 16 12 20 24 22 26 27 26 24 24 25 26 26 27 27 26 25 24 23 26 28 28 30 30 31
14 17 20 22 21 20 21 25 25 23 25 27 28 28 27 23 26 25 24 29 34 33 30 31 31 27 24 25 26 28 28 28 28 26 25 25 25 27 29 28 29 29 30
18 20 23 25 25 25 26 27 27 29 30 31 32 31 30 31 31 33 31 34 34 36 34 32 28 27 26 27 28 29 28 28 28 27 26 27 26 27 28 29 27 27 28
24 26 27 28 28 28 30 32 34 35 36 36 36 37 37 36 40 40 41 35 36 30 28 29 33 28 27 28 30 29 30 30 28 28 26 26 28 29 28 28 28 27 26
30 31 32 33 32 34 36 37 37 37 38 38 39 39 40 40 41 38 41 36 36 35 34 35 35 34 30 30 30 31 31 29 29 26 26 26 28 29 28 28 28 25 23
39 39 39 39 38 39 39 40 41 42 41 42 41 40 40 41 42 41 38 38 37 38 39 38 38 36 33 31 32 32 31 30 28 27 26 27 28 28 27 26 25 22 20
40 42 42 43 43 44 43 43 42 42 43 44 44 44 42 42 42 43 42 40 43 44 51 46 41 43 30 30 34 32 31 29 27 26 26 27 27 27 24 23 21 19 17
41 42 45 46 47 46 45 44 44 46 43 42 44 44 46 45 45 42 46 44 46 43 49 42 38 42 35 32 33 32 29 28 27 27 27 26 25 24 20 18 17 14 13
47 47 47 48 50 51 49 48 46 46 46 45 42 42 44 46 47 47 43 41 41 44 38 38 38 36 35 35 33 30 28 28 27 26 26 24 22 21 18 16 14 13 13
50 52 53 52 51 53 52 51 50 50 49 47 46 44 42 43 45 47 42 41 42 43 40 40 38 35 34 34 30 29 29 27 27 26 25 22 21 20 17 15 15 14 15

GFSMA_700_spd_099.txt.gz
Wind_Speed
36 35 31 29 29 30 25 28 28 26 24 21 18 14 12 12 11 11 11 10 10 9 9 9 8 8 7 7 7 6 5 5 6 8 10 12 13 15 16 17 18 18 17
39 39 32 31 35 35 31 31 31 28 25 23 20 16 14 14 12 12 12 11 10 10 10 10 9 10 8 9 8 8 7 8 7 9 11 13 15 16 18 19 19 19 18
45 42 38 35 41 34 35 36 34 32 30 26 22 19 17 15 15 14 13 13 11 11 11 11 10 11 10 9 9 9 10 11 11 13 14 16 17 19 21 22 22 21 21
33 52 44 40 38 34 34 37 36 34 30 28 25 21 19 18 18 17 15 14 13 13 12 12 12 14 13 12 12 12 12 13 15 16 17 20 22 23 22 23 23 22 22
38 45 47 44 36 42 39 37 37 36 33 30 27 25 23 21 21 20 18 17 17 15 14 13 15 16 16 16 16 16 16 16 17 19 20 21 23 25 25 23 22 21 21
35 44 42 40 49 31 36 41 40 42 36 32 31 29 27 25 24 22 21 21 19 18 18 16 18 19 21 20 19 20 21 21 21 22 23 26 28 28 25 22 21 20 21
32 39 46 39 46 42 32 39 41 41 39 35 35 33 30 29 27 24 23 23 21 20 21 22 21 20 25 27 25 24 24 25 25 26 28 29 29 25 21 19 18 19 19
32 34 41 40 47 47 40 39 43 41 40 38 37 35 35 33 29 26 26 24 25 26 25 25 27 26 26 29 28 27 27 29 29 28 28 29 24 21 20 17 16 17 19
34 41 41 43 44 44 43 44 43 40 42 39 39 38 38 35 30 29 27 26 26 32 29 28 29 25 27 29 29 29 29 31 32 29 28 26 23 22 20 19 19 19 20
36 41 41 40 43 42 39 44 46 46 43 41 40 40 39 36 33 33 31 30 30 35 34 33 30 26 26 29 27 30 32 33 32 28 28 25 25 22 20 21 21 21 22
35 38 40 49 44 43 44 41 44 43 41 40 41 39 38 38 39 41 40 43 35 40 27 27 26 25 33 33 35 35 35 35 34 29 26 25 26 24 22 23 24 21 21
37 41 39 47 45 43 41 39 41 42 41 42 42 41 41 42 41 44 45 48 42 29 33 38 40 44 41 42 46 35 36 39 37 28 28 25 25 24 25 23 23 23 22
28 31 42 38 45 45 46 43 45 47 45 46 47 45 46 46 48 45 53 58 51 47 52 53 46 48 46 47 41 39 36 41 37 30 27 26 24 25 24 23 24 23 24
33 32 36 31 33 52 53 50 56 52 49 49 53 47 48 48 48 46 54 50 49 50 53 54 45 46 43 41 46 44 39 28 27 28 27 26 26 25 24 23 24 24 22
29 19 27 31 30 34 44 52 47 53 57 55 49 41 49 51 50 50 59 54 46 51 53 50 47 44 39 45 29 25 24 26 28 27 26 26 25 26 24 23 22 22 22
24 27 26 34 30 28 24 31 39 44 48 45 45 51 43 49 54 47 41 46 47 55 57 45 41 37 38 31 28 25 25 24 24 25 26 26 26 25 23 23 23 23 25
5 7 16 17 22 31 34 36 42 43 38 36 35 43 46 48 44 35 42 45 47 43 43 46 41 36 37 29 25 22 23 22 24 25 26 26 25 24 23 25 25 25 25
12 13 15 17 18 19 17 19 20 22 29 30 32 35 37 31 36 34 34 33 35 25 30 26 30 25 30 24 25 26 23 24 25 25 26 26 25 25 25 25 25 25 25
17 18 19 21 22 23 23 24 26 26 25 25 25 25 31 31 30 31 27 32 27 26 25 27 27 28 31 31 30 26 24 24 25 26 26 26 25 24 25 25 27 27 25
24 25 26 26 27 28 29 30 31 32 32 33 34 34 36 37 36 34 34 33 35 38 36 39 40 38 40 40 31 25 26 26 27 27 27 26 26 25 24 26 28 26 25
32 33 34 35 35 35 35 35 36 36 37 38 38 39 40 41 41 39 39 39 37 46 44 43 40 40 36 32 31 27 30 29 27 27 27 26 26 24 26 28 28 25 25
36 37 38 39 40 41 42 42 42 42 42 42 42 42 43 42 42 44 44 44 46 49 44 40 41 36 35 33 33 33 32 29 27 25 26 26 25 25 27 29 27 26 25
40 41 43 44 44 45 46 46 46 46 46 47 46 45 46 46 46 46 45 47 46 44 43 40 41 42 37 37 37 36 33 30 28 26 25 26 24 26 28 28 25 25 22
45 46 46 48 49 48 49 49 50 51 51 48 48 48 49 47 47 49 48 48 48 42 44 41 43 41 41 42 43 34 29 27 29 26 24 24 25 27 28 26 23 21 21
51 51 52 53 54 53 52 53 53 52 52 51 50 50 49 49 48 48 49 50 49 46 41 38 46 35 53 53 43 33 26 27 28 26 23 26 25 26 27 24 21 20 19
51 54 56 57 59 59 58 55 52 53 54 53 51 49 51 51 49 47 47 47 48 47 40 48 56 49 51 33 33 31 30 28 27 25 25 27 25 25 24 21 20 19 18

GFSMA_700_spd_102.txt.gz
Wind_Speed
21 25 29 31 29 30 28 25 27 25 25 24 20 18 16 14 12 11 10 11 10 10 10 10 10 9 9 9 7 8 6 6 5 7 8 10 12 14 16 17 18 18 18
23 24 27 31 32 33 34 29 29 30 29 27 24 21 18 16 14 13 12 12 12 12 12 11 10 10 9 9 9 8 9 8 8 9 11 12 13 15 18 20 21 20 19
22 26 30 35 37 37 36 36 34 35 34 32 28 24 21 18 16 15 14 14 14 13 13 12 12 11 11 9 11 11 11 11 11 13 15 16 17 18 19 21 23 22 21
26 30 34 39 40 38 44 40 38 40 35 35 29 26 24 22 20 18 16 16 16 15 15 13 14 13 12 12 12 13 14 16 15 16 18 20 20 22 24 25 25 23 21
31 29 30 34 44 45 41 45 43 42 37 38 32 31 28 26 23 22 19 19 19 18 17 16 15 15 15 16 15 15 17 18 20 20 20 21 22 24 27 28 26 22 19
33 33 29 34 39 45 45 41 37 43 43 40 37 35 34 30 28 25 22 22 21 21 21 19 19 18 20 20 19 20 19 19 22 24 23 22 25 26 27 25 21 19 18
25 26 28 30 39 44 44 50 46 42 45 39 39 39 36 35 33 28 25 24 23 23 23 23 22 21 22 24 25 24 23 23 22 25 26 26 27 26 25 20 19 18 17
27 24 28 31 33 40 44 45 38 38 40 42 41 41 41 40 37 30 29 27 25 25 23 23 24 24 25 28 28 27 26 26 25 26 28 28 28 27 24 21 19 19 20
31 30 27 30 36 40 39 38 39 39 51 47 43 43 45 45 34 34 33 30 28 26 25 25 27 27 28 28 30 29 28 25 26 28 30 30 29 28 25 21 20 21 21
31 30 29 26 35 42 42 45 39 34 36 37 39 49 48 44 41 39 36 34 32 31 31 30 29 32 31 27 23 26 30 26 25 30 34 31 28 29 24 20 22 22 21
30 35 36 29 34 32 46 53 48 44 44 43 45 44 50 47 44 41 38 35 37 36 35 34 39 44 29 26 28 34 32 32 37 34 34 32 33 31 23 22 23 21 20
33 34 29 33 35 41 43 50 51 48 46 43 53 53 49 48 46 44 41 41 41 41 39 42 40 40 45 45 41 43 40 37 38 38 31 37 32 28 26 25 23 23 22
30 30 27 26 33 36 40 41 49 49 47 42 51 48 51 51 46 43 43 44 45 44 41 40 39 49 43 40 43 44 41 41 41 43 31 30 26 27 26 25 23 23 23
28 28 29 30 32 36 41 43 44 46 51 46 50 52 52 50 48 48 47 48 48 48 53 54 51 48 47 42 43 40 42 41 45 40 30 25 25 27 26 25 23 24 22
29 29 34 27 30 20 29 40 39 50 48 53 48 50 51 52 50 52 56 53 50 54 56 53 51 52 49 45 45 44 45 39 40 30 23 25 26 26 25 24 24 23 21
25 27 30 33 25 24 21 27 18 27 47 46 51 55 57 50 50 52 57 49 49 51 57 58 48 42 40 46 45 52 45 41 33 22 25 25 26 26 24 23 23 22 21
16 11 15 13 20 23 27 27 31 26 25 29 44 46 51 52 60 56 56 54 54 51 49 50 50 45 44 46 44 43 43 36 26 24 24 26 25 23 23 23 22 23 22
14 16 17 17 14 14 17 17 19 19 21 25 40 42 40 39 43 45 40 43 44 40 42 41 42 39 38 39 39 39 40 29 26 21 19 22 22 22 22 22 22 22 22
18 17 20 21 20 19 21 23 24 25 24 26 23 27 24 30 31 37 33 33 40 35 34 39 36 31 29 31 31 33 26 24 23 18 20 20 22 24 23 21 22 22 21
26 28 27 27 28 28 28 28 27 28 29 31 32 33 32 30 30 31 34 34 32 34 32 34 29 28 25 25 27 30 30 26 25 21 23 23 23 23 23 22 21 22 23
30 33 33 34 35 35 36 36 36 36 35 35 35 36 37 39 40 40 40 39 36 35 36 35 36 38 38 43 43 35 37 36 32 26 25 24 24 24 22 21 22 23 24
35 36 38 39 40 42 41 42 42 42 41 42 42 42 42 41 42 43 44 45 44 42 42 42 48 44 46 37 44 43 45 42 32 27 26 26 25 23 23 22 22 22 24
38 40 41 43 43 45 47 48 49 50 49 48 47 47 48 48 47 46 46 46 45 46 46 42 45 41 46 39 35 39 37 34 37 31 31 27 24 24 25 24 23 24 22
45 47 48 50 52 51 52 52 53 54 54 53 54 53 52 50 49 51 51 50 49 49 48 46 47 45 43 39 38 40 44 45 45 40 32 25 25 25 26 25 24 23 21
44 45 48 51 54 55 57 59 61 61 60 58 56 54 54 54 52 51 52 52 52 52 50 50 50 44 40 42 44 43 48 40 39 26 27 23 26 25 27 26 24 23 21
46 47 47 47 49 52 54 57 59 62 63 61 57 54 53 54 52 51 54 52 52 51 50 50 48 45 46 39 40 39 40 33 34 24 24 23 27 28 29 26 24 23 21

GFSMA_700_spd_105.txt.gz
Wind_Speed
21 23 23 23 23 24 27 29 26 25 26 24 24 21 19 17 16 14 13 13 12 11 11 11 11 11 11 9 8 7 6 7 6 7 7 8 9 11 13 16 18 19 19
21 19 21 23 25 26 27 29 29 29 27 28 28 25 23 21 19 17 15 14 13 13 13 13 13 13 12 11 10 9 9 8 8 9 9 10 12 14 15 17 20 21 21
14 16 20 23 26 27 28 29 33 34 34 34 31 29 27 24 22 19 18 16 15 15 15 14 15 14 14 13 12 11 11 10 10 12 12 13 14 16 17 19 22 25 24
21 20 21 22 26 29 32 34 39 34 37 38 34 33 32 29 25 23 21 19 18 17 17 16 16 16 15 14 14 14 14 14 14 14 15 17 17 19 22 23 26 26 24
20 26 27 28 27 31 34 37 40 40 40 35 43 38 36 33 30 28 24 22 20 20 20 19 18 17 16 16 16 16 16 17 18 18 19 18 18 20 23 26 27 25 21
30 31 28 29 32 33 34 35 37 45 42 35 43 40 40 38 36 33 27 26 23 22 23 23 22 20 19 19 18 18 19 19 21 21 22 23 22 22 24 25 26 22 20
27 27 26 22 27 29 31 33 37 37 42 43 35 44 46 46 41 37 32 29 26 24 24 25 24 23 23 22 21 22 23 23 23 24 25 25 24 24 24 25 26 23 21
27 26 26 24 22 28 27 31 36 40 40 41 40 38 51 50 49 37 35 34 29 28 26 25 25 24 22 22 23 24 24 23 24 26 27 27 24 25 26 27 27 22 21
28 26 26 26 29 29 31 29 32 36 37 37 40 37 43 51 43 39 39 37 35 33 28 26 27 26 25 23 21 23 22 21 21 24 27 28 25 27 28 27 28 23 22
30 26 25 27 27 31 27 31 35 37 38 38 38 38 47 48 49 47 41 38 40 32 32 31 31 30 29 26 32 33 26 23 21 24 28 29 32 33 31 26 25 24 22
34 32 31 29 33 32 33 29 32 37 42 45 43 40 44 42 51 48 45 42 41 38 36 35 36 33 35 38 38 31 33 28 26 30 34 32 35 32 29 25 24 25 22
31 33 34 34 36 37 35 35 33 37 38 45 48 48 46 42 42 48 49 46 43 41 38 37 38 46 45 40 39 36 38 45 48 37 39 34 34 34 31 24 24 23 22
31 31 32 32 33 35 32 32 31 33 38 43 50 53 54 53 48 49 51 48 47 46 45 43 46 42 45 39 39 42 45 43 36 37 35 36 37 37 29 28 25 23 23
29 31 29 28 28 33 35 33 31 32 33 39 42 49 59 56 55 54 56 52 48 52 52 54 48 48 40 42 41 49 43 44 41 38 35 44 38 35 28 25 26 24 23
30 27 26 26 32 34 30 25 21 26 30 35 37 46 50 48 49 49 50 49 51 51 56 60 57 53 55 52 53 48 47 47 46 39 36 45 38 38 26 26 26 24 23
20 17 30 27 21 28 29 27 23 20 30 26 26 38 44 46 51 55 52 49 49 55 58 55 55 49 53 53 51 51 44 41 41 40 44 43 43 34 26 25 25 23 23
27 20 19 23 19 18 24 24 26 29 25 27 19 25 45 43 40 52 54 52 56 56 64 57 57 52 51 53 49 48 40 44 42 44 46 44 39 32 24 24 24 22 23
13 7 14 16 16 16 17 17 16 18 19 14 23 23 25 30 29 49 50 58 63 59 61 58 59 52 46 43 40 43 36 39 39 46 44 44 37 30 22 25 25 23 23
18 20 21 21 22 22 22 23 24 24 23 24 26 23 26 23 24 28 35 37 38 40 41 41 35 39 43 40 37 37 39 40 45 44 42 34 29 23 23 24 24 24 23
23 25 28 28 29 29 29 29 30 29 30 30 30 31 31 31 30 29 29 29 34 34 37 33 38 39 36 34 30 29 34 38 39 36 32 30 27 22 23 26 26 25 23
28 28 30 32 34 35 35 36 36 36 37 37 38 38 38 38 38 38 39 38 34 33 28 37 32 34 35 31 30 24 28 27 29 28 28 28 25 24 28 27 27 25 24
32 33 35 37 38 39 41 43 44 42 43 43 43 44 45 45 46 45 44 43 44 42 42 42 42 40 37 37 34 33 33 39 36 38 33 33 31 27 27 27 25 25 25
38 39 41 43 43 44 46 47 48 49 49 49 49 49 50 49 50 52 52 51 49 48 48 47 47 44 45 40 42 43 36 31 41 38 44 41 35 28 28 26 26 27 25
39 40 41 43 46 47 49 51 53 54 55 54 55 55 54 54 55 55 57 57 57 55 53 51 51 48 45 46 41 44 41 32 36 40 36 45 38 31 30 27 28 27 26
36 37 38 40 41 42 45 47 50 53 55 58 58 57 57 57 55 56 58 59 59 60 58 56 54 54 51 51 45 45 50 47 43 44 40 42 42 37 32 30 29 28 28
37 37 37 38 38 38 38 39 41 45 47 49 53 57 59 60 56 52 54 59 61 57 56 58 57 55 54 53 51 48 44 42 42 48 49 53 49 41 38 28 27 29 28

GFSMA_700_spd_108.txt.gz
Wind_Speed
27 28 28 26 25 26 24 26 26 27 26 25 25 24 23 22 20 19 17 16 16 15 14 14 14 15 14 14 13 12 12 11 10 10 9 8 9 10 13 15 15 17 20
28 25 24 26 28 26 25 25 28 29 31 28 27 28 26 26 24 23 20 18 17 17 16 16 16 16 16 15 15 14 14 13 12 12 11 11 11 12 14 16 17 20 22
21 18 22 21 23 26 28 28 30 27 36 29 32 31 30 30 28 26 25 22 20 19 19 18 17 17 17 16 16 16 15 15 14 14 13 13 14 15 16 17 19 20 23
20 17 16 17 20 23 26 28 30 33 33 32 37 35 34 32 34 30 29 27 25 22 21 20 19 19 19 18 18 17 16 16 15 15 16 17 17 18 19 21 21 21 22
13 14 15 22 26 26 26 27 31 32 36 37 34 40 38 38 38 35 33 30 29 26 23 22 22 21 20 20 19 19 18 18 18 18 18 19 20 21 22 22 22 21 22
24 19 26 27 30 31 31 32 30 32 32 35 39 38 35 42 42 44 37 36 32 29 28 25 24 23 23 22 22 21 20 19 19 20 20 21 22 23 23 24 23 23 23
23 28 23 29 31 32 28 32 32 33 35 36 38 40 42 33 40 46 44 42 37 34 31 28 27 27 25 26 25 23 23 22 22 22 23 23 24 25 26 26 25 26 23
24 32 32 31 31 30 30 28 30 30 32 36 40 37 41 44 49 41 42 51 51 42 35 30 30 29 28 28 27 25 24 23 22 23 22 24 24 25 27 27 29 26 24
31 33 32 30 29 31 29 29 26 29 32 33 32 35 40 43 35 37 41 45 47 42 37 31 34 33 31 29 27 26 22 20 22 25 23 22 22 25 27 28 32 29 25
28 31 32 31 32 29 28 27 28 27 31 34 34 36 36 38 36 35 38 41 54 43 40 39 37 36 31 30 29 30 30 30 30 28 26 22 23 26 30 32 33 27 25
33 34 34 33 33 31 31 32 32 32 33 33 37 39 38 39 39 42 40 39 42 45 43 42 42 41 34 36 36 37 34 29 29 28 31 31 36 41 39 35 31 28 25
32 34 36 37 37 36 34 35 36 37 37 38 39 36 41 43 44 42 45 42 43 46 50 42 43 46 46 45 43 40 41 43 47 36 39 40 47 37 34 33 30 25 26
32 34 33 33 33 35 37 35 35 38 36 36 39 44 41 48 42 45 48 48 48 47 53 51 49 47 45 41 38 41 42 54 37 38 39 48 38 37 33 33 33 34 28
32 34 34 34 35 34 33 35 34 35 37 38 41 37 35 40 47 43 51 49 53 48 50 53 54 49 46 46 51 47 57 48 43 47 48 47 44 41 35 36 34 37 32
32 31 32 34 33 36 33 35 33 33 34 29 37 30 40 34 41 41 43 54 55 53 50 52 56 53 51 48 51 59 62 50 51 49 50 48 44 40 37 37 32 34 33
27 27 28 28 31 34 31 33 33 31 36 38 29 29 31 29 33 40 43 46 49 50 57 56 55 58 56 59 60 62 53 52 57 56 57 49 43 39 35 40 36 38 29
24 28 26 25 27 21 26 30 29 28 32 31 27 30 35 24 24 40 39 37 37 42 51 52 53 53 50 49 52 55 51 46 50 51 48 50 45 41 43 45 39 39 30
32 30 29 34 25 19 19 21 26 23 27 29 21 25 27 31 31 30 26 25 41 41 45 40 53 51 55 57 58 61 63 60 49 46 37 42 41 44 45 43 43 40 26
16 16 16 19 21 25 25 26 26 28 29 28 28 29 29 27 26 24 26 27 30 30 32 38 38 42 48 56 61 48 47 45 46 41 43 43 49 47 47 44 43 33 32
21 22 23 26 28 30 31 32 33 33 34 34 34 33 34 33 33 34 33 33 31 30 32 39 37 37 34 34 29 34 39 40 38 41 38 43 45 45 43 39 34 32 33
24 26 27 30 31 33 36 36 37 38 38 38 39 40 40 41 41 41 40 38 40 42 42 40 29 33 34 37 33 30 31 33 35 37 39 40 41 40 39 35 33 35 33
29 31 33 34 36 38 41 43 44 45 44 44 44 45 45 46 47 48 48 49 47 46 45 45 46 42 35 34 34 30 33 32 32 31 30 33 38 36 35 36 35 34 33
33 34 36 37 38 39 41 42 43 45 46 46 47 48 48 50 51 52 53 54 54 54 53 49 50 49 46 45 32 40 38 35 38 35 29 30 33 33 35 39 36 36 34
34 34 35 37 38 40 42 44 46 47 47 46 47 47 48 48 48 52 55 57 58 58 57 56 56 53 52 50 49 43 39 40 42 41 40 35 39 37 42 44 40 37 34
34 35 37 38 41 41 42 44 45 46 47 47 47 47 49 50 49 49 51 54 57 60 60 60 60 60 58 53 52 49 51 42 49 51 48 48 42 42 39 44 47 38 35
34 36 36 37 37 37 37 38 39 41 42 43 44 45 46 48 51 53 55 56 57 52 55 58 61 62 61 60 55 58 47 51 56 44 48 48 44 44 48 50 48 44 42

GFSMA_700_spd_111.txt.gz
Wind_Speed
36 32 29 28 27 28 27 27 26 26 26 26 25 24 25 25 23 22 21 18 18 17 17 16 15 16 17 16 15 15 14 14 13 12 12 11 9 9 10 12 13 15 18
36 35 34 33 32 30 28 27 27 29 29 29 29 29 29 29 26 26 24 23 21 20 19 19 18 17 17 18 17 16 16 15 15 14 14 13 12 12 12 14 15 17 19
38 36 38 32 30 29 29 28 27 28 30 34 37 31 36 32 30 30 29 28 25 24 22 21 20 19 19 18 18 18 17 17 17 17 16 13 13 14 14 15 17 19 20
31 35 41 28 29 26 25 27 29 30 27 33 34 25 33 32 31 34 33 31 30 28 25 24 23 22 21 20 19 19 18 19 19 18 17 16 16 16 16 16 18 20 21
34 38 36 26 21 22 24 25 27 28 31 33 36 33 36 33 35 38 38 35 34 33 31 29 27 25 24 22 21 20 20 21 21 20 19 18 18 18 19 20 20 22 22
32 37 32 30 21 21 23 26 29 30 31 31 33 35 35 36 38 43 42 37 36 41 39 33 31 28 26 25 24 23 22 21 22 21 19 19 20 21 21 21 22 22 22
35 36 37 41 40 12 23 27 29 29 32 31 33 35 35 35 35 38 35 38 44 44 43 37 35 33 30 26 26 25 25 24 23 22 21 21 22 22 22 23 23 23 24
32 28 28 24 33 28 26 27 31 31 30 30 32 33 37 38 39 37 36 38 33 41 44 41 41 40 36 31 25 26 27 27 26 23 22 20 22 23 24 24 22 24 27
30 32 29 28 24 24 26 28 30 34 32 29 31 32 35 40 36 33 36 37 38 40 43 47 48 46 43 36 30 28 28 27 26 24 22 21 23 25 25 24 24 27 28
32 32 31 30 29 31 31 32 33 33 34 34 31 29 35 37 36 37 34 33 33 34 41 47 50 52 52 38 35 34 28 27 30 31 26 25 24 25 25 24 28 36 35
35 32 29 29 31 32 33 33 33 34 35 35 33 34 35 33 38 42 41 37 36 35 33 38 50 48 45 45 39 35 30 30 34 37 36 34 31 27 30 33 38 41 30
32 33 33 34 36 36 35 36 36 36 36 37 39 39 39 39 39 41 44 40 42 41 36 36 40 43 48 46 42 39 36 36 40 43 49 43 40 40 39 34 40 32 28
28 31 31 32 33 35 37 37 38 40 40 40 39 41 41 37 38 42 45 50 49 45 42 44 42 48 51 49 45 43 43 41 46 52 48 45 47 36 35 33 35 35 31
30 31 31 32 32 34 35 37 38 38 39 40 39 37 38 41 41 44 36 46 47 47 47 46 47 49 50 53 48 44 44 48 45 49 45 47 45 39 40 39 35 36 34
28 31 33 33 33 34 35 36 37 39 38 36 37 38 40 33 39 34 39 40 43 49 49 45 43 52 51 48 54 51 51 49 48 50 57 58 58 48 44 39 37 39 34
23 24 30 31 33 29 35 32 34 36 34 34 39 39 39 45 41 39 36 38 35 44 43 44 50 45 50 48 51 59 52 49 49 51 63 55 48 44 47 49 46 44 43
18 21 22 26 30 29 28 35 42 37 40 39 38 39 34 41 45 47 39 33 29 44 37 41 44 43 42 41 43 55 61 56 60 61 63 58 50 45 44 42 39 38 39
25 30 32 32 35 39 29 45 36 33 33 35 34 36 30 38 40 35 37 44 37 30 35 39 32 36 39 40 43 49 49 51 61 57 51 52 48 52 48 45 45 46 39
14 15 19 23 25 24 24 26 26 27 27 29 33 32 31 33 32 32 33 34 34 33 31 29 32 36 34 35 45 39 35 41 51 52 58 54 49 45 42 43 40 39 46
20 22 24 26 27 30 32 32 33 34 35 36 37 39 39 40 39 40 39 37 37 35 29 30 31 31 32 33 32 33 36 37 34 38 40 39 40 41 41 41 45 46 42
23 24 26 28 30 32 34 35 36 37 38 39 40 42 43 44 45 46 46 45 43 43 40 41 41 42 40 35 34 33 34 36 35 33 35 35 39 40 40 40 42 40 38
25 26 28 29 30 31 33 35 37 37 38 40 42 43 44 45 47 48 50 50 50 50 49 48 47 48 49 47 41 37 36 35 33 29 26 31 33 37 38 37 34 34 35
27 27 28 29 30 32 34 35 37 38 40 41 42 43 43 43 44 47 50 51 52 55 56 55 55 53 53 50 47 47 45 38 33 31 32 32 26 28 29 30 32 32 35
28 29 30 32 32 34 36 38 40 40 40 40 41 41 42 41 42 44 44 46 49 52 55 56 59 59 58 55 53 52 52 48 49 39 37 38 33 32 26 28 30 32 36
31 32 34 36 37 39 41 42 42 42 42 42 42 43 43 42 42 43 46 47 46 46 46 50 56 60 61 60 57 53 54 56 49 51 40 42 41 41 40 36 36 37 38
33 34 35 37 38 37 38 38 40 42 42 43 42 43 44 46 47 48 49 50 52 51 50 49 48 50 55 57 58 58 56 56 58 58 53 50 45 44 49 49 41 41 40

GFSMA_700_spd_114.txt.gz
Wind_Speed
39 37 35 34 34 32 29 28 28 26 27 26 26 27 24 25 25 24 23 19 20 20 18 17 17 17 17 17 17 16 15 14 14 13 13 13 11 10 8 9 10 11 13
38 35 34 35 36 34 32 32 30 30 29 30 28 28 29 28 27 28 27 24 22 23 21 20 19 18 18 18 18 17 17 16 16 15 15 14 13 12 11 11 11 12 14
38 37 36 35 34 36 35 39 36 32 32 34 33 32 30 28 33 34 31 29 26 25 24 22 22 21 20 20 20 19 18 18 18 18 17 17 15 14 13 12 12 13 15
42 45 39 40 36 37 38 39 32 31 30 29 29 29 36 26 31 29 33 32 31 29 28 27 25 25 24 23 22 21 20 21 21 20 18 18 17 15 15 15 15 15 15
43 42 41 41 36 35 36 37 27 29 29 31 30 31 29 30 30 35 33 31 33 36 33 28 31 28 28 26 24 24 22 23 22 22 20 19 19 18 17 18 17 17 16
43 40 38 37 37 38 33 40 30 24 25 27 28 29 30 30 33 33 33 34 37 39 37 36 35 33 32 30 28 27 25 24 24 23 22 22 20 19 19 19 19 19 18
40 38 35 35 39 38 34 31 33 18 21 24 27 32 31 32 33 33 30 31 37 35 40 41 38 40 36 34 32 29 27 26 26 24 22 22 22 22 21 21 20 20 19
39 40 38 33 36 37 31 32 46 36 20 21 27 29 32 34 33 32 32 33 32 33 36 41 45 46 40 37 37 35 31 29 32 29 26 25 25 24 23 22 21 20 20
39 51 40 36 32 33 31 29 31 31 28 28 27 30 31 35 33 31 30 31 32 34 37 36 38 38 40 38 42 40 37 30 29 31 29 27 28 26 22 21 22 23 22
46 44 35 43 32 32 31 29 29 25 28 31 32 31 32 35 36 35 32 32 31 33 32 37 38 38 43 46 45 45 40 36 36 36 34 36 30 28 25 28 25 25 25
48 57 43 39 33 33 32 32 31 31 30 31 32 31 33 31 37 38 40 34 33 34 35 35 34 36 33 39 50 48 41 40 41 38 38 36 35 31 28 29 34 28 29
47 39 38 35 31 29 29 30 31 31 33 33 34 35 35 37 39 42 44 41 41 36 39 38 39 38 40 39 33 42 48 44 45 44 40 37 37 37 39 36 35 35 32
14 26 27 28 30 30 31 33 34 36 37 38 38 39 38 39 42 43 44 43 40 36 39 42 44 41 42 42 40 37 38 48 49 45 44 41 40 40 40 42 43 46 33
8 8 18 24 26 27 28 32 34 35 36 37 38 39 41 42 42 41 40 42 47 46 39 36 37 36 41 42 42 42 45 51 48 50 49 46 41 40 43 44 45 46 40
13 18 21 26 28 31 31 33 32 34 36 36 39 37 38 36 38 38 40 42 36 48 42 41 39 38 40 44 43 41 50 51 57 48 43 42 43 41 44 49 47 52 49
18 21 23 25 25 25 30 29 32 31 33 34 36 37 35 38 40 39 46 42 44 39 44 39 41 34 39 44 42 38 38 49 48 55 49 45 44 48 50 50 57 46 40
18 17 20 19 22 23 21 27 25 30 33 34 39 39 39 36 39 38 39 40 43 48 42 43 39 36 35 32 29 34 41 43 42 51 55 48 43 45 49 54 53 42 38
23 24 26 27 29 28 34 33 35 40 34 33 40 38 41 42 41 41 46 43 41 37 42 45 49 38 37 36 37 36 37 34 33 41 48 54 53 56 60 59 54 44 42
16 17 20 19 21 23 25 25 26 28 29 30 33 32 32 31 32 31 35 30 32 36 34 37 42 44 37 23 22 28 26 30 33 36 35 42 55 54 54 51 49 48 48
21 21 23 24 26 28 30 30 31 31 32 36 36 35 37 37 38 41 42 42 43 42 41 41 38 37 40 33 33 31 35 31 36 38 33 38 39 44 54 50 51 49 47
23 24 24 26 28 29 31 31 31 31 34 35 37 37 38 40 42 43 45 45 45 46 45 46 46 44 40 38 38 35 35 35 35 36 35 33 35 33 32 38 43 43 42
23 24 24 24 25 26 27 28 29 30 32 33 34 34 36 38 40 41 42 43 45 47 49 50 50 49 48 47 46 48 46 44 41 34 35 35 36 32 31 35 36 35 34
22 22 23 24 25 27 28 30 31 32 33 33 34 35 35 36 37 41 38 40 41 44 47 49 50 51 52 52 53 51 50 52 52 48 41 39 37 33 28 25 25 27 31
26 26 26 27 28 29 30 32 33 34 33 33 33 33 34 34 34 37 37 38 38 38 41 45 49 50 51 52 52 54 55 56 55 51 46 47 38 37 32 25 21 25 29
28 28 29 29 30 31 33 33 32 32 33 33 34 36 38 39 37 36 39 40 41 39 40 40 42 45 47 49 50 53 53 55 58 57 53 51 51 45 38 35 29 27 29
29 30 30 31 32 34 35 36 37 38 39 39 37 36 37 38 41 41 43 44 44 42 42 40 39 41 43 43 44 47 49 54 55 57 54 54 54 48 49 37 38 34 33

GFSMA_700_spd_117.txt.gz
Wind_Speed
36 35 32 34 34 35 31 31 30 30 30 29 29 28 28 27 26 26 24 22 20 20 18 17 16 17 17 17 16 17 17 17 16 15 15 14 14 13 12 11 9 9 10
39 38 36 35 32 33 32 31 31 30 31 33 32 32 31 30 28 27 28 26 23 22 22 20 19 18 18 18 18 17 18 18 18 18 17 17 16 16 15 14 12 11 11
41 42 39 35 34 34 34 35 36 35 34 34 36 37 33 33 33 30 31 31 27 25 24 24 23 21 20 20 20 20 19 20 20 19 19 19 18 18 17 16 14 13 13
40 42 40 39 36 35 35 38 36 36 35 39 43 42 37 36 35 30 35 33 27 25 30 28 28 25 23 23 21 22 22 22 22 22 22 21 20 20 19 18 16 16 15
42 42 44 40 37 39 44 38 40 39 36 36 35 32 34 44 33 31 34 28 25 28 29 30 30 30 29 27 25 24 25 24 24 24 24 23 22 21 21 20 19 18 17
42 44 43 42 42 43 42 43 37 32 35 34 33 35 38 36 27 27 26 27 29 33 32 35 33 34 34 31 30 29 29 27 25 25 25 24 24 23 24 23 22 20 20
40 44 45 43 41 40 39 40 40 37 36 41 46 40 30 30 31 26 25 28 30 30 30 31 34 34 37 36 34 33 33 31 28 27 26 25 26 25 25 25 24 24 23
41 41 44 45 42 37 37 40 39 37 36 37 36 34 39 29 25 25 27 29 31 31 33 32 32 32 34 37 37 35 35 35 33 30 29 28 28 29 28 27 27 26 23
43 35 38 41 46 43 41 39 39 38 33 31 26 28 33 33 31 30 24 24 28 30 30 31 32 35 35 38 37 37 41 41 37 33 33 31 31 33 33 30 26 28 24
41 40 40 42 42 45 46 43 37 36 33 33 33 35 35 31 34 34 33 34 29 26 26 28 30 31 31 35 38 38 40 37 40 35 37 35 31 29 32 32 31 29 27
32 37 41 46 49 45 40 42 38 34 32 32 30 32 33 32 33 33 31 31 32 32 32 29 29 32 35 35 37 36 36 44 45 42 42 40 37 40 39 36 35 34 30
23 28 41 37 49 64 50 36 33 31 33 33 33 32 33 35 36 35 34 39 39 37 36 37 36 34 31 38 40 39 34 37 41 54 43 43 42 43 39 38 37 38 28
16 24 26 34 33 21 37 35 31 30 30 32 33 34 36 37 37 37 37 40 43 44 41 37 35 33 36 40 41 41 41 38 36 39 51 53 49 45 43 41 41 41 37
21 23 33 41 41 13 16 20 27 30 32 34 34 34 37 39 40 41 43 45 47 45 45 38 36 38 35 38 37 39 39 40 45 44 42 42 43 47 43 43 44 43 44
12 17 11 9 9 12 18 23 28 31 33 35 34 33 35 34 38 37 37 34 38 42 42 43 37 36 32 36 38 43 42 42 44 45 45 49 49 44 46 44 42 43 45
19 12 14 14 13 16 19 22 25 29 32 34 32 34 33 36 40 32 36 43 39 44 45 45 44 42 37 40 42 38 39 40 41 39 41 48 52 56 53 43 41 44 44
15 15 15 15 19 17 20 22 23 23 26 26 28 32 32 40 33 39 41 43 48 42 48 44 39 39 44 47 40 40 44 37 42 42 39 37 43 57 59 48 43 45 48
18 18 20 23 23 25 25 25 30 31 32 32 34 37 35 36 41 44 50 44 53 44 54 49 47 44 44 38 46 43 38 37 35 39 37 38 37 45 56 48 58 47 42
23 22 20 20 21 23 24 24 26 27 28 28 29 33 32 31 36 36 36 39 39 38 49 43 38 44 35 38 32 38 45 45 45 34 41 37 37 39 42 45 55 55 52
23 24 24 24 24 26 26 27 28 29 30 31 33 34 35 37 41 40 40 39 40 40 38 36 43 37 41 39 40 36 38 31 28 37 35 35 40 35 38 42 48 48 57
23 23 23 24 24 25 25 25 24 25 27 28 30 31 33 35 36 38 37 36 39 41 42 44 46 47 46 44 46 42 41 36 34 32 33 35 37 35 36 37 39 40 40
24 24 24 24 24 25 25 25 26 26 28 29 30 31 32 33 36 36 37 37 39 40 41 42 44 46 46 47 48 47 46 43 44 44 38 36 34 34 33 36 40 38 35
23 22 22 23 24 24 24 26 27 29 29 30 30 30 30 31 33 35 34 34 36 37 40 41 41 42 44 44 47 46 49 50 50 48 47 50 44 41 37 36 34 36 33
24 24 24 25 26 28 28 27 27 28 29 30 30 31 31 30 32 33 33 33 34 34 37 39 40 41 43 42 44 46 47 50 52 52 51 56 51 52 45 41 37 35 31
25 26 26 27 28 29 29 30 30 28 27 27 27 29 30 29 30 31 33 32 32 31 35 37 38 40 40 41 43 47 45 48 50 50 48 57 56 53 52 45 42 39 33
26 28 28 29 30 29 29 29 30 30 28 26 25 27 29 31 32 34 37 39 39 36 37 36 34 34 35 36 38 42 46 49 50 51 45 49 53 55 58 53 48 45 41